<?xml version="1.0" encoding="UTF-8" standalone="no" ?>
<gpx xmlns="http://www.topografix.com/GPX/1/1" xmlns:xsi="http://www.w3.org/2001/XMLSchema-instance" xsi:schemaLocation="http://www.topografix.com/GPX/1/1 http://www.topografix.com/GPX/1/1/gpx.xsd" version="1.1" creator="VisuGPX - https://www.visugpx.com">
  <metadata>
    <name>GT 34 Font du griffe-salvetat sur agout</name>
    <desc><![CDATA[itinéraire nord de la Grande Traversée 34]]></desc>
  </metadata>
  <trk>
    <name><![CDATA[20180607100519-EWvPH]]></name>
    <trkseg>
      <trkpt lat="43.6033" lon="2.67989">
        <ele>675</ele>
        <time>2007-06-12T23:13:49Z</time>
      </trkpt>
      <trkpt lat="43.60292" lon="2.6858">
        <ele>704</ele>
        <time>2007-06-12T23:13:49Z</time>
      </trkpt>
      <trkpt lat="43.60272" lon="2.68631">
        <ele>710</ele>
        <time>2007-06-12T23:13:49Z</time>
      </trkpt>
      <trkpt lat="43.60076" lon="2.68653">
        <ele>724</ele>
        <time>2007-06-12T23:13:49Z</time>
      </trkpt>
      <trkpt lat="43.6001" lon="2.68613">
        <ele>725</ele>
        <time>2007-06-12T23:13:49Z</time>
      </trkpt>
      <trkpt lat="43.59953" lon="2.68621">
        <ele>727</ele>
        <time>2007-06-12T23:13:49Z</time>
      </trkpt>
      <trkpt lat="43.59835" lon="2.68817">
        <ele>733</ele>
        <time>2007-06-12T23:13:49Z</time>
      </trkpt>
      <trkpt lat="43.59821" lon="2.68915">
        <ele>732</ele>
        <time>2007-06-12T23:13:49Z</time>
      </trkpt>
      <trkpt lat="43.59721" lon="2.68914">
        <ele>729</ele>
        <time>2007-06-12T23:13:49Z</time>
      </trkpt>
      <trkpt lat="43.59633" lon="2.68768">
        <ele>733</ele>
        <time>2007-06-12T23:13:49Z</time>
      </trkpt>
      <trkpt lat="43.59482" lon="2.68653">
        <ele>745</ele>
        <time>2007-06-12T23:13:49Z</time>
      </trkpt>
      <trkpt lat="43.59451" lon="2.68545">
        <ele>751</ele>
        <time>2007-06-12T23:13:49Z</time>
      </trkpt>
      <trkpt lat="43.59448" lon="2.68406">
        <ele>765</ele>
        <time>2007-06-12T23:13:49Z</time>
      </trkpt>
      <trkpt lat="43.59423" lon="2.68304">
        <ele>770</ele>
        <time>2007-06-12T23:13:49Z</time>
      </trkpt>
      <trkpt lat="43.59246" lon="2.68269">
        <ele>787</ele>
        <time>2007-06-12T23:13:49Z</time>
      </trkpt>
      <trkpt lat="43.59223" lon="2.68199">
        <ele>796</ele>
        <time>2007-06-12T23:13:49Z</time>
      </trkpt>
      <trkpt lat="43.59083" lon="2.68042">
        <ele>815</ele>
        <time>2007-06-12T23:13:49Z</time>
      </trkpt>
      <trkpt lat="43.58944" lon="2.68048">
        <ele>806</ele>
        <time>2007-06-12T23:13:49Z</time>
      </trkpt>
      <trkpt lat="43.58849" lon="2.67935">
        <ele>827</ele>
        <time>2007-06-12T23:13:49Z</time>
      </trkpt>
      <trkpt lat="43.58784" lon="2.67908">
        <ele>836</ele>
        <time>2007-06-12T23:13:49Z</time>
      </trkpt>
      <trkpt lat="43.58708" lon="2.67763">
        <ele>863</ele>
        <time>2007-06-12T23:13:49Z</time>
      </trkpt>
      <trkpt lat="43.58522" lon="2.6772">
        <ele>857</ele>
        <time>2007-06-12T23:13:49Z</time>
      </trkpt>
      <trkpt lat="43.58488" lon="2.67668">
        <ele>857</ele>
        <time>2007-06-12T23:13:49Z</time>
      </trkpt>
      <trkpt lat="43.58512" lon="2.67566">
        <ele>872</ele>
        <time>2007-06-12T23:13:49Z</time>
      </trkpt>
      <trkpt lat="43.58461" lon="2.67501">
        <ele>867</ele>
        <time>2007-06-12T23:13:49Z</time>
      </trkpt>
      <trkpt lat="43.58438" lon="2.67331">
        <ele>884</ele>
        <time>2007-06-12T23:13:49Z</time>
      </trkpt>
      <trkpt lat="43.58353" lon="2.67243">
        <ele>885</ele>
        <time>2007-06-12T23:13:49Z</time>
      </trkpt>
      <trkpt lat="43.58214" lon="2.67177">
        <ele>877</ele>
        <time>2007-06-12T23:13:49Z</time>
      </trkpt>
      <trkpt lat="43.58177" lon="2.67118">
        <ele>882</ele>
        <time>2007-06-12T23:13:49Z</time>
      </trkpt>
      <trkpt lat="43.58128" lon="2.6711">
        <ele>876</ele>
        <time>2007-06-12T23:13:49Z</time>
      </trkpt>
      <trkpt lat="43.58066" lon="2.67046">
        <ele>877</ele>
        <time>2007-06-12T23:13:49Z</time>
      </trkpt>
      <trkpt lat="43.57981" lon="2.66839">
        <ele>875</ele>
        <time>2007-06-12T23:13:49Z</time>
      </trkpt>
      <trkpt lat="43.57935" lon="2.66585">
        <ele>885</ele>
        <time>2007-06-12T23:13:49Z</time>
      </trkpt>
      <trkpt lat="43.57832" lon="2.66477">
        <ele>892</ele>
        <time>2007-06-12T23:13:49Z</time>
      </trkpt>
      <trkpt lat="43.57695" lon="2.66469">
        <ele>890</ele>
        <time>2007-06-12T23:13:49Z</time>
      </trkpt>
      <trkpt lat="43.57553" lon="2.66667">
        <ele>876</ele>
        <time>2007-06-12T23:13:49Z</time>
      </trkpt>
      <trkpt lat="43.573" lon="2.66822">
        <ele>870</ele>
        <time>2007-06-12T23:13:49Z</time>
      </trkpt>
      <trkpt lat="43.57196" lon="2.6702">
        <ele>865</ele>
        <time>2007-06-12T23:13:49Z</time>
      </trkpt>
      <trkpt lat="43.57066" lon="2.6715">
        <ele>860</ele>
        <time>2007-06-12T23:13:49Z</time>
      </trkpt>
      <trkpt lat="43.57008" lon="2.67494">
        <ele>850</ele>
        <time>2007-06-12T23:13:49Z</time>
      </trkpt>
      <trkpt lat="43.57008" lon="2.67903">
        <ele>846</ele>
        <time>2007-06-12T23:13:49Z</time>
      </trkpt>
      <trkpt lat="43.5697" lon="2.6824">
        <ele>856</ele>
        <time>2007-06-12T23:13:49Z</time>
      </trkpt>
      <trkpt lat="43.57019" lon="2.68316">
        <ele>858</ele>
        <time>2007-06-12T23:13:49Z</time>
      </trkpt>
      <trkpt lat="43.56989" lon="2.68352">
        <ele>862</ele>
        <time>2007-06-12T23:13:49Z</time>
      </trkpt>
      <trkpt lat="43.57015" lon="2.68406">
        <ele>861</ele>
        <time>2007-06-12T23:13:49Z</time>
      </trkpt>
      <trkpt lat="43.56862" lon="2.68577">
        <ele>881</ele>
        <time>2007-06-12T23:13:49Z</time>
      </trkpt>
      <trkpt lat="43.56594" lon="2.68767">
        <ele>904</ele>
        <time>2007-06-12T23:13:49Z</time>
      </trkpt>
      <trkpt lat="43.56513" lon="2.69081">
        <ele>911</ele>
        <time>2007-06-12T23:13:49Z</time>
      </trkpt>
      <trkpt lat="43.56535" lon="2.69224">
        <ele>930</ele>
        <time>2007-06-12T23:13:49Z</time>
      </trkpt>
      <trkpt lat="43.56482" lon="2.692">
        <ele>922</ele>
        <time>2007-06-12T23:13:49Z</time>
      </trkpt>
      <trkpt lat="43.5639" lon="2.69215">
        <ele>917</ele>
        <time>2007-06-12T23:13:49Z</time>
      </trkpt>
      <trkpt lat="43.56335" lon="2.69188">
        <ele>914</ele>
        <time>2007-06-12T23:13:49Z</time>
      </trkpt>
      <trkpt lat="43.56323" lon="2.69229">
        <ele>918</ele>
        <time>2007-06-12T23:13:49Z</time>
      </trkpt>
      <trkpt lat="43.5634" lon="2.69346">
        <ele>926</ele>
        <time>2007-06-12T23:13:49Z</time>
      </trkpt>
      <trkpt lat="43.56316" lon="2.69517">
        <ele>934</ele>
        <time>2007-06-12T23:13:49Z</time>
      </trkpt>
      <trkpt lat="43.56255" lon="2.69614">
        <ele>935</ele>
        <time>2007-06-12T23:13:49Z</time>
      </trkpt>
      <trkpt lat="43.56182" lon="2.69924">
        <ele>951</ele>
        <time>2007-06-12T23:13:49Z</time>
      </trkpt>
      <trkpt lat="43.56202" lon="2.69942">
        <ele>947</ele>
        <time>2007-06-12T23:13:49Z</time>
      </trkpt>
      <trkpt lat="43.56174" lon="2.69964">
        <ele>948</ele>
        <time>2007-06-12T23:13:49Z</time>
      </trkpt>
      <trkpt lat="43.56194" lon="2.70023">
        <ele>944</ele>
        <time>2007-06-12T23:13:49Z</time>
      </trkpt>
      <trkpt lat="43.56163" lon="2.70058">
        <ele>951</ele>
        <time>2007-06-12T23:13:49Z</time>
      </trkpt>
      <trkpt lat="43.56106" lon="2.70325">
        <ele>951</ele>
        <time>2007-06-12T23:13:49Z</time>
      </trkpt>
      <trkpt lat="43.55741" lon="2.70436">
        <ele>933</ele>
        <time>2007-06-12T23:13:49Z</time>
      </trkpt>
      <trkpt lat="43.55691" lon="2.70564">
        <ele>923</ele>
        <time>2007-06-12T23:13:49Z</time>
      </trkpt>
      <trkpt lat="43.55653" lon="2.70596">
        <ele>918</ele>
        <time>2007-06-12T23:13:49Z</time>
      </trkpt>
      <trkpt lat="43.55508" lon="2.70623">
        <ele>916</ele>
        <time>2007-06-12T23:13:49Z</time>
      </trkpt>
      <trkpt lat="43.55484" lon="2.7056">
        <ele>917</ele>
        <time>2007-06-12T23:13:49Z</time>
      </trkpt>
      <trkpt lat="43.5545" lon="2.70564">
        <ele>919</ele>
        <time>2007-06-12T23:13:49Z</time>
      </trkpt>
      <trkpt lat="43.5547" lon="2.70482">
        <ele>915</ele>
        <time>2007-06-12T23:13:49Z</time>
      </trkpt>
      <trkpt lat="43.55328" lon="2.70383">
        <ele>914</ele>
        <time>2007-06-12T23:13:49Z</time>
      </trkpt>
      <trkpt lat="43.55132" lon="2.70383">
        <ele>912</ele>
        <time>2007-06-12T23:13:49Z</time>
      </trkpt>
      <trkpt lat="43.55118" lon="2.70413">
        <ele>913</ele>
        <time>2007-06-12T23:13:49Z</time>
      </trkpt>
      <trkpt lat="43.54922" lon="2.70448">
        <ele>919</ele>
        <time>2007-06-12T23:13:49Z</time>
      </trkpt>
      <trkpt lat="43.54914" lon="2.70521">
        <ele>925</ele>
        <time>2007-06-12T23:13:49Z</time>
      </trkpt>
      <trkpt lat="43.54886" lon="2.70562">
        <ele>926</ele>
        <time>2007-06-12T23:13:49Z</time>
      </trkpt>
      <trkpt lat="43.54513" lon="2.7059">
        <ele>918</ele>
        <time>2007-06-12T23:13:49Z</time>
      </trkpt>
      <trkpt lat="43.54341" lon="2.70642">
        <ele>906</ele>
        <time>2007-06-12T23:13:49Z</time>
      </trkpt>
      <trkpt lat="43.54064" lon="2.7057">
        <ele>893</ele>
        <time>2007-06-12T23:13:49Z</time>
      </trkpt>
      <trkpt lat="43.53895" lon="2.70629">
        <ele>882</ele>
        <time>2007-06-12T23:13:49Z</time>
      </trkpt>
      <trkpt lat="43.53951" lon="2.70696">
        <ele>886</ele>
        <time>2007-06-12T23:13:49Z</time>
      </trkpt>
      <trkpt lat="43.53964" lon="2.70846">
        <ele>882</ele>
        <time>2007-06-12T23:13:49Z</time>
      </trkpt>
      <trkpt lat="43.54043" lon="2.70866">
        <ele>886</ele>
        <time>2007-06-12T23:13:49Z</time>
      </trkpt>
      <trkpt lat="43.54012" lon="2.71017">
        <ele>880</ele>
        <time>2007-06-12T23:13:49Z</time>
      </trkpt>
      <trkpt lat="43.5402" lon="2.71107">
        <ele>879</ele>
        <time>2007-06-12T23:13:49Z</time>
      </trkpt>
      <trkpt lat="43.54061" lon="2.71177">
        <ele>877</ele>
        <time>2007-06-12T23:13:49Z</time>
      </trkpt>
      <trkpt lat="43.54011" lon="2.71338">
        <ele>881</ele>
        <time>2007-06-12T23:13:49Z</time>
      </trkpt>
      <trkpt lat="43.54014" lon="2.7155">
        <ele>889</ele>
        <time>2007-06-12T23:13:49Z</time>
      </trkpt>
      <trkpt lat="43.53829" lon="2.71768">
        <ele>884</ele>
        <time>2007-06-12T23:13:49Z</time>
      </trkpt>
      <trkpt lat="43.53809" lon="2.71943">
        <ele>895</ele>
        <time>2007-06-12T23:13:49Z</time>
      </trkpt>
      <trkpt lat="43.53761" lon="2.72116">
        <ele>899</ele>
        <time>2007-06-12T23:13:49Z</time>
      </trkpt>
      <trkpt lat="43.53827" lon="2.72254">
        <ele>901</ele>
        <time>2007-06-12T23:13:49Z</time>
      </trkpt>
      <trkpt lat="43.53837" lon="2.72429">
        <ele>894</ele>
        <time>2007-06-12T23:13:49Z</time>
      </trkpt>
      <trkpt lat="43.5382" lon="2.72506">
        <ele>890</ele>
        <time>2007-06-12T23:13:49Z</time>
      </trkpt>
      <trkpt lat="43.53789" lon="2.72517">
        <ele>889</ele>
        <time>2007-06-12T23:13:49Z</time>
      </trkpt>
      <trkpt lat="43.5374" lon="2.72676">
        <ele>890</ele>
        <time>2007-06-12T23:13:49Z</time>
      </trkpt>
      <trkpt lat="43.53789" lon="2.72773">
        <ele>897</ele>
        <time>2007-06-12T23:13:49Z</time>
      </trkpt>
      <trkpt lat="43.53906" lon="2.72873">
        <ele>901</ele>
        <time>2007-06-12T23:13:49Z</time>
      </trkpt>
      <trkpt lat="43.53977" lon="2.73056">
        <ele>909</ele>
        <time>2007-06-12T23:13:49Z</time>
      </trkpt>
      <trkpt lat="43.54082" lon="2.73175">
        <ele>908</ele>
        <time>2007-06-12T23:13:49Z</time>
      </trkpt>
      <trkpt lat="43.54069" lon="2.73321">
        <ele>916</ele>
        <time>2007-06-12T23:13:49Z</time>
      </trkpt>
      <trkpt lat="43.53974" lon="2.73443">
        <ele>921</ele>
        <time>2007-06-12T23:13:49Z</time>
      </trkpt>
      <trkpt lat="43.53965" lon="2.73502">
        <ele>920</ele>
        <time>2007-06-12T23:13:49Z</time>
      </trkpt>
      <trkpt lat="43.54161" lon="2.7345">
        <ele>904</ele>
        <time>2007-06-12T23:13:49Z</time>
      </trkpt>
      <trkpt lat="43.5421" lon="2.73571">
        <ele>903</ele>
        <time>2007-06-12T23:13:49Z</time>
      </trkpt>
      <trkpt lat="43.54215" lon="2.73695">
        <ele>910</ele>
        <time>2007-06-12T23:13:49Z</time>
      </trkpt>
      <trkpt lat="43.54291" lon="2.73824">
        <ele>900</ele>
        <time>2007-06-12T23:13:49Z</time>
      </trkpt>
      <trkpt lat="43.54373" lon="2.73897">
        <ele>893</ele>
        <time>2007-06-12T23:13:49Z</time>
      </trkpt>
      <trkpt lat="43.54364" lon="2.74127">
        <ele>901</ele>
        <time>2007-06-12T23:13:49Z</time>
      </trkpt>
      <trkpt lat="43.5439" lon="2.74237">
        <ele>901</ele>
        <time>2007-06-12T23:13:49Z</time>
      </trkpt>
      <trkpt lat="43.54398" lon="2.74549">
        <ele>902</ele>
        <time>2007-06-12T23:13:49Z</time>
      </trkpt>
      <trkpt lat="43.5451" lon="2.74386">
        <ele>899</ele>
        <time>2007-06-12T23:13:49Z</time>
      </trkpt>
      <trkpt lat="43.54566" lon="2.74536">
        <ele>895</ele>
        <time>2007-06-12T23:13:49Z</time>
      </trkpt>
      <trkpt lat="43.5463" lon="2.74541">
        <ele>896</ele>
        <time>2007-06-12T23:13:49Z</time>
      </trkpt>
      <trkpt lat="43.54678" lon="2.74608">
        <ele>898</ele>
        <time>2007-06-12T23:13:49Z</time>
      </trkpt>
      <trkpt lat="43.54663" lon="2.74656">
        <ele>897</ele>
        <time>2007-06-12T23:13:49Z</time>
      </trkpt>
      <trkpt lat="43.5471" lon="2.74832">
        <ele>904</ele>
        <time>2007-06-12T23:13:49Z</time>
      </trkpt>
      <trkpt lat="43.54769" lon="2.7523">
        <ele>922</ele>
        <time>2007-06-12T23:13:49Z</time>
      </trkpt>
      <trkpt lat="43.54796" lon="2.75245">
        <ele>923</ele>
        <time>2007-06-12T23:13:49Z</time>
      </trkpt>
      <trkpt lat="43.54893" lon="2.7521">
        <ele>931</ele>
        <time>2007-06-12T23:13:49Z</time>
      </trkpt>
      <trkpt lat="43.55171" lon="2.75523">
        <ele>922</ele>
        <time>2007-06-12T23:13:49Z</time>
      </trkpt>
      <trkpt lat="43.55076" lon="2.75741">
        <ele>920</ele>
        <time>2007-06-12T23:13:49Z</time>
      </trkpt>
      <trkpt lat="43.55" lon="2.75736">
        <ele>922</ele>
        <time>2007-06-12T23:13:49Z</time>
      </trkpt>
      <trkpt lat="43.54948" lon="2.759">
        <ele>910</ele>
        <time>2007-06-12T23:13:49Z</time>
      </trkpt>
      <trkpt lat="43.54908" lon="2.7595">
        <ele>905</ele>
        <time>2007-06-12T23:13:49Z</time>
      </trkpt>
      <trkpt lat="43.54773" lon="2.75948">
        <ele>903</ele>
        <time>2007-06-12T23:13:49Z</time>
      </trkpt>
      <trkpt lat="43.54716" lon="2.7601">
        <ele>908</ele>
        <time>2007-06-12T23:13:49Z</time>
      </trkpt>
      <trkpt lat="43.54659" lon="2.7594">
        <ele>913</ele>
        <time>2007-06-12T23:13:49Z</time>
      </trkpt>
      <trkpt lat="43.54548" lon="2.7592">
        <ele>921</ele>
        <time>2007-06-12T23:13:49Z</time>
      </trkpt>
      <trkpt lat="43.54469" lon="2.75944">
        <ele>928</ele>
        <time>2007-06-12T23:13:49Z</time>
      </trkpt>
      <trkpt lat="43.54394" lon="2.75858">
        <ele>934</ele>
        <time>2007-06-12T23:13:49Z</time>
      </trkpt>
      <trkpt lat="43.54338" lon="2.75831">
        <ele>936</ele>
        <time>2007-06-12T23:13:49Z</time>
      </trkpt>
      <trkpt lat="43.54343" lon="2.75933">
        <ele>940</ele>
        <time>2007-06-12T23:13:49Z</time>
      </trkpt>
      <trkpt lat="43.54316" lon="2.76022">
        <ele>947</ele>
        <time>2007-06-12T23:13:49Z</time>
      </trkpt>
      <trkpt lat="43.54088" lon="2.76252">
        <ele>972</ele>
        <time>2007-06-12T23:13:49Z</time>
      </trkpt>
      <trkpt lat="43.54023" lon="2.76462">
        <ele>966</ele>
        <time>2007-06-12T23:13:49Z</time>
      </trkpt>
      <trkpt lat="43.5401" lon="2.76834">
        <ele>960</ele>
        <time>2007-06-12T23:13:49Z</time>
      </trkpt>
      <trkpt lat="43.53957" lon="2.77206">
        <ele>964</ele>
        <time>2007-06-12T23:13:49Z</time>
      </trkpt>
      <trkpt lat="43.53763" lon="2.77315">
        <ele>972</ele>
        <time>2007-06-12T23:13:49Z</time>
      </trkpt>
      <trkpt lat="43.53743" lon="2.77378">
        <ele>960</ele>
        <time>2007-06-12T23:13:49Z</time>
      </trkpt>
      <trkpt lat="43.53715" lon="2.77906">
        <ele>968</ele>
        <time>2007-06-12T23:13:49Z</time>
      </trkpt>
      <trkpt lat="43.53818" lon="2.78022">
        <ele>957</ele>
        <time>2007-06-12T23:13:49Z</time>
      </trkpt>
      <trkpt lat="43.53864" lon="2.78028">
        <ele>970</ele>
        <time>2007-06-12T23:13:49Z</time>
      </trkpt>
      <trkpt lat="43.53946" lon="2.78175">
        <ele>951</ele>
        <time>2007-06-12T23:13:49Z</time>
      </trkpt>
      <trkpt lat="43.5395" lon="2.78279">
        <ele>930</ele>
        <time>2007-06-12T23:13:49Z</time>
      </trkpt>
      <trkpt lat="43.54026" lon="2.78276">
        <ele>951</ele>
        <time>2007-06-12T23:13:49Z</time>
      </trkpt>
      <trkpt lat="43.54182" lon="2.78381">
        <ele>939</ele>
        <time>2007-06-12T23:13:49Z</time>
      </trkpt>
      <trkpt lat="43.54334" lon="2.78437">
        <ele>938</ele>
        <time>2007-06-12T23:13:49Z</time>
      </trkpt>
      <trkpt lat="43.54365" lon="2.78515">
        <ele>932</ele>
        <time>2007-06-12T23:13:49Z</time>
      </trkpt>
      <trkpt lat="43.54452" lon="2.78539">
        <ele>939</ele>
        <time>2007-06-12T23:13:49Z</time>
      </trkpt>
      <trkpt lat="43.54648" lon="2.78426">
        <ele>949</ele>
        <time>2007-06-12T23:13:49Z</time>
      </trkpt>
      <trkpt lat="43.54778" lon="2.78172">
        <ele>956</ele>
        <time>2007-06-12T23:13:49Z</time>
      </trkpt>
      <trkpt lat="43.54858" lon="2.77903">
        <ele>955</ele>
        <time>2007-06-12T23:13:49Z</time>
      </trkpt>
      <trkpt lat="43.54903" lon="2.77883">
        <ele>957</ele>
        <time>2007-06-12T23:13:49Z</time>
      </trkpt>
      <trkpt lat="43.55029" lon="2.77965">
        <ele>964</ele>
        <time>2007-06-12T23:13:49Z</time>
      </trkpt>
      <trkpt lat="43.55236" lon="2.78224">
        <ele>976</ele>
        <time>2007-06-12T23:13:49Z</time>
      </trkpt>
      <trkpt lat="43.55268" lon="2.78166">
        <ele>971</ele>
        <time>2007-06-12T23:13:49Z</time>
      </trkpt>
      <trkpt lat="43.5545" lon="2.78166">
        <ele>975</ele>
        <time>2007-06-12T23:13:49Z</time>
      </trkpt>
      <trkpt lat="43.5552" lon="2.78197">
        <ele>978</ele>
        <time>2007-06-12T23:13:49Z</time>
      </trkpt>
      <trkpt lat="43.55438" lon="2.78522">
        <ele>990</ele>
        <time>2007-06-12T23:13:49Z</time>
      </trkpt>
      <trkpt lat="43.55189" lon="2.7923">
        <ele>975</ele>
        <time>2007-06-12T23:13:49Z</time>
      </trkpt>
      <trkpt lat="43.5528" lon="2.7929">
        <ele>967</ele>
        <time>2007-06-12T23:13:49Z</time>
      </trkpt>
      <trkpt lat="43.55307" lon="2.79335">
        <ele>960</ele>
        <time>2007-06-12T23:13:49Z</time>
      </trkpt>
      <trkpt lat="43.55309" lon="2.79505">
        <ele>969</ele>
        <time>2007-06-12T23:13:49Z</time>
      </trkpt>
      <trkpt lat="43.55344" lon="2.79551">
        <ele>968</ele>
        <time>2007-06-12T23:13:49Z</time>
      </trkpt>
      <trkpt lat="43.55306" lon="2.79744">
        <ele>983</ele>
        <time>2007-06-12T23:13:49Z</time>
      </trkpt>
      <trkpt lat="43.5525" lon="2.79871">
        <ele>988</ele>
        <time>2007-06-12T23:13:49Z</time>
      </trkpt>
      <trkpt lat="43.55305" lon="2.79897">
        <ele>988</ele>
        <time>2007-06-12T23:13:49Z</time>
      </trkpt>
      <trkpt lat="43.55485" lon="2.79894">
        <ele>982</ele>
        <time>2007-06-12T23:13:49Z</time>
      </trkpt>
      <trkpt lat="43.55631" lon="2.79942">
        <ele>979</ele>
        <time>2007-06-12T23:13:49Z</time>
      </trkpt>
      <trkpt lat="43.55843" lon="2.80236">
        <ele>984</ele>
        <time>2007-06-12T23:13:49Z</time>
      </trkpt>
      <trkpt lat="43.5587" lon="2.8024">
        <ele>984</ele>
        <time>2007-06-12T23:13:49Z</time>
      </trkpt>
      <trkpt lat="43.55923" lon="2.80152">
        <ele>980</ele>
        <time>2007-06-12T23:13:49Z</time>
      </trkpt>
      <trkpt lat="43.56042" lon="2.80093">
        <ele>982</ele>
        <time>2007-06-12T23:13:49Z</time>
      </trkpt>
      <trkpt lat="43.56123" lon="2.80113">
        <ele>984</ele>
        <time>2007-06-12T23:13:49Z</time>
      </trkpt>
      <trkpt lat="43.56254" lon="2.80086">
        <ele>981</ele>
        <time>2007-06-12T23:13:49Z</time>
      </trkpt>
      <trkpt lat="43.56339" lon="2.80191">
        <ele>985</ele>
        <time>2007-06-12T23:13:49Z</time>
      </trkpt>
      <trkpt lat="43.56497" lon="2.8015">
        <ele>980</ele>
        <time>2007-06-12T23:13:49Z</time>
      </trkpt>
      <trkpt lat="43.56671" lon="2.80217">
        <ele>987</ele>
        <time>2007-06-12T23:13:49Z</time>
      </trkpt>
      <trkpt lat="43.56739" lon="2.80291">
        <ele>991</ele>
        <time>2007-06-12T23:13:49Z</time>
      </trkpt>
      <trkpt lat="43.56779" lon="2.8029">
        <ele>985</ele>
        <time>2007-06-12T23:13:49Z</time>
      </trkpt>
      <trkpt lat="43.5682" lon="2.80428">
        <ele>988</ele>
        <time>2007-06-12T23:13:49Z</time>
      </trkpt>
      <trkpt lat="43.56956" lon="2.80495">
        <ele>996</ele>
        <time>2007-06-12T23:13:49Z</time>
      </trkpt>
      <trkpt lat="43.5717" lon="2.80691">
        <ele>1001</ele>
        <time>2007-06-12T23:13:49Z</time>
      </trkpt>
      <trkpt lat="43.57239" lon="2.80872">
        <ele>1004</ele>
        <time>2007-06-12T23:13:49Z</time>
      </trkpt>
      <trkpt lat="43.57222" lon="2.81409">
        <ele>1009</ele>
        <time>2007-06-12T23:13:49Z</time>
      </trkpt>
      <trkpt lat="43.57162" lon="2.81642">
        <ele>1013</ele>
        <time>2007-06-12T23:13:49Z</time>
      </trkpt>
      <trkpt lat="43.57189" lon="2.81922">
        <ele>1026</ele>
        <time>2007-06-12T23:13:49Z</time>
      </trkpt>
      <trkpt lat="43.5725" lon="2.81988">
        <ele>1027</ele>
        <time>2007-06-12T23:13:49Z</time>
      </trkpt>
      <trkpt lat="43.573" lon="2.81992">
        <ele>1027</ele>
        <time>2007-06-12T23:13:49Z</time>
      </trkpt>
      <trkpt lat="43.57241" lon="2.8223">
        <ele>1037</ele>
        <time>2007-06-12T23:13:49Z</time>
      </trkpt>
      <trkpt lat="43.57417" lon="2.82354">
        <ele>1047</ele>
        <time>2007-06-12T23:13:49Z</time>
      </trkpt>
      <trkpt lat="43.5756" lon="2.82355">
        <ele>1049</ele>
        <time>2007-06-12T23:13:49Z</time>
      </trkpt>
      <trkpt lat="43.57699" lon="2.82428">
        <ele>1053</ele>
        <time>2007-06-12T23:13:49Z</time>
      </trkpt>
      <trkpt lat="43.57889" lon="2.82473">
        <ele>1056</ele>
        <time>2007-06-12T23:13:49Z</time>
      </trkpt>
      <trkpt lat="43.57949" lon="2.82655">
        <ele>1050</ele>
        <time>2007-06-12T23:13:49Z</time>
      </trkpt>
      <trkpt lat="43.58071" lon="2.82768">
        <ele>1055</ele>
        <time>2007-06-12T23:13:49Z</time>
      </trkpt>
      <trkpt lat="43.57944" lon="2.829">
        <ele>1044</ele>
        <time>2007-06-12T23:13:49Z</time>
      </trkpt>
      <trkpt lat="43.5792" lon="2.83073">
        <ele>1039</ele>
        <time>2007-06-12T23:13:49Z</time>
      </trkpt>
      <trkpt lat="43.58008" lon="2.83105">
        <ele>1044</ele>
        <time>2007-06-12T23:13:49Z</time>
      </trkpt>
      <trkpt lat="43.58035" lon="2.83176">
        <ele>1037</ele>
        <time>2007-06-12T23:13:49Z</time>
      </trkpt>
      <trkpt lat="43.58038" lon="2.83316">
        <ele>1035</ele>
        <time>2007-06-12T23:13:49Z</time>
      </trkpt>
      <trkpt lat="43.58097" lon="2.83415">
        <ele>1040</ele>
        <time>2007-06-12T23:13:49Z</time>
      </trkpt>
      <trkpt lat="43.58219" lon="2.83451">
        <ele>1042</ele>
        <time>2007-06-12T23:13:49Z</time>
      </trkpt>
      <trkpt lat="43.5837" lon="2.83385">
        <ele>1054</ele>
        <time>2007-06-12T23:13:49Z</time>
      </trkpt>
      <trkpt lat="43.58457" lon="2.83288">
        <ele>1066</ele>
        <time>2007-06-12T23:13:49Z</time>
      </trkpt>
      <trkpt lat="43.58615" lon="2.83254">
        <ele>1073</ele>
        <time>2007-06-12T23:13:49Z</time>
      </trkpt>
      <trkpt lat="43.58633" lon="2.83657">
        <ele>1070</ele>
        <time>2007-06-12T23:13:49Z</time>
      </trkpt>
      <trkpt lat="43.58707" lon="2.83656">
        <ele>1068</ele>
        <time>2007-06-12T23:13:49Z</time>
      </trkpt>
      <trkpt lat="43.58854" lon="2.83553">
        <ele>1066</ele>
        <time>2007-06-12T23:13:49Z</time>
      </trkpt>
      <trkpt lat="43.58993" lon="2.83665">
        <ele>1062</ele>
        <time>2007-06-12T23:13:49Z</time>
      </trkpt>
      <trkpt lat="43.59234" lon="2.83562">
        <ele>1048</ele>
        <time>2007-06-12T23:13:49Z</time>
      </trkpt>
      <trkpt lat="43.59269" lon="2.83612">
        <ele>1043</ele>
        <time>2007-06-12T23:13:49Z</time>
      </trkpt>
      <trkpt lat="43.59211" lon="2.83677">
        <ele>1039</ele>
        <time>2007-06-12T23:13:49Z</time>
      </trkpt>
      <trkpt lat="43.59232" lon="2.83781">
        <ele>1032</ele>
        <time>2007-06-12T23:13:49Z</time>
      </trkpt>
      <trkpt lat="43.59173" lon="2.8399">
        <ele>1018</ele>
        <time>2007-06-12T23:13:49Z</time>
      </trkpt>
      <trkpt lat="43.59189" lon="2.84053">
        <ele>1018</ele>
        <time>2007-06-12T23:13:49Z</time>
      </trkpt>
      <trkpt lat="43.59176" lon="2.84126">
        <ele>1014</ele>
        <time>2007-06-12T23:13:49Z</time>
      </trkpt>
      <trkpt lat="43.59206" lon="2.84245">
        <ele>1010</ele>
        <time>2007-06-12T23:13:49Z</time>
      </trkpt>
      <trkpt lat="43.59263" lon="2.84299">
        <ele>1005</ele>
        <time>2007-06-12T23:13:49Z</time>
      </trkpt>
      <trkpt lat="43.59306" lon="2.8429">
        <ele>1004</ele>
        <time>2007-06-12T23:13:49Z</time>
      </trkpt>
      <trkpt lat="43.59337" lon="2.84244">
        <ele>1006</ele>
        <time>2007-06-12T23:13:49Z</time>
      </trkpt>
      <trkpt lat="43.59332" lon="2.84151">
        <ele>1013</ele>
        <time>2007-06-12T23:13:49Z</time>
      </trkpt>
      <trkpt lat="43.59388" lon="2.84096">
        <ele>1008</ele>
        <time>2007-06-12T23:13:49Z</time>
      </trkpt>
      <trkpt lat="43.59572" lon="2.84108">
        <ele>995</ele>
        <time>2007-06-12T23:13:49Z</time>
      </trkpt>
      <trkpt lat="43.59827" lon="2.83963">
        <ele>984</ele>
        <time>2007-06-12T23:13:49Z</time>
      </trkpt>
      <trkpt lat="43.59885" lon="2.83981">
        <ele>977</ele>
        <time>2007-06-12T23:13:49Z</time>
      </trkpt>
      <trkpt lat="43.59969" lon="2.84297">
        <ele>981</ele>
        <time>2007-06-12T23:13:49Z</time>
      </trkpt>
      <trkpt lat="43.59992" lon="2.84322">
        <ele>981</ele>
        <time>2007-06-12T23:13:49Z</time>
      </trkpt>
      <trkpt lat="43.60017" lon="2.84475">
        <ele>983</ele>
        <time>2007-06-12T23:13:49Z</time>
      </trkpt>
      <trkpt lat="43.60051" lon="2.84555">
        <ele>981</ele>
        <time>2007-06-12T23:13:49Z</time>
      </trkpt>
      <trkpt lat="43.60126" lon="2.84562">
        <ele>980</ele>
        <time>2007-06-12T23:13:49Z</time>
      </trkpt>
      <trkpt lat="43.60125" lon="2.84603">
        <ele>981</ele>
        <time>2007-06-12T23:13:49Z</time>
      </trkpt>
      <trkpt lat="43.60056" lon="2.84742">
        <ele>985</ele>
        <time>2007-06-12T23:13:49Z</time>
      </trkpt>
      <trkpt lat="43.60063" lon="2.84764">
        <ele>990</ele>
        <time>2007-06-12T23:13:49Z</time>
      </trkpt>
      <trkpt lat="43.60213" lon="2.84744">
        <ele>991</ele>
        <time>2007-06-12T23:13:49Z</time>
      </trkpt>
      <trkpt lat="43.60267" lon="2.84799">
        <ele>995</ele>
        <time>2007-06-12T23:13:49Z</time>
      </trkpt>
      <trkpt lat="43.60268" lon="2.84902">
        <ele>998</ele>
        <time>2007-06-12T23:13:49Z</time>
      </trkpt>
      <trkpt lat="43.60188" lon="2.85012">
        <ele>1008</ele>
        <time>2007-06-12T23:13:49Z</time>
      </trkpt>
      <trkpt lat="43.60115" lon="2.85223">
        <ele>1010</ele>
        <time>2007-06-12T23:13:49Z</time>
      </trkpt>
      <trkpt lat="43.6011" lon="2.85302">
        <ele>1009</ele>
        <time>2007-06-12T23:13:49Z</time>
      </trkpt>
      <trkpt lat="43.60137" lon="2.85401">
        <ele>1011</ele>
        <time>2007-06-12T23:13:49Z</time>
      </trkpt>
      <trkpt lat="43.60187" lon="2.85433">
        <ele>1023</ele>
        <time>2007-06-12T23:13:49Z</time>
      </trkpt>
      <trkpt lat="43.60326" lon="2.85827">
        <ele>1022</ele>
        <time>2007-06-12T23:13:49Z</time>
      </trkpt>
      <trkpt lat="43.60318" lon="2.86103">
        <ele>1031</ele>
        <time>2007-06-12T23:13:49Z</time>
      </trkpt>
      <trkpt lat="43.6028" lon="2.86198">
        <ele>1035</ele>
        <time>2007-06-12T23:13:49Z</time>
      </trkpt>
      <trkpt lat="43.60267" lon="2.86537">
        <ele>1046</ele>
        <time>2007-06-12T23:13:49Z</time>
      </trkpt>
      <trkpt lat="43.60151" lon="2.86809">
        <ele>1042</ele>
        <time>2007-06-12T23:13:49Z</time>
      </trkpt>
      <trkpt lat="43.60006" lon="2.86955">
        <ele>1044</ele>
        <time>2007-06-12T23:13:49Z</time>
      </trkpt>
      <trkpt lat="43.60028" lon="2.87047">
        <ele>1041</ele>
        <time>2007-06-12T23:13:49Z</time>
      </trkpt>
      <trkpt lat="43.60145" lon="2.87269">
        <ele>1036</ele>
        <time>2007-06-12T23:13:49Z</time>
      </trkpt>
      <trkpt lat="43.60162" lon="2.87399">
        <ele>1049</ele>
        <time>2007-06-12T23:13:49Z</time>
      </trkpt>
      <trkpt lat="43.60102" lon="2.87877">
        <ele>1061</ele>
        <time>2007-06-12T23:13:49Z</time>
      </trkpt>
      <trkpt lat="43.60117" lon="2.88061">
        <ele>1054</ele>
        <time>2007-06-12T23:13:49Z</time>
      </trkpt>
      <trkpt lat="43.60184" lon="2.88363">
        <ele>1040</ele>
        <time>2007-06-12T23:13:49Z</time>
      </trkpt>
      <trkpt lat="43.60135" lon="2.88574">
        <ele>1017</ele>
        <time>2007-06-12T23:13:49Z</time>
      </trkpt>
      <trkpt lat="43.60181" lon="2.88657">
        <ele>1020</ele>
        <time>2007-06-12T23:13:49Z</time>
      </trkpt>
      <trkpt lat="43.60327" lon="2.88701">
        <ele>1013</ele>
        <time>2007-06-12T23:13:49Z</time>
      </trkpt>
      <trkpt lat="43.60437" lon="2.88789">
        <ele>1004</ele>
        <time>2007-06-12T23:13:49Z</time>
      </trkpt>
      <trkpt lat="43.60332" lon="2.88868">
        <ele>997</ele>
        <time>2007-06-12T23:13:49Z</time>
      </trkpt>
      <trkpt lat="43.60209" lon="2.8888">
        <ele>989</ele>
        <time>2007-06-12T23:13:49Z</time>
      </trkpt>
      <trkpt lat="43.60198" lon="2.88901">
        <ele>986</ele>
        <time>2007-06-12T23:13:49Z</time>
      </trkpt>
      <trkpt lat="43.60232" lon="2.8891">
        <ele>988</ele>
        <time>2007-06-12T23:13:49Z</time>
      </trkpt>
      <trkpt lat="43.60301" lon="2.89059">
        <ele>985</ele>
        <time>2007-06-12T23:13:49Z</time>
      </trkpt>
      <trkpt lat="43.60145" lon="2.89141">
        <ele>990</ele>
        <time>2007-06-12T23:13:49Z</time>
      </trkpt>
      <trkpt lat="43.60281" lon="2.8927">
        <ele>1010</ele>
        <time>2007-06-12T23:13:49Z</time>
      </trkpt>
      <trkpt lat="43.60279" lon="2.8934">
        <ele>1020</ele>
        <time>2007-06-12T23:13:49Z</time>
      </trkpt>
      <trkpt lat="43.60335" lon="2.89601">
        <ele>1035</ele>
        <time>2007-06-12T23:13:49Z</time>
      </trkpt>
      <trkpt lat="43.60431" lon="2.89777">
        <ele>1043</ele>
        <time>2007-06-12T23:13:49Z</time>
      </trkpt>
      <trkpt lat="43.60426" lon="2.89828">
        <ele>1046</ele>
        <time>2007-06-12T23:13:49Z</time>
      </trkpt>
      <trkpt lat="43.60336" lon="2.8999">
        <ele>1060</ele>
        <time>2007-06-12T23:13:49Z</time>
      </trkpt>
      <trkpt lat="43.60252" lon="2.90077">
        <ele>1061</ele>
        <time>2007-06-12T23:13:49Z</time>
      </trkpt>
      <trkpt lat="43.60261" lon="2.90306">
        <ele>1055</ele>
        <time>2007-06-12T23:13:49Z</time>
      </trkpt>
      <trkpt lat="43.60379" lon="2.90437">
        <ele>1047</ele>
        <time>2007-06-12T23:13:49Z</time>
      </trkpt>
      <trkpt lat="43.60432" lon="2.90624">
        <ele>1043</ele>
        <time>2007-06-12T23:13:49Z</time>
      </trkpt>
      <trkpt lat="43.60511" lon="2.90666">
        <ele>1040</ele>
        <time>2007-06-12T23:13:49Z</time>
      </trkpt>
      <trkpt lat="43.60829" lon="2.90659">
        <ele>1027</ele>
        <time>2007-06-12T23:13:49Z</time>
      </trkpt>
      <trkpt lat="43.6107" lon="2.90609">
        <ele>1022</ele>
        <time>2007-06-12T23:13:49Z</time>
      </trkpt>
      <trkpt lat="43.61149" lon="2.90755">
        <ele>1022</ele>
        <time>2007-06-12T23:13:49Z</time>
      </trkpt>
      <trkpt lat="43.61151" lon="2.90883">
        <ele>1020</ele>
        <time>2007-06-12T23:13:49Z</time>
      </trkpt>
      <trkpt lat="43.61261" lon="2.91085">
        <ele>1023</ele>
        <time>2007-06-12T23:13:49Z</time>
      </trkpt>
      <trkpt lat="43.61346" lon="2.9117">
        <ele>1027</ele>
        <time>2007-06-12T23:13:49Z</time>
      </trkpt>
      <trkpt lat="43.61405" lon="2.91294">
        <ele>1031</ele>
        <time>2007-06-12T23:13:49Z</time>
      </trkpt>
      <trkpt lat="43.61542" lon="2.91466">
        <ele>1044</ele>
        <time>2007-06-12T23:13:49Z</time>
      </trkpt>
      <trkpt lat="43.61742" lon="2.91624">
        <ele>1041</ele>
        <time>2007-06-12T23:13:49Z</time>
      </trkpt>
      <trkpt lat="43.62018" lon="2.91617">
        <ele>1043</ele>
        <time>2007-06-12T23:13:49Z</time>
      </trkpt>
      <trkpt lat="43.62388" lon="2.91914">
        <ele>1039</ele>
        <time>2007-06-12T23:13:49Z</time>
      </trkpt>
      <trkpt lat="43.62405" lon="2.92236">
        <ele>1046</ele>
        <time>2007-06-12T23:13:49Z</time>
      </trkpt>
      <trkpt lat="43.62578" lon="2.92394">
        <ele>1053</ele>
        <time>2007-06-12T23:13:49Z</time>
      </trkpt>
      <trkpt lat="43.62605" lon="2.92861">
        <ele>1051</ele>
        <time>2007-06-12T23:13:49Z</time>
      </trkpt>
      <trkpt lat="43.62773" lon="2.93043">
        <ele>1042</ele>
        <time>2007-06-12T23:13:49Z</time>
      </trkpt>
      <trkpt lat="43.62872" lon="2.92947">
        <ele>1045</ele>
        <time>2007-06-12T23:13:49Z</time>
      </trkpt>
      <trkpt lat="43.62901" lon="2.92734">
        <ele>1035</ele>
        <time>2007-06-12T23:13:49Z</time>
      </trkpt>
      <trkpt lat="43.63002" lon="2.92609">
        <ele>1028</ele>
        <time>2007-06-12T23:13:49Z</time>
      </trkpt>
      <trkpt lat="43.63081" lon="2.92553">
        <ele>1017</ele>
        <time>2007-06-12T23:13:49Z</time>
      </trkpt>
      <trkpt lat="43.63305" lon="2.9263">
        <ele>1005</ele>
        <time>2007-06-12T23:13:49Z</time>
      </trkpt>
      <trkpt lat="43.63478" lon="2.9279">
        <ele>996</ele>
        <time>2007-06-12T23:13:49Z</time>
      </trkpt>
      <trkpt lat="43.63594" lon="2.92832">
        <ele>993</ele>
        <time>2007-06-12T23:13:49Z</time>
      </trkpt>
      <trkpt lat="43.63688" lon="2.92827">
        <ele>995</ele>
        <time>2007-06-12T23:13:49Z</time>
      </trkpt>
      <trkpt lat="43.63977" lon="2.92608">
        <ele>1004</ele>
        <time>2007-06-12T23:13:49Z</time>
      </trkpt>
      <trkpt lat="43.64025" lon="2.92518">
        <ele>1009</ele>
        <time>2007-06-12T23:13:49Z</time>
      </trkpt>
      <trkpt lat="43.6423" lon="2.92363">
        <ele>1020</ele>
        <time>2007-06-12T23:13:49Z</time>
      </trkpt>
      <trkpt lat="43.64379" lon="2.92127">
        <ele>1018</ele>
        <time>2007-06-12T23:13:49Z</time>
      </trkpt>
      <trkpt lat="43.64621" lon="2.92018">
        <ele>1036</ele>
        <time>2007-06-12T23:13:49Z</time>
      </trkpt>
      <trkpt lat="43.64721" lon="2.92061">
        <ele>1044</ele>
        <time>2007-06-12T23:13:49Z</time>
      </trkpt>
      <trkpt lat="43.64843" lon="2.9206">
        <ele>1054</ele>
        <time>2007-06-12T23:13:49Z</time>
      </trkpt>
      <trkpt lat="43.65288" lon="2.92456">
        <ele>1069</ele>
        <time>2007-06-12T23:13:49Z</time>
      </trkpt>
      <trkpt lat="43.65349" lon="2.92286">
        <ele>1066</ele>
        <time>2007-06-12T23:13:49Z</time>
      </trkpt>
      <trkpt lat="43.65409" lon="2.92318">
        <ele>1065</ele>
        <time>2007-06-12T23:13:49Z</time>
      </trkpt>
      <trkpt lat="43.6546" lon="2.92292">
        <ele>1061</ele>
        <time>2007-06-12T23:13:49Z</time>
      </trkpt>
      <trkpt lat="43.65464" lon="2.92248">
        <ele>1064</ele>
        <time>2007-06-12T23:13:49Z</time>
      </trkpt>
      <trkpt lat="43.65554" lon="2.92132">
        <ele>1075</ele>
        <time>2007-06-12T23:13:49Z</time>
      </trkpt>
      <trkpt lat="43.65684" lon="2.92163">
        <ele>1067</ele>
        <time>2007-06-12T23:13:49Z</time>
      </trkpt>
      <trkpt lat="43.65833" lon="2.92239">
        <ele>1051</ele>
        <time>2007-06-12T23:13:49Z</time>
      </trkpt>
      <trkpt lat="43.65991" lon="2.9216">
        <ele>1049</ele>
        <time>2007-06-12T23:13:49Z</time>
      </trkpt>
      <trkpt lat="43.65987" lon="2.91868">
        <ele>1042</ele>
        <time>2007-06-12T23:13:49Z</time>
      </trkpt>
      <trkpt lat="43.66064" lon="2.91999">
        <ele>1025</ele>
        <time>2007-06-12T23:13:49Z</time>
      </trkpt>
      <trkpt lat="43.66127" lon="2.91991">
        <ele>1004</ele>
        <time>2007-06-12T23:13:49Z</time>
      </trkpt>
      <trkpt lat="43.66156" lon="2.92067">
        <ele>1015</ele>
        <time>2007-06-12T23:13:49Z</time>
      </trkpt>
      <trkpt lat="43.66285" lon="2.92165">
        <ele>1001</ele>
        <time>2007-06-12T23:13:49Z</time>
      </trkpt>
      <trkpt lat="43.66366" lon="2.92313">
        <ele>994</ele>
        <time>2007-06-12T23:13:49Z</time>
      </trkpt>
      <trkpt lat="43.66376" lon="2.92401">
        <ele>990</ele>
        <time>2007-06-12T23:13:49Z</time>
      </trkpt>
      <trkpt lat="43.66225" lon="2.92472">
        <ele>984</ele>
        <time>2007-06-12T23:13:49Z</time>
      </trkpt>
      <trkpt lat="43.66369" lon="2.92525">
        <ele>963</ele>
        <time>2007-06-12T23:13:49Z</time>
      </trkpt>
      <trkpt lat="43.66534" lon="2.92545">
        <ele>942</ele>
        <time>2007-06-12T23:13:49Z</time>
      </trkpt>
      <trkpt lat="43.66522" lon="2.92289">
        <ele>964</ele>
        <time>2007-06-12T23:13:49Z</time>
      </trkpt>
      <trkpt lat="43.66549" lon="2.92365">
        <ele>953</ele>
        <time>2007-06-12T23:13:49Z</time>
      </trkpt>
      <trkpt lat="43.66575" lon="2.92278">
        <ele>964</ele>
        <time>2007-06-12T23:13:49Z</time>
      </trkpt>
      <trkpt lat="43.66714" lon="2.92357">
        <ele>944</ele>
        <time>2007-06-12T23:13:49Z</time>
      </trkpt>
      <trkpt lat="43.66768" lon="2.92353">
        <ele>938</ele>
        <time>2007-06-12T23:13:49Z</time>
      </trkpt>
      <trkpt lat="43.669" lon="2.92186">
        <ele>942</ele>
        <time>2007-06-12T23:13:49Z</time>
      </trkpt>
      <trkpt lat="43.66973" lon="2.92051">
        <ele>933</ele>
        <time>2007-06-12T23:13:49Z</time>
      </trkpt>
      <trkpt lat="43.66998" lon="2.91862">
        <ele>912</ele>
        <time>2007-06-12T23:13:49Z</time>
      </trkpt>
      <trkpt lat="43.67107" lon="2.91898">
        <ele>892</ele>
        <time>2007-06-12T23:13:49Z</time>
      </trkpt>
      <trkpt lat="43.67202" lon="2.92006">
        <ele>892</ele>
        <time>2007-06-12T23:13:49Z</time>
      </trkpt>
      <trkpt lat="43.67173" lon="2.92162">
        <ele>887</ele>
        <time>2007-06-12T23:13:49Z</time>
      </trkpt>
      <trkpt lat="43.66973" lon="2.92391">
        <ele>890</ele>
        <time>2007-06-12T23:13:49Z</time>
      </trkpt>
      <trkpt lat="43.66863" lon="2.92443">
        <ele>894</ele>
        <time>2007-06-12T23:13:49Z</time>
      </trkpt>
      <trkpt lat="43.66867" lon="2.92496">
        <ele>888</ele>
        <time>2007-06-12T23:13:49Z</time>
      </trkpt>
      <trkpt lat="43.66995" lon="2.92538">
        <ele>881</ele>
        <time>2007-06-12T23:13:49Z</time>
      </trkpt>
      <trkpt lat="43.6701" lon="2.92586">
        <ele>888</ele>
        <time>2007-06-12T23:13:49Z</time>
      </trkpt>
      <trkpt lat="43.67078" lon="2.92636">
        <ele>887</ele>
        <time>2007-06-12T23:13:49Z</time>
      </trkpt>
      <trkpt lat="43.67108" lon="2.92763">
        <ele>884</ele>
        <time>2007-06-12T23:13:49Z</time>
      </trkpt>
      <trkpt lat="43.67155" lon="2.92798">
        <ele>882</ele>
        <time>2007-06-12T23:13:49Z</time>
      </trkpt>
      <trkpt lat="43.67167" lon="2.92853">
        <ele>880</ele>
        <time>2007-06-12T23:13:49Z</time>
      </trkpt>
      <trkpt lat="43.67288" lon="2.93033">
        <ele>889</ele>
        <time>2007-06-12T23:13:49Z</time>
      </trkpt>
      <trkpt lat="43.67439" lon="2.93076">
        <ele>881</ele>
        <time>2007-06-12T23:13:49Z</time>
      </trkpt>
      <trkpt lat="43.67535" lon="2.93137">
        <ele>874</ele>
        <time>2007-06-12T23:13:49Z</time>
      </trkpt>
      <trkpt lat="43.676" lon="2.93139">
        <ele>867</ele>
        <time>2007-06-12T23:13:49Z</time>
      </trkpt>
      <trkpt lat="43.67661" lon="2.93094">
        <ele>864</ele>
        <time>2007-06-12T23:13:49Z</time>
      </trkpt>
      <trkpt lat="43.67699" lon="2.93005">
        <ele>862</ele>
        <time>2007-06-12T23:13:49Z</time>
      </trkpt>
      <trkpt lat="43.67751" lon="2.93036">
        <ele>856</ele>
        <time>2007-06-12T23:13:49Z</time>
      </trkpt>
      <trkpt lat="43.67893" lon="2.92953">
        <ele>858</ele>
        <time>2007-06-12T23:13:49Z</time>
      </trkpt>
      <trkpt lat="43.6818" lon="2.92991">
        <ele>839</ele>
        <time>2007-06-12T23:13:49Z</time>
      </trkpt>
      <trkpt lat="43.68297" lon="2.9279">
        <ele>848</ele>
        <time>2007-06-12T23:13:49Z</time>
      </trkpt>
      <trkpt lat="43.68552" lon="2.92456">
        <ele>850</ele>
        <time>2007-06-12T23:13:49Z</time>
      </trkpt>
      <trkpt lat="43.68637" lon="2.92385">
        <ele>847</ele>
        <time>2007-06-12T23:13:49Z</time>
      </trkpt>
      <trkpt lat="43.68677" lon="2.92382">
        <ele>847</ele>
        <time>2007-06-12T23:13:49Z</time>
      </trkpt>
      <trkpt lat="43.68686" lon="2.92357">
        <ele>846</ele>
        <time>2007-06-12T23:13:49Z</time>
      </trkpt>
      <trkpt lat="43.6866" lon="2.92398">
        <ele>847</ele>
        <time>2007-06-12T23:13:49Z</time>
      </trkpt>
      <trkpt lat="43.68731" lon="2.92665">
        <ele>854</ele>
        <time>2007-06-12T23:13:49Z</time>
      </trkpt>
      <trkpt lat="43.68748" lon="2.92814">
        <ele>854</ele>
        <time>2007-06-12T23:13:49Z</time>
      </trkpt>
      <trkpt lat="43.68856" lon="2.92931">
        <ele>859</ele>
        <time>2007-06-12T23:13:49Z</time>
      </trkpt>
      <trkpt lat="43.68911" lon="2.92855">
        <ele>838</ele>
        <time>2007-06-12T23:13:49Z</time>
      </trkpt>
      <trkpt lat="43.69031" lon="2.92966">
        <ele>831</ele>
        <time>2007-06-12T23:13:49Z</time>
      </trkpt>
      <trkpt lat="43.69078" lon="2.9318">
        <ele>855</ele>
        <time>2007-06-12T23:13:49Z</time>
      </trkpt>
      <trkpt lat="43.6915" lon="2.93333">
        <ele>841</ele>
        <time>2007-06-12T23:13:49Z</time>
      </trkpt>
      <trkpt lat="43.69286" lon="2.93522">
        <ele>845</ele>
        <time>2007-06-12T23:13:49Z</time>
      </trkpt>
      <trkpt lat="43.69276" lon="2.93637">
        <ele>856</ele>
        <time>2007-06-12T23:13:49Z</time>
      </trkpt>
      <trkpt lat="43.69375" lon="2.93645">
        <ele>840</ele>
        <time>2007-06-12T23:13:49Z</time>
      </trkpt>
      <trkpt lat="43.69405" lon="2.93678">
        <ele>848</ele>
        <time>2007-06-12T23:13:49Z</time>
      </trkpt>
      <trkpt lat="43.69408" lon="2.93779">
        <ele>863</ele>
        <time>2007-06-12T23:13:49Z</time>
      </trkpt>
      <trkpt lat="43.69517" lon="2.94079">
        <ele>867</ele>
        <time>2007-06-12T23:13:49Z</time>
      </trkpt>
      <trkpt lat="43.69573" lon="2.94366">
        <ele>874</ele>
        <time>2007-06-12T23:13:49Z</time>
      </trkpt>
      <trkpt lat="43.6956" lon="2.94385">
        <ele>876</ele>
        <time>2007-06-12T23:13:49Z</time>
      </trkpt>
      <trkpt lat="43.69579" lon="2.9447">
        <ele>880</ele>
        <time>2007-06-12T23:13:49Z</time>
      </trkpt>
      <trkpt lat="43.69568" lon="2.94629">
        <ele>888</ele>
        <time>2007-06-12T23:13:49Z</time>
      </trkpt>
      <trkpt lat="43.69676" lon="2.95044">
        <ele>885</ele>
        <time>2007-06-12T23:13:49Z</time>
      </trkpt>
      <trkpt lat="43.69689" lon="2.95187">
        <ele>898</ele>
        <time>2007-06-12T23:13:49Z</time>
      </trkpt>
      <trkpt lat="43.69867" lon="2.9547">
        <ele>895</ele>
        <time>2007-06-12T23:13:49Z</time>
      </trkpt>
      <trkpt lat="43.69944" lon="2.95719">
        <ele>882</ele>
        <time>2007-06-12T23:13:49Z</time>
      </trkpt>
      <trkpt lat="43.69946" lon="2.95791">
        <ele>882</ele>
        <time>2007-06-12T23:13:49Z</time>
      </trkpt>
      <trkpt lat="43.70158" lon="2.95842">
        <ele>881</ele>
        <time>2007-06-12T23:13:49Z</time>
      </trkpt>
      <trkpt lat="43.70268" lon="2.95993">
        <ele>886</ele>
        <time>2007-06-12T23:13:49Z</time>
      </trkpt>
      <trkpt lat="43.70356" lon="2.9605">
        <ele>886</ele>
        <time>2007-06-12T23:13:49Z</time>
      </trkpt>
      <trkpt lat="43.70298" lon="2.96103">
        <ele>892</ele>
        <time>2007-06-12T23:13:49Z</time>
      </trkpt>
      <trkpt lat="43.70154" lon="2.95995">
        <ele>891</ele>
        <time>2007-06-12T23:13:49Z</time>
      </trkpt>
      <trkpt lat="43.70073" lon="2.95898">
        <ele>892</ele>
        <time>2007-06-12T23:13:49Z</time>
      </trkpt>
      <trkpt lat="43.70113" lon="2.96036">
        <ele>904</ele>
        <time>2007-06-12T23:13:49Z</time>
      </trkpt>
      <trkpt lat="43.70238" lon="2.96214">
        <ele>918</ele>
        <time>2007-06-12T23:13:49Z</time>
      </trkpt>
      <trkpt lat="43.70334" lon="2.96595">
        <ele>944</ele>
        <time>2007-06-12T23:13:49Z</time>
      </trkpt>
      <trkpt lat="43.70419" lon="2.96633">
        <ele>933</ele>
        <time>2007-06-12T23:13:49Z</time>
      </trkpt>
      <trkpt lat="43.70521" lon="2.96812">
        <ele>941</ele>
        <time>2007-06-12T23:13:49Z</time>
      </trkpt>
      <trkpt lat="43.70531" lon="2.96911">
        <ele>946</ele>
        <time>2007-06-12T23:13:49Z</time>
      </trkpt>
      <trkpt lat="43.7049" lon="2.96983">
        <ele>965</ele>
        <time>2007-06-12T23:13:49Z</time>
      </trkpt>
      <trkpt lat="43.70516" lon="2.97064">
        <ele>949</ele>
        <time>2007-06-12T23:13:49Z</time>
      </trkpt>
      <trkpt lat="43.70494" lon="2.97125">
        <ele>970</ele>
        <time>2007-06-12T23:13:49Z</time>
      </trkpt>
      <trkpt lat="43.70499" lon="2.97252">
        <ele>963</ele>
        <time>2007-06-12T23:13:49Z</time>
      </trkpt>
      <trkpt lat="43.70555" lon="2.97332">
        <ele>954</ele>
        <time>2007-06-12T23:13:49Z</time>
      </trkpt>
      <trkpt lat="43.70637" lon="2.97386">
        <ele>952</ele>
        <time>2007-06-12T23:13:49Z</time>
      </trkpt>
      <trkpt lat="43.70626" lon="2.97449">
        <ele>956</ele>
        <time>2007-06-12T23:13:49Z</time>
      </trkpt>
      <trkpt lat="43.70544" lon="2.97553">
        <ele>965</ele>
        <time>2007-06-12T23:13:49Z</time>
      </trkpt>
      <trkpt lat="43.70541" lon="2.97595">
        <ele>961</ele>
        <time>2007-06-12T23:13:49Z</time>
      </trkpt>
      <trkpt lat="43.70652" lon="2.97809">
        <ele>966</ele>
        <time>2007-06-12T23:13:49Z</time>
      </trkpt>
      <trkpt lat="43.70675" lon="2.97972">
        <ele>979</ele>
        <time>2007-06-12T23:13:49Z</time>
      </trkpt>
      <trkpt lat="43.70669" lon="2.98078">
        <ele>986</ele>
        <time>2007-06-12T23:13:49Z</time>
      </trkpt>
      <trkpt lat="43.7071" lon="2.98207">
        <ele>986</ele>
        <time>2007-06-12T23:13:49Z</time>
      </trkpt>
      <trkpt lat="43.70748" lon="2.98249">
        <ele>995</ele>
        <time>2007-06-12T23:13:49Z</time>
      </trkpt>
      <trkpt lat="43.70767" lon="2.98473">
        <ele>1015</ele>
        <time>2007-06-12T23:13:49Z</time>
      </trkpt>
      <trkpt lat="43.70701" lon="2.98535">
        <ele>1009</ele>
        <time>2007-06-12T23:13:49Z</time>
      </trkpt>
      <trkpt lat="43.70562" lon="2.98522">
        <ele>994</ele>
        <time>2007-06-12T23:13:49Z</time>
      </trkpt>
      <trkpt lat="43.70468" lon="2.98556">
        <ele>983</ele>
        <time>2007-06-12T23:13:49Z</time>
      </trkpt>
      <trkpt lat="43.70398" lon="2.98637">
        <ele>971</ele>
        <time>2007-06-12T23:13:49Z</time>
      </trkpt>
      <trkpt lat="43.70378" lon="2.98716">
        <ele>970</ele>
        <time>2007-06-12T23:13:49Z</time>
      </trkpt>
      <trkpt lat="43.70397" lon="2.98773">
        <ele>964</ele>
        <time>2007-06-12T23:13:49Z</time>
      </trkpt>
      <trkpt lat="43.70458" lon="2.98803">
        <ele>987</ele>
        <time>2007-06-12T23:13:49Z</time>
      </trkpt>
      <trkpt lat="43.70489" lon="2.98963">
        <ele>965</ele>
        <time>2007-06-12T23:13:49Z</time>
      </trkpt>
      <trkpt lat="43.70528" lon="2.99027">
        <ele>980</ele>
        <time>2007-06-12T23:13:49Z</time>
      </trkpt>
      <trkpt lat="43.7052" lon="2.99147">
        <ele>962</ele>
        <time>2007-06-12T23:13:49Z</time>
      </trkpt>
      <trkpt lat="43.70551" lon="2.99245">
        <ele>956</ele>
        <time>2007-06-12T23:13:49Z</time>
      </trkpt>
      <trkpt lat="43.70554" lon="2.99342">
        <ele>935</ele>
        <time>2007-06-12T23:13:49Z</time>
      </trkpt>
      <trkpt lat="43.70645" lon="2.99434">
        <ele>949</ele>
        <time>2007-06-12T23:13:49Z</time>
      </trkpt>
      <trkpt lat="43.70621" lon="2.99532">
        <ele>941</ele>
        <time>2007-06-12T23:13:49Z</time>
      </trkpt>
      <trkpt lat="43.70533" lon="2.99643">
        <ele>933</ele>
        <time>2007-06-12T23:13:49Z</time>
      </trkpt>
      <trkpt lat="43.70507" lon="2.99711">
        <ele>931</ele>
        <time>2007-06-12T23:13:49Z</time>
      </trkpt>
      <trkpt lat="43.70647" lon="2.99715">
        <ele>927</ele>
        <time>2007-06-12T23:13:49Z</time>
      </trkpt>
      <trkpt lat="43.70596" lon="2.99776">
        <ele>922</ele>
        <time>2007-06-12T23:13:49Z</time>
      </trkpt>
      <trkpt lat="43.7073" lon="2.99843">
        <ele>902</ele>
        <time>2007-06-12T23:13:49Z</time>
      </trkpt>
      <trkpt lat="43.70748" lon="2.999">
        <ele>899</ele>
        <time>2007-06-12T23:13:49Z</time>
      </trkpt>
      <trkpt lat="43.70723" lon="3.00061">
        <ele>902</ele>
        <time>2007-06-12T23:13:49Z</time>
      </trkpt>
      <trkpt lat="43.70678" lon="3.00185">
        <ele>909</ele>
        <time>2007-06-12T23:13:49Z</time>
      </trkpt>
      <trkpt lat="43.70616" lon="3.00233">
        <ele>920</ele>
        <time>2007-06-12T23:13:49Z</time>
      </trkpt>
      <trkpt lat="43.7059" lon="3.00288">
        <ele>921</ele>
        <time>2007-06-12T23:13:49Z</time>
      </trkpt>
      <trkpt lat="43.70566" lon="3.00441">
        <ele>923</ele>
        <time>2007-06-12T23:13:49Z</time>
      </trkpt>
      <trkpt lat="43.70625" lon="3.00705">
        <ele>936</ele>
        <time>2007-06-12T23:13:49Z</time>
      </trkpt>
      <trkpt lat="43.7058" lon="3.00923">
        <ele>940</ele>
        <time>2007-06-12T23:13:49Z</time>
      </trkpt>
      <trkpt lat="43.70571" lon="3.01115">
        <ele>954</ele>
        <time>2007-06-12T23:13:49Z</time>
      </trkpt>
      <trkpt lat="43.70634" lon="3.01248">
        <ele>975</ele>
        <time>2007-06-12T23:13:49Z</time>
      </trkpt>
      <trkpt lat="43.7061" lon="3.01256">
        <ele>981</ele>
        <time>2007-06-12T23:13:49Z</time>
      </trkpt>
      <trkpt lat="43.70509" lon="3.01162">
        <ele>964</ele>
        <time>2007-06-12T23:13:49Z</time>
      </trkpt>
      <trkpt lat="43.70366" lon="3.01231">
        <ele>982</ele>
        <time>2007-06-12T23:13:49Z</time>
      </trkpt>
      <trkpt lat="43.7034" lon="3.01275">
        <ele>981</ele>
        <time>2007-06-12T23:13:49Z</time>
      </trkpt>
      <trkpt lat="43.69983" lon="3.01338">
        <ele>924</ele>
        <time>2007-06-12T23:13:49Z</time>
      </trkpt>
      <trkpt lat="43.69912" lon="3.01303">
        <ele>922</ele>
        <time>2007-06-12T23:13:49Z</time>
      </trkpt>
      <trkpt lat="43.69894" lon="3.01328">
        <ele>920</ele>
        <time>2007-06-12T23:13:49Z</time>
      </trkpt>
      <trkpt lat="43.69855" lon="3.01265">
        <ele>924</ele>
        <time>2007-06-12T23:13:49Z</time>
      </trkpt>
      <trkpt lat="43.69735" lon="3.01243">
        <ele>911</ele>
        <time>2007-06-12T23:13:49Z</time>
      </trkpt>
      <trkpt lat="43.69753" lon="3.01269">
        <ele>914</ele>
        <time>2007-06-12T23:13:49Z</time>
      </trkpt>
      <trkpt lat="43.69752" lon="3.01348">
        <ele>908</ele>
        <time>2007-06-12T23:13:49Z</time>
      </trkpt>
      <trkpt lat="43.69664" lon="3.01397">
        <ele>897</ele>
        <time>2007-06-12T23:13:49Z</time>
      </trkpt>
      <trkpt lat="43.69603" lon="3.01393">
        <ele>893</ele>
        <time>2007-06-12T23:13:49Z</time>
      </trkpt>
      <trkpt lat="43.69595" lon="3.01422">
        <ele>891</ele>
        <time>2007-06-12T23:13:49Z</time>
      </trkpt>
      <trkpt lat="43.69665" lon="3.01655">
        <ele>874</ele>
        <time>2007-06-12T23:13:49Z</time>
      </trkpt>
      <trkpt lat="43.6961" lon="3.01879">
        <ele>862</ele>
        <time>2007-06-12T23:13:49Z</time>
      </trkpt>
      <trkpt lat="43.69583" lon="3.01893">
        <ele>854</ele>
        <time>2007-06-12T23:13:49Z</time>
      </trkpt>
      <trkpt lat="43.69467" lon="3.02101">
        <ele>832</ele>
        <time>2007-06-12T23:13:49Z</time>
      </trkpt>
      <trkpt lat="43.69447" lon="3.02245">
        <ele>814</ele>
        <time>2007-06-12T23:13:49Z</time>
      </trkpt>
      <trkpt lat="43.69457" lon="3.02366">
        <ele>806</ele>
        <time>2007-06-12T23:13:49Z</time>
      </trkpt>
      <trkpt lat="43.69364" lon="3.02558">
        <ele>797</ele>
        <time>2007-06-12T23:13:49Z</time>
      </trkpt>
      <trkpt lat="43.69335" lon="3.02555">
        <ele>795</ele>
        <time>2007-06-12T23:13:49Z</time>
      </trkpt>
      <trkpt lat="43.69289" lon="3.02712">
        <ele>792</ele>
        <time>2007-06-12T23:13:49Z</time>
      </trkpt>
      <trkpt lat="43.69352" lon="3.02901">
        <ele>806</ele>
        <time>2007-06-12T23:13:49Z</time>
      </trkpt>
      <trkpt lat="43.69303" lon="3.02998">
        <ele>811</ele>
        <time>2007-06-12T23:13:49Z</time>
      </trkpt>
      <trkpt lat="43.69266" lon="3.0302">
        <ele>806</ele>
        <time>2007-06-12T23:13:49Z</time>
      </trkpt>
      <trkpt lat="43.69222" lon="3.03246">
        <ele>798</ele>
        <time>2007-06-12T23:13:49Z</time>
      </trkpt>
      <trkpt lat="43.69232" lon="3.03344">
        <ele>798</ele>
        <time>2007-06-12T23:13:49Z</time>
      </trkpt>
      <trkpt lat="43.69281" lon="3.03447">
        <ele>796</ele>
        <time>2007-06-12T23:13:49Z</time>
      </trkpt>
      <trkpt lat="43.69371" lon="3.03808">
        <ele>766</ele>
        <time>2007-06-12T23:13:49Z</time>
      </trkpt>
      <trkpt lat="43.69377" lon="3.0391">
        <ele>766</ele>
        <time>2007-06-12T23:13:49Z</time>
      </trkpt>
      <trkpt lat="43.69507" lon="3.04173">
        <ele>800</ele>
        <time>2007-06-12T23:13:49Z</time>
      </trkpt>
      <trkpt lat="43.6951" lon="3.04275">
        <ele>816</ele>
        <time>2007-06-12T23:13:49Z</time>
      </trkpt>
      <trkpt lat="43.6953" lon="3.0432">
        <ele>819</ele>
        <time>2007-06-12T23:13:49Z</time>
      </trkpt>
      <trkpt lat="43.69618" lon="3.04319">
        <ele>817</ele>
        <time>2007-06-12T23:13:49Z</time>
      </trkpt>
      <trkpt lat="43.69522" lon="3.04365">
        <ele>828</ele>
        <time>2007-06-12T23:13:49Z</time>
      </trkpt>
      <trkpt lat="43.69509" lon="3.04396">
        <ele>829</ele>
        <time>2007-06-12T23:13:49Z</time>
      </trkpt>
      <trkpt lat="43.69613" lon="3.04368">
        <ele>831</ele>
        <time>2007-06-12T23:13:49Z</time>
      </trkpt>
      <trkpt lat="43.69669" lon="3.04398">
        <ele>831</ele>
        <time>2007-06-12T23:13:49Z</time>
      </trkpt>
      <trkpt lat="43.69707" lon="3.04465">
        <ele>835</ele>
        <time>2007-06-12T23:13:49Z</time>
      </trkpt>
      <trkpt lat="43.69724" lon="3.0456">
        <ele>841</ele>
        <time>2007-06-12T23:13:49Z</time>
      </trkpt>
      <trkpt lat="43.69711" lon="3.04716">
        <ele>845</ele>
        <time>2007-06-12T23:13:49Z</time>
      </trkpt>
      <trkpt lat="43.69633" lon="3.04914">
        <ele>845</ele>
        <time>2007-06-12T23:13:49Z</time>
      </trkpt>
      <trkpt lat="43.69643" lon="3.05017">
        <ele>854</ele>
        <time>2007-06-12T23:13:49Z</time>
      </trkpt>
      <trkpt lat="43.69571" lon="3.05154">
        <ele>854</ele>
        <time>2007-06-12T23:13:49Z</time>
      </trkpt>
      <trkpt lat="43.69521" lon="3.0541">
        <ele>881</ele>
        <time>2007-06-12T23:13:49Z</time>
      </trkpt>
      <trkpt lat="43.69529" lon="3.05647">
        <ele>889</ele>
        <time>2007-06-12T23:13:49Z</time>
      </trkpt>
      <trkpt lat="43.69484" lon="3.05772">
        <ele>904</ele>
        <time>2007-06-12T23:13:49Z</time>
      </trkpt>
      <trkpt lat="43.69374" lon="3.05922">
        <ele>912</ele>
        <time>2007-06-12T23:13:49Z</time>
      </trkpt>
      <trkpt lat="43.6937" lon="3.05976">
        <ele>915</ele>
        <time>2007-06-12T23:13:49Z</time>
      </trkpt>
      <trkpt lat="43.69478" lon="3.06044">
        <ele>908</ele>
        <time>2007-06-12T23:13:49Z</time>
      </trkpt>
      <trkpt lat="43.69628" lon="3.06093">
        <ele>911</ele>
        <time>2007-06-12T23:13:49Z</time>
      </trkpt>
      <trkpt lat="43.69783" lon="3.05909">
        <ele>899</ele>
        <time>2007-06-12T23:13:49Z</time>
      </trkpt>
      <trkpt lat="43.69812" lon="3.05903">
        <ele>903</ele>
        <time>2007-06-12T23:13:49Z</time>
      </trkpt>
      <trkpt lat="43.70049" lon="3.06044">
        <ele>925</ele>
        <time>2007-06-12T23:13:49Z</time>
      </trkpt>
      <trkpt lat="43.70125" lon="3.06043">
        <ele>936</ele>
        <time>2007-06-12T23:13:49Z</time>
      </trkpt>
      <trkpt lat="43.70206" lon="3.05791">
        <ele>899</ele>
        <time>2007-06-12T23:13:49Z</time>
      </trkpt>
      <trkpt lat="43.70252" lon="3.05754">
        <ele>900</ele>
        <time>2007-06-12T23:13:49Z</time>
      </trkpt>
      <trkpt lat="43.70399" lon="3.0586">
        <ele>923</ele>
        <time>2007-06-12T23:13:49Z</time>
      </trkpt>
      <trkpt lat="43.70465" lon="3.05857">
        <ele>919</ele>
        <time>2007-06-12T23:13:49Z</time>
      </trkpt>
      <trkpt lat="43.70493" lon="3.05889">
        <ele>921</ele>
        <time>2007-06-12T23:13:49Z</time>
      </trkpt>
      <trkpt lat="43.7051" lon="3.05971">
        <ele>915</ele>
        <time>2007-06-12T23:13:49Z</time>
      </trkpt>
      <trkpt lat="43.70504" lon="3.06162">
        <ele>925</ele>
        <time>2007-06-12T23:13:49Z</time>
      </trkpt>
      <trkpt lat="43.70416" lon="3.06294">
        <ele>959</ele>
        <time>2007-06-12T23:13:49Z</time>
      </trkpt>
      <trkpt lat="43.70422" lon="3.06491">
        <ele>920</ele>
        <time>2007-06-12T23:13:49Z</time>
      </trkpt>
      <trkpt lat="43.7047" lon="3.06565">
        <ele>913</ele>
        <time>2007-06-12T23:13:49Z</time>
      </trkpt>
      <trkpt lat="43.70553" lon="3.0662">
        <ele>907</ele>
        <time>2007-06-12T23:13:49Z</time>
      </trkpt>
      <trkpt lat="43.706" lon="3.06731">
        <ele>907</ele>
        <time>2007-06-12T23:13:49Z</time>
      </trkpt>
      <trkpt lat="43.70683" lon="3.06803">
        <ele>927</ele>
        <time>2007-06-12T23:13:49Z</time>
      </trkpt>
      <trkpt lat="43.70791" lon="3.06818">
        <ele>934</ele>
        <time>2007-06-12T23:13:49Z</time>
      </trkpt>
      <trkpt lat="43.70884" lon="3.06731">
        <ele>936</ele>
        <time>2007-06-12T23:13:49Z</time>
      </trkpt>
      <trkpt lat="43.7097" lon="3.06522">
        <ele>931</ele>
        <time>2007-06-12T23:13:49Z</time>
      </trkpt>
      <trkpt lat="43.70998" lon="3.06502">
        <ele>935</ele>
        <time>2007-06-12T23:13:49Z</time>
      </trkpt>
      <trkpt lat="43.71085" lon="3.06541">
        <ele>936</ele>
        <time>2007-06-12T23:13:49Z</time>
      </trkpt>
      <trkpt lat="43.71071" lon="3.06653">
        <ele>934</ele>
        <time>2007-06-12T23:13:49Z</time>
      </trkpt>
      <trkpt lat="43.71009" lon="3.06816">
        <ele>915</ele>
        <time>2007-06-12T23:13:49Z</time>
      </trkpt>
      <trkpt lat="43.70869" lon="3.07076">
        <ele>899</ele>
        <time>2007-06-12T23:13:49Z</time>
      </trkpt>
      <trkpt lat="43.70721" lon="3.07167">
        <ele>891</ele>
        <time>2007-06-12T23:13:49Z</time>
      </trkpt>
      <trkpt lat="43.70707" lon="3.07214">
        <ele>889</ele>
        <time>2007-06-12T23:13:49Z</time>
      </trkpt>
      <trkpt lat="43.70769" lon="3.07336">
        <ele>839</ele>
        <time>2007-06-12T23:13:49Z</time>
      </trkpt>
      <trkpt lat="43.7081" lon="3.07644">
        <ele>830</ele>
        <time>2007-06-12T23:13:49Z</time>
      </trkpt>
      <trkpt lat="43.70742" lon="3.07689">
        <ele>841</ele>
        <time>2007-06-12T23:13:49Z</time>
      </trkpt>
      <trkpt lat="43.70755" lon="3.07724">
        <ele>834</ele>
        <time>2007-06-12T23:13:49Z</time>
      </trkpt>
      <trkpt lat="43.70897" lon="3.07769">
        <ele>838</ele>
        <time>2007-06-12T23:13:49Z</time>
      </trkpt>
      <trkpt lat="43.70951" lon="3.0775">
        <ele>840</ele>
        <time>2007-06-12T23:13:49Z</time>
      </trkpt>
      <trkpt lat="43.71005" lon="3.07779">
        <ele>835</ele>
        <time>2007-06-12T23:13:49Z</time>
      </trkpt>
      <trkpt lat="43.7101" lon="3.07856">
        <ele>851</ele>
        <time>2007-06-12T23:13:49Z</time>
      </trkpt>
      <trkpt lat="43.71083" lon="3.07923">
        <ele>857</ele>
        <time>2007-06-12T23:13:49Z</time>
      </trkpt>
      <trkpt lat="43.7115" lon="3.07946">
        <ele>857</ele>
        <time>2007-06-12T23:13:49Z</time>
      </trkpt>
      <trkpt lat="43.71074" lon="3.08019">
        <ele>865</ele>
        <time>2007-06-12T23:13:49Z</time>
      </trkpt>
      <trkpt lat="43.71047" lon="3.08393">
        <ele>812</ele>
        <time>2007-06-12T23:13:49Z</time>
      </trkpt>
      <trkpt lat="43.71083" lon="3.08332">
        <ele>821</ele>
        <time>2007-06-12T23:13:49Z</time>
      </trkpt>
      <trkpt lat="43.71106" lon="3.08204">
        <ele>821</ele>
        <time>2007-06-12T23:13:49Z</time>
      </trkpt>
      <trkpt lat="43.71172" lon="3.08073">
        <ele>825</ele>
        <time>2007-06-12T23:13:49Z</time>
      </trkpt>
      <trkpt lat="43.71233" lon="3.08033">
        <ele>824</ele>
        <time>2007-06-12T23:13:49Z</time>
      </trkpt>
      <trkpt lat="43.71157" lon="3.082">
        <ele>809</ele>
        <time>2007-06-12T23:13:49Z</time>
      </trkpt>
      <trkpt lat="43.71206" lon="3.08705">
        <ele>737</ele>
        <time>2007-06-12T23:13:49Z</time>
      </trkpt>
      <trkpt lat="43.71249" lon="3.08815">
        <ele>728</ele>
        <time>2007-06-12T23:13:49Z</time>
      </trkpt>
      <trkpt lat="43.71266" lon="3.08948">
        <ele>702</ele>
        <time>2007-06-12T23:13:49Z</time>
      </trkpt>
      <trkpt lat="43.71189" lon="3.09108">
        <ele>699</ele>
        <time>2007-06-12T23:13:49Z</time>
      </trkpt>
      <trkpt lat="43.70948" lon="3.09326">
        <ele>678</ele>
        <time>2007-06-12T23:13:49Z</time>
      </trkpt>
      <trkpt lat="43.70873" lon="3.09333">
        <ele>659</ele>
        <time>2007-06-12T23:13:49Z</time>
      </trkpt>
      <trkpt lat="43.70803" lon="3.09398">
        <ele>657</ele>
        <time>2007-06-12T23:13:49Z</time>
      </trkpt>
      <trkpt lat="43.70921" lon="3.09482">
        <ele>680</ele>
        <time>2007-06-12T23:13:49Z</time>
      </trkpt>
      <trkpt lat="43.7101" lon="3.09627">
        <ele>688</ele>
        <time>2007-06-12T23:13:49Z</time>
      </trkpt>
      <trkpt lat="43.70911" lon="3.09861">
        <ele>644</ele>
        <time>2007-06-12T23:13:49Z</time>
      </trkpt>
      <trkpt lat="43.70827" lon="3.09974">
        <ele>630</ele>
        <time>2007-06-12T23:13:49Z</time>
      </trkpt>
      <trkpt lat="43.70832" lon="3.10028">
        <ele>628</ele>
        <time>2007-06-12T23:13:49Z</time>
      </trkpt>
      <trkpt lat="43.7092" lon="3.1023">
        <ele>664</ele>
        <time>2007-06-12T23:13:49Z</time>
      </trkpt>
      <trkpt lat="43.70923" lon="3.103">
        <ele>660</ele>
        <time>2007-06-12T23:13:49Z</time>
      </trkpt>
      <trkpt lat="43.70883" lon="3.10393">
        <ele>644</ele>
        <time>2007-06-12T23:13:49Z</time>
      </trkpt>
      <trkpt lat="43.70877" lon="3.1047">
        <ele>655</ele>
        <time>2007-06-12T23:13:49Z</time>
      </trkpt>
      <trkpt lat="43.70808" lon="3.10517">
        <ele>657</ele>
        <time>2007-06-12T23:13:49Z</time>
      </trkpt>
      <trkpt lat="43.70757" lon="3.106">
        <ele>661</ele>
        <time>2007-06-12T23:13:49Z</time>
      </trkpt>
      <trkpt lat="43.70756" lon="3.10747">
        <ele>665</ele>
        <time>2007-06-12T23:13:49Z</time>
      </trkpt>
      <trkpt lat="43.7081" lon="3.10809">
        <ele>652</ele>
        <time>2007-06-12T23:13:49Z</time>
      </trkpt>
      <trkpt lat="43.70822" lon="3.10894">
        <ele>652</ele>
        <time>2007-06-12T23:13:49Z</time>
      </trkpt>
      <trkpt lat="43.70685" lon="3.10958">
        <ele>653</ele>
        <time>2007-06-12T23:13:49Z</time>
      </trkpt>
      <trkpt lat="43.7063" lon="3.11043">
        <ele>651</ele>
        <time>2007-06-12T23:13:49Z</time>
      </trkpt>
      <trkpt lat="43.70577" lon="3.11262">
        <ele>631</ele>
        <time>2007-06-12T23:13:49Z</time>
      </trkpt>
      <trkpt lat="43.70488" lon="3.11402">
        <ele>636</ele>
        <time>2007-06-12T23:13:49Z</time>
      </trkpt>
      <trkpt lat="43.70673" lon="3.11531">
        <ele>601</ele>
        <time>2007-06-12T23:13:49Z</time>
      </trkpt>
      <trkpt lat="43.70655" lon="3.11642">
        <ele>628</ele>
        <time>2007-06-12T23:13:49Z</time>
      </trkpt>
      <trkpt lat="43.70684" lon="3.11696">
        <ele>621</ele>
        <time>2007-06-12T23:13:49Z</time>
      </trkpt>
      <trkpt lat="43.70788" lon="3.11776">
        <ele>610</ele>
        <time>2007-06-12T23:13:49Z</time>
      </trkpt>
      <trkpt lat="43.70778" lon="3.11866">
        <ele>605</ele>
        <time>2007-06-12T23:13:49Z</time>
      </trkpt>
      <trkpt lat="43.70622" lon="3.11817">
        <ele>634</ele>
        <time>2007-06-12T23:13:49Z</time>
      </trkpt>
      <trkpt lat="43.70583" lon="3.11898">
        <ele>619</ele>
        <time>2007-06-12T23:13:49Z</time>
      </trkpt>
      <trkpt lat="43.70404" lon="3.1205">
        <ele>609</ele>
        <time>2007-06-12T23:13:49Z</time>
      </trkpt>
      <trkpt lat="43.70378" lon="3.12114">
        <ele>600</ele>
        <time>2007-06-12T23:13:49Z</time>
      </trkpt>
      <trkpt lat="43.70323" lon="3.12158">
        <ele>604</ele>
        <time>2007-06-12T23:13:49Z</time>
      </trkpt>
      <trkpt lat="43.7024" lon="3.12313">
        <ele>599</ele>
        <time>2007-06-12T23:13:49Z</time>
      </trkpt>
      <trkpt lat="43.70135" lon="3.12174">
        <ele>596</ele>
        <time>2007-06-12T23:13:49Z</time>
      </trkpt>
      <trkpt lat="43.69969" lon="3.12114">
        <ele>576</ele>
        <time>2007-06-12T23:13:49Z</time>
      </trkpt>
      <trkpt lat="43.69969" lon="3.12056">
        <ele>574</ele>
        <time>2007-06-12T23:13:49Z</time>
      </trkpt>
      <trkpt lat="43.70229" lon="3.1192">
        <ele>585</ele>
        <time>2007-06-12T23:13:49Z</time>
      </trkpt>
      <trkpt lat="43.70199" lon="3.11855">
        <ele>572</ele>
        <time>2007-06-12T23:13:49Z</time>
      </trkpt>
      <trkpt lat="43.70271" lon="3.11714">
        <ele>577</ele>
        <time>2007-06-12T23:13:49Z</time>
      </trkpt>
      <trkpt lat="43.70043" lon="3.11726">
        <ele>563</ele>
        <time>2007-06-12T23:13:49Z</time>
      </trkpt>
      <trkpt lat="43.69962" lon="3.11795">
        <ele>542</ele>
        <time>2007-06-12T23:13:49Z</time>
      </trkpt>
      <trkpt lat="43.69912" lon="3.11791">
        <ele>541</ele>
        <time>2007-06-12T23:13:49Z</time>
      </trkpt>
      <trkpt lat="43.69846" lon="3.11834">
        <ele>528</ele>
        <time>2007-06-12T23:13:49Z</time>
      </trkpt>
      <trkpt lat="43.69699" lon="3.12034">
        <ele>509</ele>
        <time>2007-06-12T23:13:49Z</time>
      </trkpt>
      <trkpt lat="43.6969" lon="3.12119">
        <ele>496</ele>
        <time>2007-06-12T23:13:49Z</time>
      </trkpt>
      <trkpt lat="43.69728" lon="3.12217">
        <ele>490</ele>
        <time>2007-06-12T23:13:49Z</time>
      </trkpt>
      <trkpt lat="43.69663" lon="3.12276">
        <ele>470</ele>
        <time>2007-06-12T23:13:49Z</time>
      </trkpt>
      <trkpt lat="43.69664" lon="3.12342">
        <ele>467</ele>
        <time>2007-06-12T23:13:49Z</time>
      </trkpt>
      <trkpt lat="43.69734" lon="3.12399">
        <ele>486</ele>
        <time>2007-06-12T23:13:49Z</time>
      </trkpt>
      <trkpt lat="43.69716" lon="3.12421">
        <ele>485</ele>
        <time>2007-06-12T23:13:49Z</time>
      </trkpt>
      <trkpt lat="43.69518" lon="3.12438">
        <ele>474</ele>
        <time>2007-06-12T23:13:49Z</time>
      </trkpt>
      <trkpt lat="43.69462" lon="3.12365">
        <ele>460</ele>
        <time>2007-06-12T23:13:49Z</time>
      </trkpt>
      <trkpt lat="43.69468" lon="3.12319">
        <ele>445</ele>
        <time>2007-06-12T23:13:49Z</time>
      </trkpt>
      <trkpt lat="43.69452" lon="3.12303">
        <ele>445</ele>
        <time>2007-06-12T23:13:49Z</time>
      </trkpt>
      <trkpt lat="43.69246" lon="3.12401">
        <ele>441</ele>
        <time>2007-06-12T23:13:49Z</time>
      </trkpt>
      <trkpt lat="43.6909" lon="3.12418">
        <ele>421</ele>
        <time>2007-06-12T23:13:49Z</time>
      </trkpt>
      <trkpt lat="43.69052" lon="3.12695">
        <ele>447</ele>
        <time>2007-06-12T23:13:49Z</time>
      </trkpt>
      <trkpt lat="43.69035" lon="3.127">
        <ele>448</ele>
        <time>2007-06-12T23:13:49Z</time>
      </trkpt>
      <trkpt lat="43.68972" lon="3.12509">
        <ele>442</ele>
        <time>2007-06-12T23:13:49Z</time>
      </trkpt>
      <trkpt lat="43.68986" lon="3.12323">
        <ele>419</ele>
        <time>2007-06-12T23:13:49Z</time>
      </trkpt>
      <trkpt lat="43.6896" lon="3.12177">
        <ele>410</ele>
        <time>2007-06-12T23:13:49Z</time>
      </trkpt>
      <trkpt lat="43.6891" lon="3.12169">
        <ele>422</ele>
        <time>2007-06-12T23:13:49Z</time>
      </trkpt>
      <trkpt lat="43.68916" lon="3.1208">
        <ele>408</ele>
        <time>2007-06-12T23:13:49Z</time>
      </trkpt>
      <trkpt lat="43.68869" lon="3.11989">
        <ele>395</ele>
        <time>2007-06-12T23:13:49Z</time>
      </trkpt>
      <trkpt lat="43.6882" lon="3.11962">
        <ele>398</ele>
        <time>2007-06-12T23:13:49Z</time>
      </trkpt>
      <trkpt lat="43.68779" lon="3.11977">
        <ele>403</ele>
        <time>2007-06-12T23:13:49Z</time>
      </trkpt>
      <trkpt lat="43.68766" lon="3.11896">
        <ele>386</ele>
        <time>2007-06-12T23:13:49Z</time>
      </trkpt>
      <trkpt lat="43.68653" lon="3.1181">
        <ele>387</ele>
        <time>2007-06-12T23:13:49Z</time>
      </trkpt>
      <trkpt lat="43.68582" lon="3.11699">
        <ele>379</ele>
        <time>2007-06-12T23:13:49Z</time>
      </trkpt>
      <trkpt lat="43.68391" lon="3.11534">
        <ele>365</ele>
        <time>2007-06-12T23:13:49Z</time>
      </trkpt>
      <trkpt lat="43.68088" lon="3.11387">
        <ele>334</ele>
        <time>2007-06-12T23:13:49Z</time>
      </trkpt>
      <trkpt lat="43.67967" lon="3.11412">
        <ele>324</ele>
        <time>2007-06-12T23:13:49Z</time>
      </trkpt>
      <trkpt lat="43.6794" lon="3.1147">
        <ele>334</ele>
        <time>2007-06-12T23:13:49Z</time>
      </trkpt>
      <trkpt lat="43.68044" lon="3.11412">
        <ele>331</ele>
        <time>2007-06-12T23:13:49Z</time>
      </trkpt>
      <trkpt lat="43.6815" lon="3.11426">
        <ele>347</ele>
        <time>2007-06-12T23:13:49Z</time>
      </trkpt>
      <trkpt lat="43.68407" lon="3.11578">
        <ele>372</ele>
        <time>2007-06-12T23:13:49Z</time>
      </trkpt>
      <trkpt lat="43.68544" lon="3.11747">
        <ele>389</ele>
        <time>2007-06-12T23:13:49Z</time>
      </trkpt>
      <trkpt lat="43.68372" lon="3.1162">
        <ele>396</ele>
        <time>2007-06-12T23:13:49Z</time>
      </trkpt>
      <trkpt lat="43.68182" lon="3.11571">
        <ele>397</ele>
        <time>2007-06-12T23:13:49Z</time>
      </trkpt>
      <trkpt lat="43.68136" lon="3.11587">
        <ele>414</ele>
        <time>2007-06-12T23:13:49Z</time>
      </trkpt>
      <trkpt lat="43.68065" lon="3.11665">
        <ele>419</ele>
        <time>2007-06-12T23:13:49Z</time>
      </trkpt>
      <trkpt lat="43.68009" lon="3.11656">
        <ele>418</ele>
        <time>2007-06-12T23:13:49Z</time>
      </trkpt>
      <trkpt lat="43.67953" lon="3.11704">
        <ele>426</ele>
        <time>2007-06-12T23:13:49Z</time>
      </trkpt>
      <trkpt lat="43.67894" lon="3.11812">
        <ele>429</ele>
        <time>2007-06-12T23:13:49Z</time>
      </trkpt>
      <trkpt lat="43.67909" lon="3.11954">
        <ele>438</ele>
        <time>2007-06-12T23:13:49Z</time>
      </trkpt>
      <trkpt lat="43.67957" lon="3.12096">
        <ele>466</ele>
        <time>2007-06-12T23:13:49Z</time>
      </trkpt>
      <trkpt lat="43.67912" lon="3.12431">
        <ele>487</ele>
        <time>2007-06-12T23:13:49Z</time>
      </trkpt>
      <trkpt lat="43.67744" lon="3.12543">
        <ele>489</ele>
        <time>2007-06-12T23:13:49Z</time>
      </trkpt>
      <trkpt lat="43.67669" lon="3.12658">
        <ele>507</ele>
        <time>2007-06-12T23:13:49Z</time>
      </trkpt>
      <trkpt lat="43.67675" lon="3.12709">
        <ele>516</ele>
        <time>2007-06-12T23:13:49Z</time>
      </trkpt>
      <trkpt lat="43.67991" lon="3.13044">
        <ele>527</ele>
        <time>2007-06-12T23:13:49Z</time>
      </trkpt>
      <trkpt lat="43.67943" lon="3.1315">
        <ele>516</ele>
        <time>2007-06-12T23:13:49Z</time>
      </trkpt>
      <trkpt lat="43.67904" lon="3.1317">
        <ele>509</ele>
        <time>2007-06-12T23:13:49Z</time>
      </trkpt>
      <trkpt lat="43.67856" lon="3.13277">
        <ele>500</ele>
        <time>2007-06-12T23:13:49Z</time>
      </trkpt>
      <trkpt lat="43.67646" lon="3.13598">
        <ele>471</ele>
        <time>2007-06-12T23:13:49Z</time>
      </trkpt>
      <trkpt lat="43.67544" lon="3.13845">
        <ele>447</ele>
        <time>2007-06-12T23:13:49Z</time>
      </trkpt>
      <trkpt lat="43.67401" lon="3.13986">
        <ele>435</ele>
        <time>2007-06-12T23:13:49Z</time>
      </trkpt>
      <trkpt lat="43.67362" lon="3.13998">
        <ele>434</ele>
        <time>2007-06-12T23:13:49Z</time>
      </trkpt>
      <trkpt lat="43.67271" lon="3.13915">
        <ele>425</ele>
        <time>2007-06-12T23:13:49Z</time>
      </trkpt>
      <trkpt lat="43.67212" lon="3.13798">
        <ele>414</ele>
        <time>2007-06-12T23:13:49Z</time>
      </trkpt>
      <trkpt lat="43.67029" lon="3.13723">
        <ele>420</ele>
        <time>2007-06-12T23:13:49Z</time>
      </trkpt>
      <trkpt lat="43.66888" lon="3.13768">
        <ele>433</ele>
        <time>2007-06-12T23:13:49Z</time>
      </trkpt>
      <trkpt lat="43.6672" lon="3.1399">
        <ele>425</ele>
        <time>2007-06-12T23:13:49Z</time>
      </trkpt>
      <trkpt lat="43.66669" lon="3.13956">
        <ele>426</ele>
        <time>2007-06-12T23:13:49Z</time>
      </trkpt>
      <trkpt lat="43.66589" lon="3.13676">
        <ele>418</ele>
        <time>2007-06-12T23:13:49Z</time>
      </trkpt>
      <trkpt lat="43.66528" lon="3.13658">
        <ele>408</ele>
        <time>2007-06-12T23:13:49Z</time>
      </trkpt>
      <trkpt lat="43.66434" lon="3.13531">
        <ele>398</ele>
        <time>2007-06-12T23:13:49Z</time>
      </trkpt>
      <trkpt lat="43.66211" lon="3.13503">
        <ele>387</ele>
        <time>2007-06-12T23:13:49Z</time>
      </trkpt>
      <trkpt lat="43.66149" lon="3.13544">
        <ele>376</ele>
        <time>2007-06-12T23:13:49Z</time>
      </trkpt>
      <trkpt lat="43.66041" lon="3.13472">
        <ele>363</ele>
        <time>2007-06-12T23:13:49Z</time>
      </trkpt>
      <trkpt lat="43.66048" lon="3.13662">
        <ele>367</ele>
        <time>2007-06-12T23:13:49Z</time>
      </trkpt>
      <trkpt lat="43.65936" lon="3.13865">
        <ele>364</ele>
        <time>2007-06-12T23:13:49Z</time>
      </trkpt>
      <trkpt lat="43.65922" lon="3.13972">
        <ele>364</ele>
        <time>2007-06-12T23:13:49Z</time>
      </trkpt>
      <trkpt lat="43.65879" lon="3.14061">
        <ele>338</ele>
        <time>2007-06-12T23:13:49Z</time>
      </trkpt>
      <trkpt lat="43.6593" lon="3.14151">
        <ele>334</ele>
        <time>2007-06-12T23:13:49Z</time>
      </trkpt>
      <trkpt lat="43.65931" lon="3.14264">
        <ele>311</ele>
        <time>2007-06-12T23:13:49Z</time>
      </trkpt>
      <trkpt lat="43.65848" lon="3.14471">
        <ele>296</ele>
        <time>2007-06-12T23:13:49Z</time>
      </trkpt>
      <trkpt lat="43.65824" lon="3.14676">
        <ele>288</ele>
        <time>2007-06-12T23:13:49Z</time>
      </trkpt>
      <trkpt lat="43.65867" lon="3.14854">
        <ele>263</ele>
        <time>2007-06-12T23:13:49Z</time>
      </trkpt>
      <trkpt lat="43.65924" lon="3.14782">
        <ele>261</ele>
        <time>2007-06-12T23:13:49Z</time>
      </trkpt>
      <trkpt lat="43.65959" lon="3.14821">
        <ele>258</ele>
        <time>2007-06-12T23:13:49Z</time>
      </trkpt>
      <trkpt lat="43.65947" lon="3.14861">
        <ele>252</ele>
        <time>2007-06-12T23:13:49Z</time>
      </trkpt>
      <trkpt lat="43.65927" lon="3.14862">
        <ele>253</ele>
        <time>2007-06-12T23:13:49Z</time>
      </trkpt>
      <trkpt lat="43.65875" lon="3.14975">
        <ele>240</ele>
        <time>2007-06-12T23:13:49Z</time>
      </trkpt>
      <trkpt lat="43.65827" lon="3.14984">
        <ele>238</ele>
        <time>2007-06-12T23:13:49Z</time>
      </trkpt>
      <trkpt lat="43.65513" lon="3.14852">
        <ele>228</ele>
        <time>2007-06-12T23:13:49Z</time>
      </trkpt>
      <trkpt lat="43.65491" lon="3.14872">
        <ele>226</ele>
        <time>2007-06-12T23:13:49Z</time>
      </trkpt>
      <trkpt lat="43.6559" lon="3.14922">
        <ele>229</ele>
        <time>2007-06-12T23:13:49Z</time>
      </trkpt>
      <trkpt lat="43.65538" lon="3.15103">
        <ele>222</ele>
        <time>2007-06-12T23:13:49Z</time>
      </trkpt>
      <trkpt lat="43.65483" lon="3.15149">
        <ele>227</ele>
        <time>2007-06-12T23:13:49Z</time>
      </trkpt>
      <trkpt lat="43.65549" lon="3.1519">
        <ele>229</ele>
        <time>2007-06-12T23:13:49Z</time>
      </trkpt>
      <trkpt lat="43.65579" lon="3.15265">
        <ele>233</ele>
        <time>2007-06-12T23:13:49Z</time>
      </trkpt>
      <trkpt lat="43.65744" lon="3.15348">
        <ele>226</ele>
        <time>2007-06-12T23:13:49Z</time>
      </trkpt>
      <trkpt lat="43.65909" lon="3.15614">
        <ele>228</ele>
        <time>2007-06-12T23:13:49Z</time>
      </trkpt>
      <trkpt lat="43.66024" lon="3.15906">
        <ele>225</ele>
        <time>2007-06-12T23:13:49Z</time>
      </trkpt>
      <trkpt lat="43.6608" lon="3.15928">
        <ele>226</ele>
        <time>2007-06-12T23:13:49Z</time>
      </trkpt>
      <trkpt lat="43.66236" lon="3.16235">
        <ele>226</ele>
        <time>2007-06-12T23:13:49Z</time>
      </trkpt>
      <trkpt lat="43.66228" lon="3.16264">
        <ele>227</ele>
        <time>2007-06-12T23:13:49Z</time>
      </trkpt>
      <trkpt lat="43.66473" lon="3.16591">
        <ele>232</ele>
        <time>2007-06-12T23:13:49Z</time>
      </trkpt>
      <trkpt lat="43.66461" lon="3.16709">
        <ele>239</ele>
        <time>2007-06-12T23:13:49Z</time>
      </trkpt>
      <trkpt lat="43.66536" lon="3.16824">
        <ele>241</ele>
        <time>2007-06-12T23:13:49Z</time>
      </trkpt>
      <trkpt lat="43.66502" lon="3.16853">
        <ele>245</ele>
        <time>2007-06-12T23:13:49Z</time>
      </trkpt>
      <trkpt lat="43.66454" lon="3.17095">
        <ele>248</ele>
        <time>2007-06-12T23:13:49Z</time>
      </trkpt>
      <trkpt lat="43.66236" lon="3.17562">
        <ele>261</ele>
        <time>2007-06-12T23:13:49Z</time>
      </trkpt>
      <trkpt lat="43.66059" lon="3.17756">
        <ele>267</ele>
        <time>2007-06-12T23:13:49Z</time>
      </trkpt>
      <trkpt lat="43.66016" lon="3.17873">
        <ele>267</ele>
        <time>2007-06-12T23:13:49Z</time>
      </trkpt>
      <trkpt lat="43.65867" lon="3.18024">
        <ele>281</ele>
        <time>2007-06-12T23:13:49Z</time>
      </trkpt>
      <trkpt lat="43.65773" lon="3.18057">
        <ele>282</ele>
        <time>2007-06-12T23:13:49Z</time>
      </trkpt>
      <trkpt lat="43.65693" lon="3.18033">
        <ele>277</ele>
        <time>2007-06-12T23:13:49Z</time>
      </trkpt>
      <trkpt lat="43.65304" lon="3.18059">
        <ele>238</ele>
        <time>2007-06-12T23:13:49Z</time>
      </trkpt>
      <trkpt lat="43.65289" lon="3.17998">
        <ele>234</ele>
        <time>2007-06-12T23:13:49Z</time>
      </trkpt>
      <trkpt lat="43.65206" lon="3.18126">
        <ele>235</ele>
        <time>2007-06-12T23:13:49Z</time>
      </trkpt>
      <trkpt lat="43.65242" lon="3.18195">
        <ele>238</ele>
        <time>2007-06-12T23:13:49Z</time>
      </trkpt>
      <trkpt lat="43.65277" lon="3.1837">
        <ele>241</ele>
        <time>2007-06-12T23:13:49Z</time>
      </trkpt>
      <trkpt lat="43.65247" lon="3.18558">
        <ele>241</ele>
        <time>2007-06-12T23:13:49Z</time>
      </trkpt>
      <trkpt lat="43.65278" lon="3.19009">
        <ele>247</ele>
        <time>2007-06-12T23:13:49Z</time>
      </trkpt>
      <trkpt lat="43.65231" lon="3.19389">
        <ele>251</ele>
        <time>2007-06-12T23:13:49Z</time>
      </trkpt>
      <trkpt lat="43.65172" lon="3.19617">
        <ele>255</ele>
        <time>2007-06-12T23:13:49Z</time>
      </trkpt>
      <trkpt lat="43.6523" lon="3.19877">
        <ele>256</ele>
        <time>2007-06-12T23:13:49Z</time>
      </trkpt>
      <trkpt lat="43.65297" lon="3.20021">
        <ele>260</ele>
        <time>2007-06-12T23:13:49Z</time>
      </trkpt>
      <trkpt lat="43.65312" lon="3.20129">
        <ele>259</ele>
        <time>2007-06-12T23:13:49Z</time>
      </trkpt>
      <trkpt lat="43.65308" lon="3.20099">
        <ele>258</ele>
        <time>2007-06-12T23:13:49Z</time>
      </trkpt>
      <trkpt lat="43.65174" lon="3.20087">
        <ele>256</ele>
        <time>2007-06-12T23:13:49Z</time>
      </trkpt>
      <trkpt lat="43.65151" lon="3.20038">
        <ele>256</ele>
        <time>2007-06-12T23:13:49Z</time>
      </trkpt>
      <trkpt lat="43.65139" lon="3.20069">
        <ele>257</ele>
        <time>2007-06-12T23:13:49Z</time>
      </trkpt>
      <trkpt lat="43.65153" lon="3.20188">
        <ele>267</ele>
        <time>2007-06-12T23:13:49Z</time>
      </trkpt>
      <trkpt lat="43.65136" lon="3.20051">
        <ele>257</ele>
        <time>2007-06-12T23:13:49Z</time>
      </trkpt>
      <trkpt lat="43.65179" lon="3.20092">
        <ele>257</ele>
        <time>2007-06-12T23:13:49Z</time>
      </trkpt>
      <trkpt lat="43.653" lon="3.20102">
        <ele>258</ele>
        <time>2007-06-12T23:13:49Z</time>
      </trkpt>
      <trkpt lat="43.65313" lon="3.20247">
        <ele>261</ele>
        <time>2007-06-12T23:13:49Z</time>
      </trkpt>
      <trkpt lat="43.65277" lon="3.20332">
        <ele>261</ele>
        <time>2007-06-12T23:13:49Z</time>
      </trkpt>
      <trkpt lat="43.65314" lon="3.2055">
        <ele>264</ele>
        <time>2007-06-12T23:13:49Z</time>
      </trkpt>
      <trkpt lat="43.6535" lon="3.2059">
        <ele>267</ele>
        <time>2007-06-12T23:13:49Z</time>
      </trkpt>
      <trkpt lat="43.65396" lon="3.20806">
        <ele>269</ele>
        <time>2007-06-12T23:13:49Z</time>
      </trkpt>
      <trkpt lat="43.65428" lon="3.20864">
        <ele>273</ele>
        <time>2007-06-12T23:13:49Z</time>
      </trkpt>
      <trkpt lat="43.65503" lon="3.21179">
        <ele>272</ele>
        <time>2007-06-12T23:13:49Z</time>
      </trkpt>
      <trkpt lat="43.65556" lon="3.21273">
        <ele>271</ele>
        <time>2007-06-12T23:13:49Z</time>
      </trkpt>
      <trkpt lat="43.65631" lon="3.21184">
        <ele>284</ele>
        <time>2007-06-12T23:13:49Z</time>
      </trkpt>
      <trkpt lat="43.65647" lon="3.2111">
        <ele>296</ele>
        <time>2007-06-12T23:13:49Z</time>
      </trkpt>
      <trkpt lat="43.65683" lon="3.21125">
        <ele>307</ele>
        <time>2007-06-12T23:13:49Z</time>
      </trkpt>
      <trkpt lat="43.65691" lon="3.2109">
        <ele>309</ele>
        <time>2007-06-12T23:13:49Z</time>
      </trkpt>
      <trkpt lat="43.66074" lon="3.212">
        <ele>365</ele>
        <time>2007-06-12T23:13:49Z</time>
      </trkpt>
      <trkpt lat="43.66129" lon="3.21148">
        <ele>371</ele>
        <time>2007-06-12T23:13:49Z</time>
      </trkpt>
      <trkpt lat="43.6623" lon="3.21116">
        <ele>360</ele>
        <time>2007-06-12T23:13:49Z</time>
      </trkpt>
      <trkpt lat="43.66355" lon="3.2115">
        <ele>340</ele>
        <time>2007-06-12T23:13:49Z</time>
      </trkpt>
      <trkpt lat="43.66341" lon="3.21198">
        <ele>339</ele>
        <time>2007-06-12T23:13:49Z</time>
      </trkpt>
      <trkpt lat="43.66392" lon="3.21198">
        <ele>339</ele>
        <time>2007-06-12T23:13:49Z</time>
      </trkpt>
      <trkpt lat="43.66395" lon="3.21248">
        <ele>339</ele>
        <time>2007-06-12T23:13:49Z</time>
      </trkpt>
      <trkpt lat="43.66456" lon="3.21318">
        <ele>352</ele>
        <time>2007-06-12T23:13:49Z</time>
      </trkpt>
      <trkpt lat="43.66581" lon="3.21089">
        <ele>359</ele>
        <time>2007-06-12T23:13:49Z</time>
      </trkpt>
      <trkpt lat="43.66738" lon="3.21034">
        <ele>381</ele>
        <time>2007-06-12T23:13:49Z</time>
      </trkpt>
      <trkpt lat="43.66825" lon="3.21089">
        <ele>397</ele>
        <time>2007-06-12T23:13:49Z</time>
      </trkpt>
      <trkpt lat="43.66864" lon="3.21017">
        <ele>404</ele>
        <time>2007-06-12T23:13:49Z</time>
      </trkpt>
      <trkpt lat="43.66861" lon="3.20959">
        <ele>409</ele>
        <time>2007-06-12T23:13:49Z</time>
      </trkpt>
      <trkpt lat="43.66894" lon="3.21002">
        <ele>410</ele>
        <time>2007-06-12T23:13:49Z</time>
      </trkpt>
      <trkpt lat="43.6688" lon="3.2106">
        <ele>407</ele>
        <time>2007-06-12T23:13:49Z</time>
      </trkpt>
      <trkpt lat="43.66944" lon="3.20998">
        <ele>424</ele>
        <time>2007-06-12T23:13:49Z</time>
      </trkpt>
      <trkpt lat="43.66968" lon="3.20895">
        <ele>436</ele>
        <time>2007-06-12T23:13:49Z</time>
      </trkpt>
      <trkpt lat="43.67047" lon="3.20923">
        <ele>446</ele>
        <time>2007-06-12T23:13:49Z</time>
      </trkpt>
      <trkpt lat="43.67036" lon="3.20881">
        <ele>453</ele>
        <time>2007-06-12T23:13:49Z</time>
      </trkpt>
      <trkpt lat="43.67067" lon="3.20904">
        <ele>455</ele>
        <time>2007-06-12T23:13:49Z</time>
      </trkpt>
      <trkpt lat="43.6705" lon="3.20853">
        <ele>458</ele>
        <time>2007-06-12T23:13:49Z</time>
      </trkpt>
      <trkpt lat="43.67109" lon="3.20892">
        <ele>477</ele>
        <time>2007-06-12T23:13:49Z</time>
      </trkpt>
      <trkpt lat="43.67194" lon="3.21134">
        <ele>498</ele>
        <time>2007-06-12T23:13:49Z</time>
      </trkpt>
      <trkpt lat="43.67144" lon="3.2125">
        <ele>485</ele>
        <time>2007-06-12T23:13:49Z</time>
      </trkpt>
      <trkpt lat="43.67241" lon="3.21126">
        <ele>507</ele>
        <time>2007-06-12T23:13:49Z</time>
      </trkpt>
      <trkpt lat="43.67193" lon="3.20978">
        <ele>513</ele>
        <time>2007-06-12T23:13:49Z</time>
      </trkpt>
      <trkpt lat="43.672" lon="3.2074">
        <ele>539</ele>
        <time>2007-06-12T23:13:49Z</time>
      </trkpt>
      <trkpt lat="43.67165" lon="3.20741">
        <ele>524</ele>
        <time>2007-06-12T23:13:49Z</time>
      </trkpt>
      <trkpt lat="43.67235" lon="3.20707">
        <ele>546</ele>
        <time>2007-06-12T23:13:49Z</time>
      </trkpt>
      <trkpt lat="43.67189" lon="3.20686">
        <ele>545</ele>
        <time>2007-06-12T23:13:49Z</time>
      </trkpt>
      <trkpt lat="43.67262" lon="3.20654">
        <ele>560</ele>
        <time>2007-06-12T23:13:49Z</time>
      </trkpt>
      <trkpt lat="43.67361" lon="3.207">
        <ele>570</ele>
        <time>2007-06-12T23:13:49Z</time>
      </trkpt>
      <trkpt lat="43.67326" lon="3.20611">
        <ele>567</ele>
        <time>2007-06-12T23:13:49Z</time>
      </trkpt>
      <trkpt lat="43.67438" lon="3.20629">
        <ele>581</ele>
        <time>2007-06-12T23:13:49Z</time>
      </trkpt>
      <trkpt lat="43.67686" lon="3.20434">
        <ele>589</ele>
        <time>2007-06-12T23:13:49Z</time>
      </trkpt>
      <trkpt lat="43.67719" lon="3.20434">
        <ele>590</ele>
        <time>2007-06-12T23:13:49Z</time>
      </trkpt>
      <trkpt lat="43.67773" lon="3.20215">
        <ele>593</ele>
        <time>2007-06-12T23:13:49Z</time>
      </trkpt>
      <trkpt lat="43.67925" lon="3.19964">
        <ele>588</ele>
        <time>2007-06-12T23:13:49Z</time>
      </trkpt>
      <trkpt lat="43.68296" lon="3.20245">
        <ele>592</ele>
        <time>2007-06-12T23:13:49Z</time>
      </trkpt>
      <trkpt lat="43.68559" lon="3.19869">
        <ele>578</ele>
        <time>2007-06-12T23:13:49Z</time>
      </trkpt>
      <trkpt lat="43.6868" lon="3.19828">
        <ele>578</ele>
        <time>2007-06-12T23:13:49Z</time>
      </trkpt>
      <trkpt lat="43.68735" lon="3.19776">
        <ele>578</ele>
        <time>2007-06-12T23:13:49Z</time>
      </trkpt>
      <trkpt lat="43.68759" lon="3.19874">
        <ele>570</ele>
        <time>2007-06-12T23:13:49Z</time>
      </trkpt>
      <trkpt lat="43.68815" lon="3.19957">
        <ele>562</ele>
        <time>2007-06-12T23:13:49Z</time>
      </trkpt>
      <trkpt lat="43.68891" lon="3.20193">
        <ele>523</ele>
        <time>2007-06-12T23:13:49Z</time>
      </trkpt>
      <trkpt lat="43.6892" lon="3.20227">
        <ele>526</ele>
        <time>2007-06-12T23:13:49Z</time>
      </trkpt>
      <trkpt lat="43.69037" lon="3.20261">
        <ele>501</ele>
        <time>2007-06-12T23:13:49Z</time>
      </trkpt>
      <trkpt lat="43.69068" lon="3.20237">
        <ele>514</ele>
        <time>2007-06-12T23:13:49Z</time>
      </trkpt>
      <trkpt lat="43.6918" lon="3.19986">
        <ele>512</ele>
        <time>2007-06-12T23:13:49Z</time>
      </trkpt>
      <trkpt lat="43.69225" lon="3.19986">
        <ele>512</ele>
        <time>2007-06-12T23:13:49Z</time>
      </trkpt>
      <trkpt lat="43.69246" lon="3.20085">
        <ele>484</ele>
        <time>2007-06-12T23:13:49Z</time>
      </trkpt>
      <trkpt lat="43.69334" lon="3.20224">
        <ele>462</ele>
        <time>2007-06-12T23:13:49Z</time>
      </trkpt>
      <trkpt lat="43.69469" lon="3.20238">
        <ele>450</ele>
        <time>2007-06-12T23:13:49Z</time>
      </trkpt>
      <trkpt lat="43.69607" lon="3.20176">
        <ele>425</ele>
        <time>2007-06-12T23:13:49Z</time>
      </trkpt>
      <trkpt lat="43.69654" lon="3.20116">
        <ele>445</ele>
        <time>2007-06-12T23:13:49Z</time>
      </trkpt>
      <trkpt lat="43.69733" lon="3.20181">
        <ele>405</ele>
        <time>2007-06-12T23:13:49Z</time>
      </trkpt>
      <trkpt lat="43.69824" lon="3.20134">
        <ele>420</ele>
        <time>2007-06-12T23:13:49Z</time>
      </trkpt>
      <trkpt lat="43.6986" lon="3.20191">
        <ele>397</ele>
        <time>2007-06-12T23:13:49Z</time>
      </trkpt>
      <trkpt lat="43.69937" lon="3.20227">
        <ele>395</ele>
        <time>2007-06-12T23:13:49Z</time>
      </trkpt>
      <trkpt lat="43.70125" lon="3.20227">
        <ele>380</ele>
        <time>2007-06-12T23:13:49Z</time>
      </trkpt>
      <trkpt lat="43.70213" lon="3.20172">
        <ele>360</ele>
        <time>2007-06-12T23:13:49Z</time>
      </trkpt>
      <trkpt lat="43.70361" lon="3.19859">
        <ele>365</ele>
        <time>2007-06-12T23:13:49Z</time>
      </trkpt>
      <trkpt lat="43.70492" lon="3.19747">
        <ele>344</ele>
        <time>2007-06-12T23:13:49Z</time>
      </trkpt>
      <trkpt lat="43.70551" lon="3.19552">
        <ele>336</ele>
        <time>2007-06-12T23:13:49Z</time>
      </trkpt>
      <trkpt lat="43.70545" lon="3.19767">
        <ele>314</ele>
        <time>2007-06-12T23:13:49Z</time>
      </trkpt>
      <trkpt lat="43.70403" lon="3.19944">
        <ele>330</ele>
        <time>2007-06-12T23:13:49Z</time>
      </trkpt>
      <trkpt lat="43.70442" lon="3.19889">
        <ele>323</ele>
        <time>2007-06-12T23:13:49Z</time>
      </trkpt>
      <trkpt lat="43.70604" lon="3.19789">
        <ele>305</ele>
        <time>2007-06-12T23:13:49Z</time>
      </trkpt>
      <trkpt lat="43.70605" lon="3.19643">
        <ele>304</ele>
        <time>2007-06-12T23:13:49Z</time>
      </trkpt>
      <trkpt lat="43.70625" lon="3.19565">
        <ele>301</ele>
        <time>2007-06-12T23:13:49Z</time>
      </trkpt>
      <trkpt lat="43.70687" lon="3.19477">
        <ele>282</ele>
        <time>2007-06-12T23:13:49Z</time>
      </trkpt>
      <trkpt lat="43.70702" lon="3.1934">
        <ele>280</ele>
        <time>2007-06-12T23:13:49Z</time>
      </trkpt>
      <trkpt lat="43.70731" lon="3.19334">
        <ele>281</ele>
        <time>2007-06-12T23:13:49Z</time>
      </trkpt>
      <trkpt lat="43.70741" lon="3.1944">
        <ele>280</ele>
        <time>2007-06-12T23:13:49Z</time>
      </trkpt>
      <trkpt lat="43.70809" lon="3.196">
        <ele>290</ele>
        <time>2007-06-12T23:13:49Z</time>
      </trkpt>
      <trkpt lat="43.71069" lon="3.19594">
        <ele>294</ele>
        <time>2007-06-12T23:13:49Z</time>
      </trkpt>
      <trkpt lat="43.71073" lon="3.19572">
        <ele>288</ele>
        <time>2007-06-12T23:13:49Z</time>
      </trkpt>
      <trkpt lat="43.71172" lon="3.19604">
        <ele>290</ele>
        <time>2007-06-12T23:13:49Z</time>
      </trkpt>
      <trkpt lat="43.71218" lon="3.19646">
        <ele>291</ele>
        <time>2007-06-12T23:13:49Z</time>
      </trkpt>
      <trkpt lat="43.71273" lon="3.19842">
        <ele>291</ele>
        <time>2007-06-12T23:13:49Z</time>
      </trkpt>
      <trkpt lat="43.71534" lon="3.20029">
        <ele>306</ele>
        <time>2007-06-12T23:13:49Z</time>
      </trkpt>
      <trkpt lat="43.71616" lon="3.20018">
        <ele>307</ele>
        <time>2007-06-12T23:13:49Z</time>
      </trkpt>
      <trkpt lat="43.71705" lon="3.19918">
        <ele>299</ele>
        <time>2007-06-12T23:13:49Z</time>
      </trkpt>
      <trkpt lat="43.71745" lon="3.1991">
        <ele>299</ele>
        <time>2007-06-12T23:13:49Z</time>
      </trkpt>
      <trkpt lat="43.71789" lon="3.19973">
        <ele>303</ele>
        <time>2007-06-12T23:13:49Z</time>
      </trkpt>
      <trkpt lat="43.71794" lon="3.20086">
        <ele>320</ele>
        <time>2007-06-12T23:13:49Z</time>
      </trkpt>
      <trkpt lat="43.71822" lon="3.20162">
        <ele>324</ele>
        <time>2007-06-12T23:13:49Z</time>
      </trkpt>
      <trkpt lat="43.71956" lon="3.20102">
        <ele>314</ele>
        <time>2007-06-12T23:13:49Z</time>
      </trkpt>
      <trkpt lat="43.72057" lon="3.20105">
        <ele>313</ele>
        <time>2007-06-12T23:13:49Z</time>
      </trkpt>
      <trkpt lat="43.72114" lon="3.20186">
        <ele>320</ele>
        <time>2007-06-12T23:13:49Z</time>
      </trkpt>
      <trkpt lat="43.72113" lon="3.20341">
        <ele>331</ele>
        <time>2007-06-12T23:13:49Z</time>
      </trkpt>
      <trkpt lat="43.72132" lon="3.20352">
        <ele>329</ele>
        <time>2007-06-12T23:13:49Z</time>
      </trkpt>
      <trkpt lat="43.72159" lon="3.20297">
        <ele>327</ele>
        <time>2007-06-12T23:13:49Z</time>
      </trkpt>
      <trkpt lat="43.72175" lon="3.20384">
        <ele>337</ele>
        <time>2007-06-12T23:13:49Z</time>
      </trkpt>
      <trkpt lat="43.72368" lon="3.20773">
        <ele>343</ele>
        <time>2007-06-12T23:13:49Z</time>
      </trkpt>
      <trkpt lat="43.72603" lon="3.21086">
        <ele>345</ele>
        <time>2007-06-12T23:13:49Z</time>
      </trkpt>
      <trkpt lat="43.73003" lon="3.21308">
        <ele>365</ele>
        <time>2007-06-12T23:13:49Z</time>
      </trkpt>
      <trkpt lat="43.73305" lon="3.21412">
        <ele>383</ele>
        <time>2007-06-12T23:13:49Z</time>
      </trkpt>
      <trkpt lat="43.73465" lon="3.21422">
        <ele>376</ele>
        <time>2007-06-12T23:13:49Z</time>
      </trkpt>
      <trkpt lat="43.7372" lon="3.21495">
        <ele>395</ele>
        <time>2007-06-12T23:13:49Z</time>
      </trkpt>
      <trkpt lat="43.73838" lon="3.21645">
        <ele>402</ele>
        <time>2007-06-12T23:13:49Z</time>
      </trkpt>
      <trkpt lat="43.73922" lon="3.218">
        <ele>411</ele>
        <time>2007-06-12T23:13:49Z</time>
      </trkpt>
      <trkpt lat="43.73965" lon="3.2194">
        <ele>404</ele>
        <time>2007-06-12T23:13:49Z</time>
      </trkpt>
      <trkpt lat="43.73917" lon="3.21689">
        <ele>430</ele>
        <time>2007-06-12T23:13:49Z</time>
      </trkpt>
      <trkpt lat="43.73752" lon="3.21356">
        <ele>436</ele>
        <time>2007-06-12T23:13:49Z</time>
      </trkpt>
      <trkpt lat="43.73863" lon="3.21216">
        <ele>410</ele>
        <time>2007-06-12T23:13:49Z</time>
      </trkpt>
      <trkpt lat="43.74197" lon="3.21282">
        <ele>398</ele>
        <time>2007-06-12T23:13:49Z</time>
      </trkpt>
      <trkpt lat="43.74377" lon="3.21416">
        <ele>395</ele>
        <time>2007-06-12T23:13:49Z</time>
      </trkpt>
      <trkpt lat="43.74701" lon="3.21477">
        <ele>414</ele>
        <time>2007-06-12T23:13:49Z</time>
      </trkpt>
      <trkpt lat="43.74787" lon="3.21539">
        <ele>424</ele>
        <time>2007-06-12T23:13:49Z</time>
      </trkpt>
      <trkpt lat="43.74867" lon="3.21717">
        <ele>435</ele>
        <time>2007-06-12T23:13:49Z</time>
      </trkpt>
      <trkpt lat="43.74955" lon="3.2175">
        <ele>437</ele>
        <time>2007-06-12T23:13:49Z</time>
      </trkpt>
      <trkpt lat="43.74837" lon="3.21349">
        <ele>453</ele>
        <time>2007-06-12T23:13:49Z</time>
      </trkpt>
      <trkpt lat="43.74761" lon="3.21245">
        <ele>457</ele>
        <time>2007-06-12T23:13:49Z</time>
      </trkpt>
      <trkpt lat="43.7466" lon="3.21197">
        <ele>448</ele>
        <time>2007-06-12T23:13:49Z</time>
      </trkpt>
      <trkpt lat="43.74598" lon="3.21243">
        <ele>441</ele>
        <time>2007-06-12T23:13:49Z</time>
      </trkpt>
      <trkpt lat="43.74464" lon="3.21214">
        <ele>433</ele>
        <time>2007-06-12T23:13:49Z</time>
      </trkpt>
      <trkpt lat="43.74435" lon="3.21178">
        <ele>434</ele>
        <time>2007-06-12T23:13:49Z</time>
      </trkpt>
      <trkpt lat="43.7442" lon="3.21098">
        <ele>455</ele>
        <time>2007-06-12T23:13:49Z</time>
      </trkpt>
      <trkpt lat="43.74345" lon="3.21086">
        <ele>437</ele>
        <time>2007-06-12T23:13:49Z</time>
      </trkpt>
      <trkpt lat="43.7426" lon="3.20995">
        <ele>461</ele>
        <time>2007-06-12T23:13:49Z</time>
      </trkpt>
      <trkpt lat="43.74216" lon="3.20909">
        <ele>480</ele>
        <time>2007-06-12T23:13:49Z</time>
      </trkpt>
      <trkpt lat="43.7404" lon="3.20842">
        <ele>466</ele>
        <time>2007-06-12T23:13:49Z</time>
      </trkpt>
      <trkpt lat="43.73971" lon="3.20742">
        <ele>509</ele>
        <time>2007-06-12T23:13:49Z</time>
      </trkpt>
      <trkpt lat="43.73838" lon="3.20672">
        <ele>494</ele>
        <time>2007-06-12T23:13:49Z</time>
      </trkpt>
      <trkpt lat="43.73797" lon="3.20426">
        <ele>506</ele>
        <time>2007-06-12T23:13:49Z</time>
      </trkpt>
      <trkpt lat="43.73808" lon="3.20392">
        <ele>503</ele>
        <time>2007-06-12T23:13:49Z</time>
      </trkpt>
      <trkpt lat="43.73875" lon="3.2034">
        <ele>520</ele>
        <time>2007-06-12T23:13:49Z</time>
      </trkpt>
      <trkpt lat="43.73979" lon="3.20318">
        <ele>520</ele>
        <time>2007-06-12T23:13:49Z</time>
      </trkpt>
      <trkpt lat="43.74157" lon="3.2035">
        <ele>546</ele>
        <time>2007-06-12T23:13:49Z</time>
      </trkpt>
      <trkpt lat="43.74331" lon="3.20555">
        <ele>568</ele>
        <time>2007-06-12T23:13:49Z</time>
      </trkpt>
      <trkpt lat="43.7457" lon="3.20588">
        <ele>588</ele>
        <time>2007-06-12T23:13:49Z</time>
      </trkpt>
      <trkpt lat="43.74708" lon="3.2072">
        <ele>601</ele>
        <time>2007-06-12T23:13:49Z</time>
      </trkpt>
      <trkpt lat="43.74836" lon="3.20765">
        <ele>610</ele>
        <time>2007-06-12T23:13:49Z</time>
      </trkpt>
      <trkpt lat="43.74976" lon="3.20877">
        <ele>626</ele>
        <time>2007-06-12T23:13:49Z</time>
      </trkpt>
      <trkpt lat="43.7506" lon="3.20894">
        <ele>638</ele>
        <time>2007-06-12T23:13:49Z</time>
      </trkpt>
      <trkpt lat="43.75166" lon="3.20844">
        <ele>645</ele>
        <time>2007-06-12T23:13:49Z</time>
      </trkpt>
      <trkpt lat="43.75311" lon="3.21003">
        <ele>670</ele>
        <time>2007-06-12T23:13:49Z</time>
      </trkpt>
      <trkpt lat="43.7543" lon="3.20938">
        <ele>669</ele>
        <time>2007-06-12T23:13:49Z</time>
      </trkpt>
      <trkpt lat="43.75616" lon="3.21277">
        <ele>690</ele>
        <time>2007-06-12T23:13:49Z</time>
      </trkpt>
      <trkpt lat="43.75706" lon="3.21218">
        <ele>685</ele>
        <time>2007-06-12T23:13:49Z</time>
      </trkpt>
      <trkpt lat="43.75714" lon="3.21175">
        <ele>684</ele>
        <time>2007-06-12T23:13:49Z</time>
      </trkpt>
      <trkpt lat="43.75661" lon="3.20916">
        <ele>675</ele>
        <time>2007-06-12T23:13:49Z</time>
      </trkpt>
      <trkpt lat="43.75658" lon="3.20584">
        <ele>668</ele>
        <time>2007-06-12T23:13:49Z</time>
      </trkpt>
      <trkpt lat="43.75633" lon="3.2038">
        <ele>652</ele>
        <time>2007-06-12T23:13:49Z</time>
      </trkpt>
      <trkpt lat="43.75483" lon="3.20218">
        <ele>639</ele>
        <time>2007-06-12T23:13:49Z</time>
      </trkpt>
      <trkpt lat="43.75334" lon="3.20154">
        <ele>627</ele>
        <time>2007-06-12T23:13:49Z</time>
      </trkpt>
      <trkpt lat="43.75518" lon="3.20169">
        <ele>623</ele>
        <time>2007-06-12T23:13:49Z</time>
      </trkpt>
      <trkpt lat="43.75608" lon="3.20232">
        <ele>617</ele>
        <time>2007-06-12T23:13:49Z</time>
      </trkpt>
      <trkpt lat="43.75689" lon="3.20231">
        <ele>601</ele>
        <time>2007-06-12T23:13:49Z</time>
      </trkpt>
      <trkpt lat="43.75772" lon="3.20322">
        <ele>596</ele>
        <time>2007-06-12T23:13:49Z</time>
      </trkpt>
      <trkpt lat="43.75771" lon="3.20446">
        <ele>602</ele>
        <time>2007-06-12T23:13:49Z</time>
      </trkpt>
      <trkpt lat="43.75823" lon="3.20523">
        <ele>598</ele>
        <time>2007-06-12T23:13:49Z</time>
      </trkpt>
      <trkpt lat="43.75865" lon="3.20697">
        <ele>610</ele>
        <time>2007-06-12T23:13:49Z</time>
      </trkpt>
      <trkpt lat="43.76064" lon="3.20546">
        <ele>558</ele>
        <time>2007-06-12T23:13:49Z</time>
      </trkpt>
      <trkpt lat="43.76161" lon="3.2063">
        <ele>565</ele>
        <time>2007-06-12T23:13:49Z</time>
      </trkpt>
      <trkpt lat="43.76187" lon="3.20748">
        <ele>549</ele>
        <time>2007-06-12T23:13:49Z</time>
      </trkpt>
      <trkpt lat="43.76156" lon="3.20875">
        <ele>578</ele>
        <time>2007-06-12T23:13:49Z</time>
      </trkpt>
      <trkpt lat="43.76226" lon="3.21">
        <ele>542</ele>
        <time>2007-06-12T23:13:49Z</time>
      </trkpt>
      <trkpt lat="43.7616" lon="3.21147">
        <ele>563</ele>
        <time>2007-06-12T23:13:49Z</time>
      </trkpt>
      <trkpt lat="43.76136" lon="3.2132">
        <ele>567</ele>
        <time>2007-06-12T23:13:49Z</time>
      </trkpt>
      <trkpt lat="43.76349" lon="3.21328">
        <ele>525</ele>
        <time>2007-06-12T23:13:49Z</time>
      </trkpt>
      <trkpt lat="43.76393" lon="3.21556">
        <ele>535</ele>
        <time>2007-06-12T23:13:49Z</time>
      </trkpt>
      <trkpt lat="43.76325" lon="3.21687">
        <ele>562</ele>
        <time>2007-06-12T23:13:49Z</time>
      </trkpt>
      <trkpt lat="43.76382" lon="3.21747">
        <ele>530</ele>
        <time>2007-06-12T23:13:49Z</time>
      </trkpt>
      <trkpt lat="43.76386" lon="3.21838">
        <ele>535</ele>
        <time>2007-06-12T23:13:49Z</time>
      </trkpt>
      <trkpt lat="43.76307" lon="3.22123">
        <ele>563</ele>
        <time>2007-06-12T23:13:49Z</time>
      </trkpt>
      <trkpt lat="43.76337" lon="3.22163">
        <ele>553</ele>
        <time>2007-06-12T23:13:49Z</time>
      </trkpt>
      <trkpt lat="43.76452" lon="3.22138">
        <ele>522</ele>
        <time>2007-06-12T23:13:49Z</time>
      </trkpt>
      <trkpt lat="43.76543" lon="3.22388">
        <ele>535</ele>
        <time>2007-06-12T23:13:49Z</time>
      </trkpt>
      <trkpt lat="43.76506" lon="3.22471">
        <ele>554</ele>
        <time>2007-06-12T23:13:49Z</time>
      </trkpt>
      <trkpt lat="43.7655" lon="3.22491">
        <ele>542</ele>
        <time>2007-06-12T23:13:49Z</time>
      </trkpt>
      <trkpt lat="43.76579" lon="3.2254">
        <ele>550</ele>
        <time>2007-06-12T23:13:49Z</time>
      </trkpt>
      <trkpt lat="43.76564" lon="3.22588">
        <ele>563</ele>
        <time>2007-06-12T23:13:49Z</time>
      </trkpt>
      <trkpt lat="43.7661" lon="3.22637">
        <ele>542</ele>
        <time>2007-06-12T23:13:49Z</time>
      </trkpt>
      <trkpt lat="43.76663" lon="3.22774">
        <ele>558</ele>
        <time>2007-06-12T23:13:49Z</time>
      </trkpt>
      <trkpt lat="43.76667" lon="3.22901">
        <ele>563</ele>
        <time>2007-06-12T23:13:49Z</time>
      </trkpt>
      <trkpt lat="43.76781" lon="3.22824">
        <ele>559</ele>
        <time>2007-06-12T23:13:49Z</time>
      </trkpt>
      <trkpt lat="43.76748" lon="3.22749">
        <ele>546</ele>
        <time>2007-06-12T23:13:49Z</time>
      </trkpt>
      <trkpt lat="43.7676" lon="3.22452">
        <ele>543</ele>
        <time>2007-06-12T23:13:49Z</time>
      </trkpt>
      <trkpt lat="43.7682" lon="3.22423">
        <ele>560</ele>
        <time>2007-06-12T23:13:49Z</time>
      </trkpt>
      <trkpt lat="43.76755" lon="3.22239">
        <ele>547</ele>
        <time>2007-06-12T23:13:49Z</time>
      </trkpt>
      <trkpt lat="43.76804" lon="3.22154">
        <ele>562</ele>
        <time>2007-06-12T23:13:49Z</time>
      </trkpt>
      <trkpt lat="43.76728" lon="3.22001">
        <ele>537</ele>
        <time>2007-06-12T23:13:49Z</time>
      </trkpt>
      <trkpt lat="43.76729" lon="3.21884">
        <ele>526</ele>
        <time>2007-06-12T23:13:49Z</time>
      </trkpt>
      <trkpt lat="43.76844" lon="3.21807">
        <ele>577</ele>
        <time>2007-06-12T23:13:49Z</time>
      </trkpt>
      <trkpt lat="43.76785" lon="3.21673">
        <ele>543</ele>
        <time>2007-06-12T23:13:49Z</time>
      </trkpt>
      <trkpt lat="43.76769" lon="3.21546">
        <ele>548</ele>
        <time>2007-06-12T23:13:49Z</time>
      </trkpt>
      <trkpt lat="43.76799" lon="3.21351">
        <ele>552</ele>
        <time>2007-06-12T23:13:49Z</time>
      </trkpt>
      <trkpt lat="43.76738" lon="3.21229">
        <ele>537</ele>
        <time>2007-06-12T23:13:49Z</time>
      </trkpt>
      <trkpt lat="43.7671" lon="3.21033">
        <ele>538</ele>
        <time>2007-06-12T23:13:49Z</time>
      </trkpt>
      <trkpt lat="43.76807" lon="3.20866">
        <ele>557</ele>
        <time>2007-06-12T23:13:49Z</time>
      </trkpt>
      <trkpt lat="43.76674" lon="3.20686">
        <ele>533</ele>
        <time>2007-06-12T23:13:49Z</time>
      </trkpt>
      <trkpt lat="43.76942" lon="3.20607">
        <ele>548</ele>
        <time>2007-06-12T23:13:49Z</time>
      </trkpt>
      <trkpt lat="43.77049" lon="3.20653">
        <ele>572</ele>
        <time>2007-06-12T23:13:49Z</time>
      </trkpt>
      <trkpt lat="43.77082" lon="3.20552">
        <ele>554</ele>
        <time>2007-06-12T23:13:49Z</time>
      </trkpt>
      <trkpt lat="43.77075" lon="3.20406">
        <ele>566</ele>
        <time>2007-06-12T23:13:49Z</time>
      </trkpt>
      <trkpt lat="43.77044" lon="3.20319">
        <ele>580</ele>
        <time>2007-06-12T23:13:49Z</time>
      </trkpt>
      <trkpt lat="43.76955" lon="3.20229">
        <ele>581</ele>
        <time>2007-06-12T23:13:49Z</time>
      </trkpt>
      <trkpt lat="43.76653" lon="3.2003">
        <ele>552</ele>
        <time>2007-06-12T23:13:49Z</time>
      </trkpt>
      <trkpt lat="43.76783" lon="3.2003">
        <ele>579</ele>
        <time>2007-06-12T23:13:49Z</time>
      </trkpt>
      <trkpt lat="43.76971" lon="3.19924">
        <ele>604</ele>
        <time>2007-06-12T23:13:49Z</time>
      </trkpt>
      <trkpt lat="43.77005" lon="3.19874">
        <ele>610</ele>
        <time>2007-06-12T23:13:49Z</time>
      </trkpt>
      <trkpt lat="43.7704" lon="3.19708">
        <ele>615</ele>
        <time>2007-06-12T23:13:49Z</time>
      </trkpt>
      <trkpt lat="43.77157" lon="3.19585">
        <ele>617</ele>
        <time>2007-06-12T23:13:49Z</time>
      </trkpt>
      <trkpt lat="43.77267" lon="3.19513">
        <ele>599</ele>
        <time>2007-06-12T23:13:49Z</time>
      </trkpt>
      <trkpt lat="43.77343" lon="3.19428">
        <ele>599</ele>
        <time>2007-06-12T23:13:49Z</time>
      </trkpt>
      <trkpt lat="43.77477" lon="3.19571">
        <ele>594</ele>
        <time>2007-06-12T23:13:49Z</time>
      </trkpt>
      <trkpt lat="43.77606" lon="3.195">
        <ele>568</ele>
        <time>2007-06-12T23:13:49Z</time>
      </trkpt>
      <trkpt lat="43.77722" lon="3.19562">
        <ele>556</ele>
        <time>2007-06-12T23:13:49Z</time>
      </trkpt>
      <trkpt lat="43.77802" lon="3.199">
        <ele>561</ele>
        <time>2007-06-12T23:13:49Z</time>
      </trkpt>
      <trkpt lat="43.77817" lon="3.19893">
        <ele>561</ele>
        <time>2007-06-12T23:13:49Z</time>
      </trkpt>
      <trkpt lat="43.77803" lon="3.19587">
        <ele>556</ele>
        <time>2007-06-12T23:13:49Z</time>
      </trkpt>
      <trkpt lat="43.77836" lon="3.19529">
        <ele>561</ele>
        <time>2007-06-12T23:13:49Z</time>
      </trkpt>
      <trkpt lat="43.77926" lon="3.19605">
        <ele>561</ele>
        <time>2007-06-12T23:13:49Z</time>
      </trkpt>
      <trkpt lat="43.77972" lon="3.1957">
        <ele>561</ele>
        <time>2007-06-12T23:13:49Z</time>
      </trkpt>
      <trkpt lat="43.78073" lon="3.19564">
        <ele>570</ele>
        <time>2007-06-12T23:13:49Z</time>
      </trkpt>
      <trkpt lat="43.78163" lon="3.19718">
        <ele>578</ele>
        <time>2007-06-12T23:13:49Z</time>
      </trkpt>
      <trkpt lat="43.7817" lon="3.19647">
        <ele>583</ele>
        <time>2007-06-12T23:13:49Z</time>
      </trkpt>
      <trkpt lat="43.78259" lon="3.1978">
        <ele>600</ele>
        <time>2007-06-12T23:13:49Z</time>
      </trkpt>
      <trkpt lat="43.78387" lon="3.19784">
        <ele>613</ele>
        <time>2007-06-12T23:13:49Z</time>
      </trkpt>
      <trkpt lat="43.78637" lon="3.20177">
        <ele>640</ele>
        <time>2007-06-12T23:13:49Z</time>
      </trkpt>
      <trkpt lat="43.78802" lon="3.20545">
        <ele>649</ele>
        <time>2007-06-12T23:13:49Z</time>
      </trkpt>
      <trkpt lat="43.78838" lon="3.20734">
        <ele>665</ele>
        <time>2007-06-12T23:13:49Z</time>
      </trkpt>
      <trkpt lat="43.78919" lon="3.20949">
        <ele>687</ele>
        <time>2007-06-12T23:13:49Z</time>
      </trkpt>
      <trkpt lat="43.78885" lon="3.21067">
        <ele>686</ele>
        <time>2007-06-12T23:13:49Z</time>
      </trkpt>
      <trkpt lat="43.789" lon="3.21137">
        <ele>688</ele>
        <time>2007-06-12T23:13:49Z</time>
      </trkpt>
      <trkpt lat="43.78862" lon="3.21271">
        <ele>695</ele>
        <time>2007-06-12T23:13:49Z</time>
      </trkpt>
      <trkpt lat="43.79038" lon="3.21501">
        <ele>673</ele>
        <time>2007-06-12T23:13:49Z</time>
      </trkpt>
      <trkpt lat="43.79041" lon="3.21577">
        <ele>673</ele>
        <time>2007-06-12T23:13:49Z</time>
      </trkpt>
      <trkpt lat="43.79143" lon="3.21742">
        <ele>649</ele>
        <time>2007-06-12T23:13:49Z</time>
      </trkpt>
      <trkpt lat="43.79176" lon="3.21871">
        <ele>651</ele>
        <time>2007-06-12T23:13:49Z</time>
      </trkpt>
      <trkpt lat="43.79324" lon="3.22175">
        <ele>656</ele>
        <time>2007-06-12T23:13:49Z</time>
      </trkpt>
      <trkpt lat="43.79333" lon="3.2223">
        <ele>662</ele>
        <time>2007-06-12T23:13:49Z</time>
      </trkpt>
      <trkpt lat="43.79315" lon="3.22275">
        <ele>673</ele>
        <time>2007-06-12T23:13:49Z</time>
      </trkpt>
      <trkpt lat="43.79375" lon="3.22377">
        <ele>652</ele>
        <time>2007-06-12T23:13:49Z</time>
      </trkpt>
      <trkpt lat="43.79353" lon="3.22752">
        <ele>674</ele>
        <time>2007-06-12T23:13:49Z</time>
      </trkpt>
      <trkpt lat="43.7938" lon="3.22787">
        <ele>681</ele>
        <time>2007-06-12T23:13:49Z</time>
      </trkpt>
      <trkpt lat="43.79368" lon="3.22914">
        <ele>693</ele>
        <time>2007-06-12T23:13:49Z</time>
      </trkpt>
      <trkpt lat="43.79262" lon="3.22997">
        <ele>696</ele>
        <time>2007-06-12T23:13:49Z</time>
      </trkpt>
      <trkpt lat="43.79237" lon="3.23051">
        <ele>714</ele>
        <time>2007-06-12T23:13:49Z</time>
      </trkpt>
      <trkpt lat="43.79139" lon="3.23077">
        <ele>714</ele>
        <time>2007-06-12T23:13:49Z</time>
      </trkpt>
      <trkpt lat="43.79078" lon="3.23158">
        <ele>728</ele>
        <time>2007-06-12T23:13:49Z</time>
      </trkpt>
      <trkpt lat="43.79001" lon="3.23585">
        <ele>746</ele>
        <time>2007-06-12T23:13:49Z</time>
      </trkpt>
      <trkpt lat="43.7891" lon="3.23744">
        <ele>777</ele>
        <time>2007-06-12T23:13:49Z</time>
      </trkpt>
      <trkpt lat="43.78949" lon="3.23777">
        <ele>774</ele>
        <time>2007-06-12T23:13:49Z</time>
      </trkpt>
      <trkpt lat="43.7885" lon="3.23865">
        <ele>799</ele>
        <time>2007-06-12T23:13:49Z</time>
      </trkpt>
      <trkpt lat="43.78904" lon="3.23898">
        <ele>801</ele>
        <time>2007-06-12T23:13:49Z</time>
      </trkpt>
      <trkpt lat="43.78724" lon="3.24085">
        <ele>818</ele>
        <time>2007-06-12T23:13:49Z</time>
      </trkpt>
      <trkpt lat="43.78702" lon="3.24174">
        <ele>821</ele>
        <time>2007-06-12T23:13:49Z</time>
      </trkpt>
      <trkpt lat="43.78716" lon="3.24295">
        <ele>822</ele>
        <time>2007-06-12T23:13:49Z</time>
      </trkpt>
      <trkpt lat="43.78746" lon="3.24333">
        <ele>822</ele>
        <time>2007-06-12T23:13:49Z</time>
      </trkpt>
      <trkpt lat="43.78893" lon="3.24355">
        <ele>815</ele>
        <time>2007-06-12T23:13:49Z</time>
      </trkpt>
      <trkpt lat="43.79037" lon="3.24441">
        <ele>810</ele>
        <time>2007-06-12T23:13:49Z</time>
      </trkpt>
      <trkpt lat="43.79196" lon="3.2434">
        <ele>816</ele>
        <time>2007-06-12T23:13:49Z</time>
      </trkpt>
      <trkpt lat="43.79248" lon="3.24272">
        <ele>818</ele>
        <time>2007-06-12T23:13:49Z</time>
      </trkpt>
      <trkpt lat="43.79626" lon="3.24186">
        <ele>832</ele>
        <time>2007-06-12T23:13:49Z</time>
      </trkpt>
      <trkpt lat="43.79597" lon="3.24434">
        <ele>844</ele>
        <time>2007-06-12T23:13:49Z</time>
      </trkpt>
      <trkpt lat="43.79444" lon="3.24762">
        <ele>837</ele>
        <time>2007-06-12T23:13:49Z</time>
      </trkpt>
      <trkpt lat="43.79401" lon="3.24945">
        <ele>826</ele>
        <time>2007-06-12T23:13:49Z</time>
      </trkpt>
      <trkpt lat="43.79716" lon="3.24954">
        <ele>802</ele>
        <time>2007-06-12T23:13:49Z</time>
      </trkpt>
      <trkpt lat="43.80042" lon="3.25092">
        <ele>769</ele>
        <time>2007-06-12T23:13:49Z</time>
      </trkpt>
      <trkpt lat="43.80233" lon="3.25119">
        <ele>759</ele>
        <time>2007-06-12T23:13:49Z</time>
      </trkpt>
      <trkpt lat="43.80327" lon="3.25283">
        <ele>749</ele>
        <time>2007-06-12T23:13:49Z</time>
      </trkpt>
      <trkpt lat="43.80357" lon="3.25481">
        <ele>743</ele>
        <time>2007-06-12T23:13:49Z</time>
      </trkpt>
      <trkpt lat="43.80394" lon="3.25512">
        <ele>739</ele>
        <time>2007-06-12T23:13:49Z</time>
      </trkpt>
      <trkpt lat="43.80436" lon="3.25509">
        <ele>740</ele>
        <time>2007-06-12T23:13:49Z</time>
      </trkpt>
      <trkpt lat="43.80483" lon="3.25604">
        <ele>736</ele>
        <time>2007-06-12T23:13:49Z</time>
      </trkpt>
      <trkpt lat="43.80566" lon="3.25611">
        <ele>740</ele>
        <time>2007-06-12T23:13:49Z</time>
      </trkpt>
      <trkpt lat="43.80545" lon="3.25716">
        <ele>740</ele>
        <time>2007-06-12T23:13:49Z</time>
      </trkpt>
      <trkpt lat="43.80575" lon="3.2583">
        <ele>741</ele>
        <time>2007-06-12T23:13:49Z</time>
      </trkpt>
      <trkpt lat="43.808" lon="3.26025">
        <ele>732</ele>
        <time>2007-06-12T23:13:49Z</time>
      </trkpt>
      <trkpt lat="43.8077" lon="3.26212">
        <ele>739</ele>
        <time>2007-06-12T23:13:49Z</time>
      </trkpt>
      <trkpt lat="43.80655" lon="3.26272">
        <ele>738</ele>
        <time>2007-06-12T23:13:49Z</time>
      </trkpt>
      <trkpt lat="43.80663" lon="3.26323">
        <ele>738</ele>
        <time>2007-06-12T23:13:49Z</time>
      </trkpt>
      <trkpt lat="43.80781" lon="3.26311">
        <ele>740</ele>
        <time>2007-06-12T23:13:49Z</time>
      </trkpt>
      <trkpt lat="43.80701" lon="3.26391">
        <ele>735</ele>
        <time>2007-06-12T23:13:49Z</time>
      </trkpt>
      <trkpt lat="43.80683" lon="3.26514">
        <ele>729</ele>
        <time>2007-06-12T23:13:49Z</time>
      </trkpt>
      <trkpt lat="43.80698" lon="3.26599">
        <ele>726</ele>
        <time>2007-06-12T23:13:49Z</time>
      </trkpt>
      <trkpt lat="43.80677" lon="3.26654">
        <ele>725</ele>
        <time>2007-06-12T23:13:49Z</time>
      </trkpt>
      <trkpt lat="43.80683" lon="3.26696">
        <ele>723</ele>
        <time>2007-06-12T23:13:49Z</time>
      </trkpt>
      <trkpt lat="43.80758" lon="3.26726">
        <ele>726</ele>
        <time>2007-06-12T23:13:49Z</time>
      </trkpt>
      <trkpt lat="43.80722" lon="3.26804">
        <ele>719</ele>
        <time>2007-06-12T23:13:49Z</time>
      </trkpt>
      <trkpt lat="43.80758" lon="3.26849">
        <ele>725</ele>
        <time>2007-06-12T23:13:49Z</time>
      </trkpt>
      <trkpt lat="43.80851" lon="3.2687">
        <ele>732</ele>
        <time>2007-06-12T23:13:49Z</time>
      </trkpt>
      <trkpt lat="43.80925" lon="3.26845">
        <ele>736</ele>
        <time>2007-06-12T23:13:49Z</time>
      </trkpt>
      <trkpt lat="43.81139" lon="3.26936">
        <ele>734</ele>
        <time>2007-06-12T23:13:49Z</time>
      </trkpt>
      <trkpt lat="43.81251" lon="3.26951">
        <ele>730</ele>
        <time>2007-06-12T23:13:49Z</time>
      </trkpt>
      <trkpt lat="43.8166" lon="3.26866">
        <ele>731</ele>
        <time>2007-06-12T23:13:49Z</time>
      </trkpt>
      <trkpt lat="43.81874" lon="3.26899">
        <ele>715</ele>
        <time>2007-06-12T23:13:49Z</time>
      </trkpt>
      <trkpt lat="43.81949" lon="3.26835">
        <ele>713</ele>
        <time>2007-06-12T23:13:49Z</time>
      </trkpt>
      <trkpt lat="43.81992" lon="3.26717">
        <ele>713</ele>
        <time>2007-06-12T23:13:49Z</time>
      </trkpt>
      <trkpt lat="43.81974" lon="3.26542">
        <ele>707</ele>
        <time>2007-06-12T23:13:49Z</time>
      </trkpt>
      <trkpt lat="43.82021" lon="3.26417">
        <ele>704</ele>
        <time>2007-06-12T23:13:49Z</time>
      </trkpt>
      <trkpt lat="43.82103" lon="3.26459">
        <ele>701</ele>
        <time>2007-06-12T23:13:49Z</time>
      </trkpt>
      <trkpt lat="43.82182" lon="3.26437">
        <ele>699</ele>
        <time>2007-06-12T23:13:49Z</time>
      </trkpt>
      <trkpt lat="43.82244" lon="3.26498">
        <ele>698</ele>
        <time>2007-06-12T23:13:49Z</time>
      </trkpt>
      <trkpt lat="43.82309" lon="3.26435">
        <ele>699</ele>
        <time>2007-06-12T23:13:49Z</time>
      </trkpt>
      <trkpt lat="43.82465" lon="3.26367">
        <ele>702</ele>
        <time>2007-06-12T23:13:49Z</time>
      </trkpt>
      <trkpt lat="43.827" lon="3.26621">
        <ele>708</ele>
        <time>2007-06-12T23:13:49Z</time>
      </trkpt>
      <trkpt lat="43.83098" lon="3.27225">
        <ele>701</ele>
        <time>2007-06-12T23:13:49Z</time>
      </trkpt>
      <trkpt lat="43.83074" lon="3.27313">
        <ele>700</ele>
        <time>2007-06-12T23:13:49Z</time>
      </trkpt>
      <trkpt lat="43.83083" lon="3.27349">
        <ele>699</ele>
        <time>2007-06-12T23:13:49Z</time>
      </trkpt>
      <trkpt lat="43.83292" lon="3.27563">
        <ele>691</ele>
        <time>2007-06-12T23:13:49Z</time>
      </trkpt>
      <trkpt lat="43.83343" lon="3.27586">
        <ele>688</ele>
        <time>2007-06-12T23:13:49Z</time>
      </trkpt>
      <trkpt lat="43.83511" lon="3.27787">
        <ele>681</ele>
        <time>2007-06-12T23:13:49Z</time>
      </trkpt>
      <trkpt lat="43.83569" lon="3.27797">
        <ele>681</ele>
        <time>2007-06-12T23:13:49Z</time>
      </trkpt>
      <trkpt lat="43.83646" lon="3.27767">
        <ele>681</ele>
        <time>2007-06-12T23:13:49Z</time>
      </trkpt>
      <trkpt lat="43.83736" lon="3.2781">
        <ele>681</ele>
        <time>2007-06-12T23:13:49Z</time>
      </trkpt>
      <trkpt lat="43.83899" lon="3.27825">
        <ele>685</ele>
        <time>2007-06-12T23:13:49Z</time>
      </trkpt>
      <trkpt lat="43.83951" lon="3.27799">
        <ele>686</ele>
        <time>2007-06-12T23:13:49Z</time>
      </trkpt>
      <trkpt lat="43.83977" lon="3.27898">
        <ele>687</ele>
        <time>2007-06-12T23:13:49Z</time>
      </trkpt>
      <trkpt lat="43.84007" lon="3.27882">
        <ele>689</ele>
        <time>2007-06-12T23:13:49Z</time>
      </trkpt>
      <trkpt lat="43.84201" lon="3.27926">
        <ele>694</ele>
        <time>2007-06-12T23:13:49Z</time>
      </trkpt>
      <trkpt lat="43.84246" lon="3.28155">
        <ele>695</ele>
        <time>2007-06-12T23:13:49Z</time>
      </trkpt>
      <trkpt lat="43.84317" lon="3.28308">
        <ele>696</ele>
        <time>2007-06-12T23:13:49Z</time>
      </trkpt>
      <trkpt lat="43.84569" lon="3.28463">
        <ele>717</ele>
        <time>2007-06-12T23:13:49Z</time>
      </trkpt>
      <trkpt lat="43.84708" lon="3.28587">
        <ele>736</ele>
        <time>2007-06-12T23:13:49Z</time>
      </trkpt>
      <trkpt lat="43.84742" lon="3.2865">
        <ele>740</ele>
        <time>2007-06-12T23:13:49Z</time>
      </trkpt>
      <trkpt lat="43.84863" lon="3.2866">
        <ele>750</ele>
        <time>2007-06-12T23:13:49Z</time>
      </trkpt>
      <trkpt lat="43.85198" lon="3.28589">
        <ele>738</ele>
        <time>2007-06-12T23:13:49Z</time>
      </trkpt>
      <trkpt lat="43.85246" lon="3.28675">
        <ele>737</ele>
        <time>2007-06-12T23:13:49Z</time>
      </trkpt>
      <trkpt lat="43.85336" lon="3.28945">
        <ele>739</ele>
        <time>2007-06-12T23:13:49Z</time>
      </trkpt>
      <trkpt lat="43.85476" lon="3.29488">
        <ele>740</ele>
        <time>2007-06-12T23:13:49Z</time>
      </trkpt>
      <trkpt lat="43.85558" lon="3.29661">
        <ele>741</ele>
        <time>2007-06-12T23:13:49Z</time>
      </trkpt>
      <trkpt lat="43.85711" lon="3.30244">
        <ele>746</ele>
        <time>2007-06-12T23:13:49Z</time>
      </trkpt>
      <trkpt lat="43.85764" lon="3.30367">
        <ele>738</ele>
        <time>2007-06-12T23:13:49Z</time>
      </trkpt>
      <trkpt lat="43.85787" lon="3.30494">
        <ele>738</ele>
        <time>2007-06-12T23:13:49Z</time>
      </trkpt>
      <trkpt lat="43.85913" lon="3.30649">
        <ele>742</ele>
        <time>2007-06-12T23:13:49Z</time>
      </trkpt>
      <trkpt lat="43.86025" lon="3.30729">
        <ele>742</ele>
        <time>2007-06-12T23:13:49Z</time>
      </trkpt>
      <trkpt lat="43.86057" lon="3.30813">
        <ele>742</ele>
        <time>2007-06-12T23:13:49Z</time>
      </trkpt>
      <trkpt lat="43.86078" lon="3.30982">
        <ele>739</ele>
        <time>2007-06-12T23:13:49Z</time>
      </trkpt>
      <trkpt lat="43.85963" lon="3.30965">
        <ele>738</ele>
        <time>2007-06-12T23:13:49Z</time>
      </trkpt>
      <trkpt lat="43.85948" lon="3.31054">
        <ele>737</ele>
        <time>2007-06-12T23:13:49Z</time>
      </trkpt>
      <trkpt lat="43.86042" lon="3.31069">
        <ele>738</ele>
        <time>2007-06-12T23:13:49Z</time>
      </trkpt>
      <trkpt lat="43.86131" lon="3.3126">
        <ele>734</ele>
        <time>2007-06-12T23:13:49Z</time>
      </trkpt>
      <trkpt lat="43.86172" lon="3.31282">
        <ele>735</ele>
        <time>2007-06-12T23:13:49Z</time>
      </trkpt>
      <trkpt lat="43.86223" lon="3.31362">
        <ele>736</ele>
        <time>2007-06-12T23:13:49Z</time>
      </trkpt>
      <trkpt lat="43.86212" lon="3.31486">
        <ele>738</ele>
        <time>2007-06-12T23:13:49Z</time>
      </trkpt>
      <trkpt lat="43.86249" lon="3.31549">
        <ele>741</ele>
        <time>2007-06-12T23:13:49Z</time>
      </trkpt>
      <trkpt lat="43.86241" lon="3.31635">
        <ele>743</ele>
        <time>2007-06-12T23:13:49Z</time>
      </trkpt>
      <trkpt lat="43.86342" lon="3.3171">
        <ele>745</ele>
        <time>2007-06-12T23:13:49Z</time>
      </trkpt>
      <trkpt lat="43.86398" lon="3.31827">
        <ele>751</ele>
        <time>2007-06-12T23:13:49Z</time>
      </trkpt>
      <trkpt lat="43.86377" lon="3.31823">
        <ele>750</ele>
        <time>2007-06-12T23:13:49Z</time>
      </trkpt>
      <trkpt lat="43.86253" lon="3.31949">
        <ele>747</ele>
        <time>2007-06-12T23:13:49Z</time>
      </trkpt>
      <trkpt lat="43.86299" lon="3.31962">
        <ele>749</ele>
        <time>2007-06-12T23:13:49Z</time>
      </trkpt>
      <trkpt lat="43.86311" lon="3.32078">
        <ele>749</ele>
        <time>2007-06-12T23:13:49Z</time>
      </trkpt>
      <trkpt lat="43.86423" lon="3.32327">
        <ele>732</ele>
        <time>2007-06-12T23:13:49Z</time>
      </trkpt>
      <trkpt lat="43.86415" lon="3.32422">
        <ele>734</ele>
        <time>2007-06-12T23:13:49Z</time>
      </trkpt>
      <trkpt lat="43.86462" lon="3.32549">
        <ele>734</ele>
        <time>2007-06-12T23:13:49Z</time>
      </trkpt>
      <trkpt lat="43.86418" lon="3.32622">
        <ele>734</ele>
        <time>2007-06-12T23:13:49Z</time>
      </trkpt>
      <trkpt lat="43.86457" lon="3.32581">
        <ele>734</ele>
        <time>2007-06-12T23:13:49Z</time>
      </trkpt>
      <trkpt lat="43.86324" lon="3.32721">
        <ele>736</ele>
        <time>2007-06-12T23:13:49Z</time>
      </trkpt>
      <trkpt lat="43.86348" lon="3.32777">
        <ele>736</ele>
        <time>2007-06-12T23:13:49Z</time>
      </trkpt>
      <trkpt lat="43.86331" lon="3.32859">
        <ele>735</ele>
        <time>2007-06-12T23:13:49Z</time>
      </trkpt>
      <trkpt lat="43.86346" lon="3.3296">
        <ele>735</ele>
        <time>2007-06-12T23:13:49Z</time>
      </trkpt>
      <trkpt lat="43.86402" lon="3.33081">
        <ele>737</ele>
        <time>2007-06-12T23:13:49Z</time>
      </trkpt>
      <trkpt lat="43.86438" lon="3.33112">
        <ele>737</ele>
        <time>2007-06-12T23:13:49Z</time>
      </trkpt>
      <trkpt lat="43.86418" lon="3.33377">
        <ele>735</ele>
        <time>2007-06-12T23:13:49Z</time>
      </trkpt>
      <trkpt lat="43.86448" lon="3.33547">
        <ele>735</ele>
        <time>2007-06-12T23:13:49Z</time>
      </trkpt>
      <trkpt lat="43.86433" lon="3.33648">
        <ele>734</ele>
        <time>2007-06-12T23:13:49Z</time>
      </trkpt>
      <trkpt lat="43.86462" lon="3.33772">
        <ele>734</ele>
        <time>2007-06-12T23:13:49Z</time>
      </trkpt>
      <trkpt lat="43.86699" lon="3.3405">
        <ele>735</ele>
        <time>2007-06-12T23:13:49Z</time>
      </trkpt>
      <trkpt lat="43.86724" lon="3.34205">
        <ele>744</ele>
        <time>2007-06-12T23:13:49Z</time>
      </trkpt>
      <trkpt lat="43.86808" lon="3.34402">
        <ele>746</ele>
        <time>2007-06-12T23:13:49Z</time>
      </trkpt>
      <trkpt lat="43.86815" lon="3.34522">
        <ele>740</ele>
        <time>2007-06-12T23:13:49Z</time>
      </trkpt>
      <trkpt lat="43.8678" lon="3.34641">
        <ele>731</ele>
        <time>2007-06-12T23:13:49Z</time>
      </trkpt>
      <trkpt lat="43.86702" lon="3.34751">
        <ele>720</ele>
        <time>2007-06-12T23:13:49Z</time>
      </trkpt>
      <trkpt lat="43.86718" lon="3.34953">
        <ele>714</ele>
        <time>2007-06-12T23:13:49Z</time>
      </trkpt>
      <trkpt lat="43.86835" lon="3.35241">
        <ele>713</ele>
        <time>2007-06-12T23:13:49Z</time>
      </trkpt>
      <trkpt lat="43.86893" lon="3.35468">
        <ele>714</ele>
        <time>2007-06-12T23:13:49Z</time>
      </trkpt>
      <trkpt lat="43.86866" lon="3.35563">
        <ele>714</ele>
        <time>2007-06-12T23:13:49Z</time>
      </trkpt>
      <trkpt lat="43.86874" lon="3.35616">
        <ele>714</ele>
        <time>2007-06-12T23:13:49Z</time>
      </trkpt>
      <trkpt lat="43.86815" lon="3.35976">
        <ele>719</ele>
        <time>2007-06-12T23:13:49Z</time>
      </trkpt>
      <trkpt lat="43.86771" lon="3.3605">
        <ele>719</ele>
        <time>2007-06-12T23:13:49Z</time>
      </trkpt>
      <trkpt lat="43.86798" lon="3.36261">
        <ele>712</ele>
        <time>2007-06-12T23:13:49Z</time>
      </trkpt>
      <trkpt lat="43.86871" lon="3.36354">
        <ele>709</ele>
        <time>2007-06-12T23:13:49Z</time>
      </trkpt>
      <trkpt lat="43.86887" lon="3.36427">
        <ele>711</ele>
        <time>2007-06-12T23:13:49Z</time>
      </trkpt>
      <trkpt lat="43.86766" lon="3.36476">
        <ele>711</ele>
        <time>2007-06-12T23:13:49Z</time>
      </trkpt>
      <trkpt lat="43.86543" lon="3.36827">
        <ele>713</ele>
        <time>2007-06-12T23:13:49Z</time>
      </trkpt>
      <trkpt lat="43.86537" lon="3.36961">
        <ele>715</ele>
        <time>2007-06-12T23:13:49Z</time>
      </trkpt>
      <trkpt lat="43.86485" lon="3.3713">
        <ele>712</ele>
        <time>2007-06-12T23:13:49Z</time>
      </trkpt>
      <trkpt lat="43.86455" lon="3.37334">
        <ele>714</ele>
        <time>2007-06-12T23:13:49Z</time>
      </trkpt>
      <trkpt lat="43.86387" lon="3.37437">
        <ele>713</ele>
        <time>2007-06-12T23:13:49Z</time>
      </trkpt>
      <trkpt lat="43.86397" lon="3.37523">
        <ele>710</ele>
        <time>2007-06-12T23:13:49Z</time>
      </trkpt>
      <trkpt lat="43.86321" lon="3.37794">
        <ele>707</ele>
        <time>2007-06-12T23:13:49Z</time>
      </trkpt>
      <trkpt lat="43.8616" lon="3.37895">
        <ele>709</ele>
        <time>2007-06-12T23:13:49Z</time>
      </trkpt>
      <trkpt lat="43.86048" lon="3.38009">
        <ele>719</ele>
        <time>2007-06-12T23:13:49Z</time>
      </trkpt>
      <trkpt lat="43.86016" lon="3.38074">
        <ele>725</ele>
        <time>2007-06-12T23:13:49Z</time>
      </trkpt>
      <trkpt lat="43.86028" lon="3.38108">
        <ele>727</ele>
        <time>2007-06-12T23:13:49Z</time>
      </trkpt>
      <trkpt lat="43.86009" lon="3.38132">
        <ele>730</ele>
        <time>2007-06-12T23:13:49Z</time>
      </trkpt>
      <trkpt lat="43.85896" lon="3.381">
        <ele>751</ele>
        <time>2007-06-12T23:13:49Z</time>
      </trkpt>
      <trkpt lat="43.85873" lon="3.37994">
        <ele>748</ele>
        <time>2007-06-12T23:13:49Z</time>
      </trkpt>
      <trkpt lat="43.85805" lon="3.37849">
        <ele>761</ele>
        <time>2007-06-12T23:13:49Z</time>
      </trkpt>
      <trkpt lat="43.85784" lon="3.37908">
        <ele>763</ele>
        <time>2007-06-12T23:13:49Z</time>
      </trkpt>
      <trkpt lat="43.85784" lon="3.38053">
        <ele>767</ele>
        <time>2007-06-12T23:13:49Z</time>
      </trkpt>
      <trkpt lat="43.85579" lon="3.38251">
        <ele>778</ele>
        <time>2007-06-12T23:13:49Z</time>
      </trkpt>
      <trkpt lat="43.85515" lon="3.38375">
        <ele>780</ele>
        <time>2007-06-12T23:13:49Z</time>
      </trkpt>
      <trkpt lat="43.85468" lon="3.3842">
        <ele>774</ele>
        <time>2007-06-12T23:13:49Z</time>
      </trkpt>
      <trkpt lat="43.8545" lon="3.38494">
        <ele>773</ele>
        <time>2007-06-12T23:13:49Z</time>
      </trkpt>
      <trkpt lat="43.85282" lon="3.38805">
        <ele>767</ele>
        <time>2007-06-12T23:13:49Z</time>
      </trkpt>
      <trkpt lat="43.85304" lon="3.38966">
        <ele>768</ele>
        <time>2007-06-12T23:13:49Z</time>
      </trkpt>
      <trkpt lat="43.85324" lon="3.38967">
        <ele>768</ele>
        <time>2007-06-12T23:13:49Z</time>
      </trkpt>
      <trkpt lat="43.8534" lon="3.39028">
        <ele>771</ele>
        <time>2007-06-12T23:13:49Z</time>
      </trkpt>
      <trkpt lat="43.85286" lon="3.39233">
        <ele>758</ele>
        <time>2007-06-12T23:13:49Z</time>
      </trkpt>
      <trkpt lat="43.85174" lon="3.39474">
        <ele>761</ele>
        <time>2007-06-12T23:13:49Z</time>
      </trkpt>
      <trkpt lat="43.85013" lon="3.39666">
        <ele>763</ele>
        <time>2007-06-12T23:13:49Z</time>
      </trkpt>
      <trkpt lat="43.84979" lon="3.39859">
        <ele>766</ele>
        <time>2007-06-12T23:13:49Z</time>
      </trkpt>
      <trkpt lat="43.8493" lon="3.39903">
        <ele>766</ele>
        <time>2007-06-12T23:13:49Z</time>
      </trkpt>
      <trkpt lat="43.84903" lon="3.40035">
        <ele>764</ele>
        <time>2007-06-12T23:13:49Z</time>
      </trkpt>
      <trkpt lat="43.84739" lon="3.40302">
        <ele>743</ele>
        <time>2007-06-12T23:13:49Z</time>
      </trkpt>
      <trkpt lat="43.8473" lon="3.40408">
        <ele>738</ele>
        <time>2007-06-12T23:13:49Z</time>
      </trkpt>
      <trkpt lat="43.84613" lon="3.40638">
        <ele>724</ele>
        <time>2007-06-12T23:13:49Z</time>
      </trkpt>
      <trkpt lat="43.8463" lon="3.40744">
        <ele>717</ele>
        <time>2007-06-12T23:13:49Z</time>
      </trkpt>
      <trkpt lat="43.84622" lon="3.4095">
        <ele>706</ele>
        <time>2007-06-12T23:13:49Z</time>
      </trkpt>
      <trkpt lat="43.84547" lon="3.4111">
        <ele>695</ele>
        <time>2007-06-12T23:13:49Z</time>
      </trkpt>
      <trkpt lat="43.84451" lon="3.41176">
        <ele>685</ele>
        <time>2007-06-12T23:13:49Z</time>
      </trkpt>
      <trkpt lat="43.84307" lon="3.41392">
        <ele>678</ele>
        <time>2007-06-12T23:13:49Z</time>
      </trkpt>
      <trkpt lat="43.84173" lon="3.41502">
        <ele>678</ele>
        <time>2007-06-12T23:13:49Z</time>
      </trkpt>
      <trkpt lat="43.8404" lon="3.41774">
        <ele>677</ele>
        <time>2007-06-12T23:13:49Z</time>
      </trkpt>
      <trkpt lat="43.83919" lon="3.41946">
        <ele>680</ele>
        <time>2007-06-12T23:13:49Z</time>
      </trkpt>
      <trkpt lat="43.83897" lon="3.42077">
        <ele>683</ele>
        <time>2007-06-12T23:13:49Z</time>
      </trkpt>
      <trkpt lat="43.83745" lon="3.42294">
        <ele>685</ele>
        <time>2007-06-12T23:13:49Z</time>
      </trkpt>
      <trkpt lat="43.83675" lon="3.42493">
        <ele>670</ele>
        <time>2007-06-12T23:13:49Z</time>
      </trkpt>
      <trkpt lat="43.8364" lon="3.42759">
        <ele>669</ele>
        <time>2007-06-12T23:13:49Z</time>
      </trkpt>
      <trkpt lat="43.83609" lon="3.42789">
        <ele>670</ele>
        <time>2007-06-12T23:13:49Z</time>
      </trkpt>
      <trkpt lat="43.83585" lon="3.42898">
        <ele>674</ele>
        <time>2007-06-12T23:13:49Z</time>
      </trkpt>
      <trkpt lat="43.83621" lon="3.43042">
        <ele>681</ele>
        <time>2007-06-12T23:13:49Z</time>
      </trkpt>
      <trkpt lat="43.83581" lon="3.43154">
        <ele>684</ele>
        <time>2007-06-12T23:13:49Z</time>
      </trkpt>
      <trkpt lat="43.83513" lon="3.43225">
        <ele>691</ele>
        <time>2007-06-12T23:13:49Z</time>
      </trkpt>
      <trkpt lat="43.83386" lon="3.43267">
        <ele>695</ele>
        <time>2007-06-12T23:13:49Z</time>
      </trkpt>
      <trkpt lat="43.83303" lon="3.43238">
        <ele>696</ele>
        <time>2007-06-12T23:13:49Z</time>
      </trkpt>
      <trkpt lat="43.83208" lon="3.43135">
        <ele>684</ele>
        <time>2007-06-12T23:13:49Z</time>
      </trkpt>
      <trkpt lat="43.83138" lon="3.43126">
        <ele>679</ele>
        <time>2007-06-12T23:13:49Z</time>
      </trkpt>
      <trkpt lat="43.82969" lon="3.43208">
        <ele>665</ele>
        <time>2007-06-12T23:13:49Z</time>
      </trkpt>
      <trkpt lat="43.82827" lon="3.4318">
        <ele>659</ele>
        <time>2007-06-12T23:13:49Z</time>
      </trkpt>
      <trkpt lat="43.82497" lon="3.43223">
        <ele>655</ele>
        <time>2007-06-12T23:13:49Z</time>
      </trkpt>
      <trkpt lat="43.82446" lon="3.43263">
        <ele>655</ele>
        <time>2007-06-12T23:13:49Z</time>
      </trkpt>
      <trkpt lat="43.82364" lon="3.43279">
        <ele>655</ele>
        <time>2007-06-12T23:13:49Z</time>
      </trkpt>
      <trkpt lat="43.82184" lon="3.43394">
        <ele>652</ele>
        <time>2007-06-12T23:13:49Z</time>
      </trkpt>
      <trkpt lat="43.81826" lon="3.43122">
        <ele>651</ele>
        <time>2007-06-12T23:13:49Z</time>
      </trkpt>
      <trkpt lat="43.81739" lon="3.43096">
        <ele>651</ele>
        <time>2007-06-12T23:13:49Z</time>
      </trkpt>
      <trkpt lat="43.81634" lon="3.43017">
        <ele>650</ele>
        <time>2007-06-12T23:13:49Z</time>
      </trkpt>
      <trkpt lat="43.81367" lon="3.42909">
        <ele>652</ele>
        <time>2007-06-12T23:13:49Z</time>
      </trkpt>
      <trkpt lat="43.81155" lon="3.42786">
        <ele>662</ele>
        <time>2007-06-12T23:13:49Z</time>
      </trkpt>
      <trkpt lat="43.81036" lon="3.42538">
        <ele>664</ele>
        <time>2007-06-12T23:13:49Z</time>
      </trkpt>
      <trkpt lat="43.80901" lon="3.4232">
        <ele>667</ele>
        <time>2007-06-12T23:13:49Z</time>
      </trkpt>
      <trkpt lat="43.80844" lon="3.42185">
        <ele>664</ele>
        <time>2007-06-12T23:13:49Z</time>
      </trkpt>
      <trkpt lat="43.80483" lon="3.42276">
        <ele>648</ele>
        <time>2007-06-12T23:13:49Z</time>
      </trkpt>
      <trkpt lat="43.804" lon="3.42209">
        <ele>645</ele>
        <time>2007-06-12T23:13:49Z</time>
      </trkpt>
      <trkpt lat="43.80163" lon="3.42254">
        <ele>639</ele>
        <time>2007-06-12T23:13:49Z</time>
      </trkpt>
      <trkpt lat="43.80091" lon="3.42232">
        <ele>638</ele>
        <time>2007-06-12T23:13:49Z</time>
      </trkpt>
      <trkpt lat="43.7985" lon="3.42387">
        <ele>635</ele>
        <time>2007-06-12T23:13:49Z</time>
      </trkpt>
      <trkpt lat="43.79725" lon="3.42365">
        <ele>632</ele>
        <time>2007-06-12T23:13:49Z</time>
      </trkpt>
      <trkpt lat="43.79629" lon="3.42509">
        <ele>629</ele>
        <time>2007-06-12T23:13:49Z</time>
      </trkpt>
      <trkpt lat="43.79478" lon="3.42456">
        <ele>627</ele>
        <time>2007-06-12T23:13:49Z</time>
      </trkpt>
      <trkpt lat="43.79351" lon="3.42633">
        <ele>626</ele>
        <time>2007-06-12T23:13:49Z</time>
      </trkpt>
      <trkpt lat="43.79351" lon="3.42665">
        <ele>626</ele>
        <time>2007-06-12T23:13:49Z</time>
      </trkpt>
      <trkpt lat="43.79121" lon="3.42891">
        <ele>623</ele>
        <time>2007-06-12T23:13:49Z</time>
      </trkpt>
      <trkpt lat="43.78957" lon="3.43001">
        <ele>629</ele>
        <time>2007-06-12T23:13:49Z</time>
      </trkpt>
      <trkpt lat="43.78598" lon="3.43692">
        <ele>685</ele>
        <time>2007-06-12T23:13:49Z</time>
      </trkpt>
      <trkpt lat="43.78373" lon="3.4379">
        <ele>705</ele>
        <time>2007-06-12T23:13:49Z</time>
      </trkpt>
      <trkpt lat="43.78284" lon="3.43875">
        <ele>709</ele>
        <time>2007-06-12T23:13:49Z</time>
      </trkpt>
      <trkpt lat="43.78202" lon="3.43905">
        <ele>711</ele>
        <time>2007-06-12T23:13:49Z</time>
      </trkpt>
      <trkpt lat="43.78173" lon="3.43969">
        <ele>713</ele>
        <time>2007-06-12T23:13:49Z</time>
      </trkpt>
      <trkpt lat="43.77948" lon="3.44">
        <ele>728</ele>
        <time>2007-06-12T23:13:49Z</time>
      </trkpt>
      <trkpt lat="43.77945" lon="3.44023">
        <ele>737</ele>
        <time>2007-06-12T23:13:49Z</time>
      </trkpt>
      <trkpt lat="43.77982" lon="3.44056">
        <ele>737</ele>
        <time>2007-06-12T23:13:49Z</time>
      </trkpt>
      <trkpt lat="43.77855" lon="3.44118">
        <ele>755</ele>
        <time>2007-06-12T23:13:49Z</time>
      </trkpt>
      <trkpt lat="43.77747" lon="3.44088">
        <ele>763</ele>
        <time>2007-06-12T23:13:49Z</time>
      </trkpt>
      <trkpt lat="43.77618" lon="3.44156">
        <ele>772</ele>
        <time>2007-06-12T23:13:49Z</time>
      </trkpt>
      <trkpt lat="43.77561" lon="3.44257">
        <ele>773</ele>
        <time>2007-06-12T23:13:49Z</time>
      </trkpt>
      <trkpt lat="43.77554" lon="3.44349">
        <ele>774</ele>
        <time>2007-06-12T23:13:49Z</time>
      </trkpt>
      <trkpt lat="43.77522" lon="3.44435">
        <ele>774</ele>
        <time>2007-06-12T23:13:49Z</time>
      </trkpt>
      <trkpt lat="43.77508" lon="3.44627">
        <ele>774</ele>
        <time>2007-06-12T23:13:49Z</time>
      </trkpt>
      <trkpt lat="43.77457" lon="3.44808">
        <ele>772</ele>
        <time>2007-06-12T23:13:49Z</time>
      </trkpt>
      <trkpt lat="43.77474" lon="3.44899">
        <ele>771</ele>
        <time>2007-06-12T23:13:49Z</time>
      </trkpt>
      <trkpt lat="43.77448" lon="3.45046">
        <ele>761</ele>
        <time>2007-06-12T23:13:49Z</time>
      </trkpt>
      <trkpt lat="43.77391" lon="3.45194">
        <ele>759</ele>
        <time>2007-06-12T23:13:49Z</time>
      </trkpt>
      <trkpt lat="43.77394" lon="3.45272">
        <ele>761</ele>
        <time>2007-06-12T23:13:49Z</time>
      </trkpt>
      <trkpt lat="43.7732" lon="3.4543">
        <ele>763</ele>
        <time>2007-06-12T23:13:49Z</time>
      </trkpt>
      <trkpt lat="43.77188" lon="3.45581">
        <ele>749</ele>
        <time>2007-06-12T23:13:49Z</time>
      </trkpt>
      <trkpt lat="43.77072" lon="3.45602">
        <ele>733</ele>
        <time>2007-06-12T23:13:49Z</time>
      </trkpt>
      <trkpt lat="43.77048" lon="3.45653">
        <ele>732</ele>
        <time>2007-06-12T23:13:49Z</time>
      </trkpt>
      <trkpt lat="43.77" lon="3.45676">
        <ele>730</ele>
        <time>2007-06-12T23:13:49Z</time>
      </trkpt>
      <trkpt lat="43.76918" lon="3.45643">
        <ele>727</ele>
        <time>2007-06-12T23:13:49Z</time>
      </trkpt>
      <trkpt lat="43.76869" lon="3.45586">
        <ele>724</ele>
        <time>2007-06-12T23:13:49Z</time>
      </trkpt>
      <trkpt lat="43.76804" lon="3.45632">
        <ele>722</ele>
        <time>2007-06-12T23:13:49Z</time>
      </trkpt>
      <trkpt lat="43.76329" lon="3.45588">
        <ele>698</ele>
        <time>2007-06-12T23:13:49Z</time>
      </trkpt>
      <trkpt lat="43.76258" lon="3.45548">
        <ele>695</ele>
        <time>2007-06-12T23:13:49Z</time>
      </trkpt>
      <trkpt lat="43.76162" lon="3.45539">
        <ele>691</ele>
        <time>2007-06-12T23:13:49Z</time>
      </trkpt>
      <trkpt lat="43.75992" lon="3.45661">
        <ele>694</ele>
        <time>2007-06-12T23:13:49Z</time>
      </trkpt>
      <trkpt lat="43.75999" lon="3.45688">
        <ele>693</ele>
        <time>2007-06-12T23:13:49Z</time>
      </trkpt>
      <trkpt lat="43.75954" lon="3.45773">
        <ele>692</ele>
        <time>2007-06-12T23:13:49Z</time>
      </trkpt>
      <trkpt lat="43.75954" lon="3.45836">
        <ele>691</ele>
        <time>2007-06-12T23:13:49Z</time>
      </trkpt>
      <trkpt lat="43.75918" lon="3.45887">
        <ele>690</ele>
        <time>2007-06-12T23:13:49Z</time>
      </trkpt>
      <trkpt lat="43.75959" lon="3.45923">
        <ele>691</ele>
        <time>2007-06-12T23:13:49Z</time>
      </trkpt>
      <trkpt lat="43.75954" lon="3.45965">
        <ele>690</ele>
        <time>2007-06-12T23:13:49Z</time>
      </trkpt>
      <trkpt lat="43.75808" lon="3.46115">
        <ele>687</ele>
        <time>2007-06-12T23:13:49Z</time>
      </trkpt>
      <trkpt lat="43.75793" lon="3.46191">
        <ele>685</ele>
        <time>2007-06-12T23:13:49Z</time>
      </trkpt>
      <trkpt lat="43.75897" lon="3.46333">
        <ele>685</ele>
        <time>2007-06-12T23:13:49Z</time>
      </trkpt>
      <trkpt lat="43.75819" lon="3.46466">
        <ele>688</ele>
        <time>2007-06-12T23:13:49Z</time>
      </trkpt>
      <trkpt lat="43.75757" lon="3.46516">
        <ele>689</ele>
        <time>2007-06-12T23:13:49Z</time>
      </trkpt>
      <trkpt lat="43.7572" lon="3.46601">
        <ele>691</ele>
        <time>2007-06-12T23:13:49Z</time>
      </trkpt>
      <trkpt lat="43.75605" lon="3.46565">
        <ele>691</ele>
        <time>2007-06-12T23:13:49Z</time>
      </trkpt>
      <trkpt lat="43.75512" lon="3.46575">
        <ele>692</ele>
        <time>2007-06-12T23:13:49Z</time>
      </trkpt>
      <trkpt lat="43.75455" lon="3.46652">
        <ele>695</ele>
        <time>2007-06-12T23:13:49Z</time>
      </trkpt>
      <trkpt lat="43.75455" lon="3.46714">
        <ele>694</ele>
        <time>2007-06-12T23:13:49Z</time>
      </trkpt>
      <trkpt lat="43.75433" lon="3.46723">
        <ele>693</ele>
        <time>2007-06-12T23:13:49Z</time>
      </trkpt>
      <trkpt lat="43.75411" lon="3.46786">
        <ele>690</ele>
        <time>2007-06-12T23:13:49Z</time>
      </trkpt>
      <trkpt lat="43.75366" lon="3.46832">
        <ele>689</ele>
        <time>2007-06-12T23:13:49Z</time>
      </trkpt>
      <trkpt lat="43.7531" lon="3.46947">
        <ele>686</ele>
        <time>2007-06-12T23:13:49Z</time>
      </trkpt>
      <trkpt lat="43.75334" lon="3.47933">
        <ele>679</ele>
        <time>2007-06-12T23:13:49Z</time>
      </trkpt>
      <trkpt lat="43.75278" lon="3.48143">
        <ele>683</ele>
        <time>2007-06-12T23:13:49Z</time>
      </trkpt>
      <trkpt lat="43.75193" lon="3.48237">
        <ele>685</ele>
        <time>2007-06-12T23:13:49Z</time>
      </trkpt>
      <trkpt lat="43.75202" lon="3.48277">
        <ele>686</ele>
        <time>2007-06-12T23:13:49Z</time>
      </trkpt>
      <trkpt lat="43.75319" lon="3.48413">
        <ele>688</ele>
        <time>2007-06-12T23:13:49Z</time>
      </trkpt>
      <trkpt lat="43.75369" lon="3.48563">
        <ele>695</ele>
        <time>2007-06-12T23:13:49Z</time>
      </trkpt>
      <trkpt lat="43.75329" lon="3.48636">
        <ele>707</ele>
        <time>2007-06-12T23:13:49Z</time>
      </trkpt>
      <trkpt lat="43.75234" lon="3.48611">
        <ele>717</ele>
        <time>2007-06-12T23:13:49Z</time>
      </trkpt>
      <trkpt lat="43.75068" lon="3.48677">
        <ele>736</ele>
        <time>2007-06-12T23:13:49Z</time>
      </trkpt>
      <trkpt lat="43.75011" lon="3.48664">
        <ele>736</ele>
        <time>2007-06-12T23:13:49Z</time>
      </trkpt>
      <trkpt lat="43.74956" lon="3.48685">
        <ele>747</ele>
        <time>2007-06-12T23:13:49Z</time>
      </trkpt>
      <trkpt lat="43.74911" lon="3.48752">
        <ele>760</ele>
        <time>2007-06-12T23:13:49Z</time>
      </trkpt>
      <trkpt lat="43.74818" lon="3.48777">
        <ele>776</ele>
        <time>2007-06-12T23:13:49Z</time>
      </trkpt>
      <trkpt lat="43.74723" lon="3.48716">
        <ele>786</ele>
        <time>2007-06-12T23:13:49Z</time>
      </trkpt>
      <trkpt lat="43.74699" lon="3.48645">
        <ele>782</ele>
        <time>2007-06-12T23:13:49Z</time>
      </trkpt>
      <trkpt lat="43.74617" lon="3.48584">
        <ele>797</ele>
        <time>2007-06-12T23:13:49Z</time>
      </trkpt>
      <trkpt lat="43.74474" lon="3.4853">
        <ele>807</ele>
        <time>2007-06-12T23:13:49Z</time>
      </trkpt>
      <trkpt lat="43.74446" lon="3.48574">
        <ele>812</ele>
        <time>2007-06-12T23:13:49Z</time>
      </trkpt>
      <trkpt lat="43.74517" lon="3.48721">
        <ele>811</ele>
        <time>2007-06-12T23:13:49Z</time>
      </trkpt>
      <trkpt lat="43.74497" lon="3.48775">
        <ele>814</ele>
        <time>2007-06-12T23:13:49Z</time>
      </trkpt>
      <trkpt lat="43.74444" lon="3.48784">
        <ele>813</ele>
        <time>2007-06-12T23:13:49Z</time>
      </trkpt>
      <trkpt lat="43.74359" lon="3.48848">
        <ele>803</ele>
        <time>2007-06-12T23:13:49Z</time>
      </trkpt>
      <trkpt lat="43.74487" lon="3.49118">
        <ele>789</ele>
        <time>2007-06-12T23:13:49Z</time>
      </trkpt>
      <trkpt lat="43.74599" lon="3.49153">
        <ele>785</ele>
        <time>2007-06-12T23:13:49Z</time>
      </trkpt>
      <trkpt lat="43.74701" lon="3.49263">
        <ele>788</ele>
        <time>2007-06-12T23:13:49Z</time>
      </trkpt>
      <trkpt lat="43.74714" lon="3.49343">
        <ele>790</ele>
        <time>2007-06-12T23:13:49Z</time>
      </trkpt>
      <trkpt lat="43.74802" lon="3.49481">
        <ele>785</ele>
        <time>2007-06-12T23:13:49Z</time>
      </trkpt>
      <trkpt lat="43.74791" lon="3.49613">
        <ele>782</ele>
        <time>2007-06-12T23:13:49Z</time>
      </trkpt>
      <trkpt lat="43.75006" lon="3.49969">
        <ele>764</ele>
        <time>2007-06-12T23:13:49Z</time>
      </trkpt>
      <trkpt lat="43.75055" lon="3.4998">
        <ele>763</ele>
        <time>2007-06-12T23:13:49Z</time>
      </trkpt>
      <trkpt lat="43.7508" lon="3.49943">
        <ele>763</ele>
        <time>2007-06-12T23:13:49Z</time>
      </trkpt>
      <trkpt lat="43.7512" lon="3.49937">
        <ele>762</ele>
        <time>2007-06-12T23:13:49Z</time>
      </trkpt>
      <trkpt lat="43.75244" lon="3.50011">
        <ele>756</ele>
        <time>2007-06-12T23:13:49Z</time>
      </trkpt>
      <trkpt lat="43.7533" lon="3.49953">
        <ele>747</ele>
        <time>2007-06-12T23:13:49Z</time>
      </trkpt>
      <trkpt lat="43.75459" lon="3.49995">
        <ele>728</ele>
        <time>2007-06-12T23:13:49Z</time>
      </trkpt>
      <trkpt lat="43.75567" lon="3.50082">
        <ele>734</ele>
        <time>2007-06-12T23:13:49Z</time>
      </trkpt>
      <trkpt lat="43.75649" lon="3.50071">
        <ele>737</ele>
        <time>2007-06-12T23:13:49Z</time>
      </trkpt>
      <trkpt lat="43.7564" lon="3.50187">
        <ele>744</ele>
        <time>2007-06-12T23:13:49Z</time>
      </trkpt>
      <trkpt lat="43.75768" lon="3.50196">
        <ele>754</ele>
        <time>2007-06-12T23:13:49Z</time>
      </trkpt>
      <trkpt lat="43.75908" lon="3.50282">
        <ele>764</ele>
        <time>2007-06-12T23:13:49Z</time>
      </trkpt>
      <trkpt lat="43.75942" lon="3.50374">
        <ele>767</ele>
        <time>2007-06-12T23:13:49Z</time>
      </trkpt>
      <trkpt lat="43.75999" lon="3.50437">
        <ele>764</ele>
        <time>2007-06-12T23:13:49Z</time>
      </trkpt>
      <trkpt lat="43.76046" lon="3.50572">
        <ele>758</ele>
        <time>2007-06-12T23:13:49Z</time>
      </trkpt>
      <trkpt lat="43.76138" lon="3.50674">
        <ele>742</ele>
        <time>2007-06-12T23:13:49Z</time>
      </trkpt>
      <trkpt lat="43.76184" lon="3.50798">
        <ele>739</ele>
        <time>2007-06-12T23:13:49Z</time>
      </trkpt>
      <trkpt lat="43.76236" lon="3.51165">
        <ele>709</ele>
        <time>2007-06-12T23:13:49Z</time>
      </trkpt>
      <trkpt lat="43.76385" lon="3.51242">
        <ele>704</ele>
        <time>2007-06-12T23:13:49Z</time>
      </trkpt>
      <trkpt lat="43.76447" lon="3.51457">
        <ele>682</ele>
        <time>2007-06-12T23:13:49Z</time>
      </trkpt>
      <trkpt lat="43.76478" lon="3.5149">
        <ele>683</ele>
        <time>2007-06-12T23:13:49Z</time>
      </trkpt>
      <trkpt lat="43.76466" lon="3.51564">
        <ele>675</ele>
        <time>2007-06-12T23:13:49Z</time>
      </trkpt>
      <trkpt lat="43.76487" lon="3.51646">
        <ele>665</ele>
        <time>2007-06-12T23:13:49Z</time>
      </trkpt>
      <trkpt lat="43.76579" lon="3.51757">
        <ele>666</ele>
        <time>2007-06-12T23:13:49Z</time>
      </trkpt>
      <trkpt lat="43.76595" lon="3.51815">
        <ele>670</ele>
        <time>2007-06-12T23:13:49Z</time>
      </trkpt>
      <trkpt lat="43.76656" lon="3.51896">
        <ele>663</ele>
        <time>2007-06-12T23:13:49Z</time>
      </trkpt>
      <trkpt lat="43.76893" lon="3.52032">
        <ele>659</ele>
        <time>2007-06-12T23:13:49Z</time>
      </trkpt>
      <trkpt lat="43.76955" lon="3.52149">
        <ele>642</ele>
        <time>2007-06-12T23:13:49Z</time>
      </trkpt>
      <trkpt lat="43.77044" lon="3.522">
        <ele>643</ele>
        <time>2007-06-12T23:13:49Z</time>
      </trkpt>
      <trkpt lat="43.77046" lon="3.52306">
        <ele>627</ele>
        <time>2007-06-12T23:13:49Z</time>
      </trkpt>
      <trkpt lat="43.77104" lon="3.52393">
        <ele>627</ele>
        <time>2007-06-12T23:13:49Z</time>
      </trkpt>
      <trkpt lat="43.77191" lon="3.52451">
        <ele>624</ele>
        <time>2007-06-12T23:13:49Z</time>
      </trkpt>
      <trkpt lat="43.77206" lon="3.52523">
        <ele>608</ele>
        <time>2007-06-12T23:13:49Z</time>
      </trkpt>
      <trkpt lat="43.77242" lon="3.52554">
        <ele>611</ele>
        <time>2007-06-12T23:13:49Z</time>
      </trkpt>
      <trkpt lat="43.77235" lon="3.52653">
        <ele>597</ele>
        <time>2007-06-12T23:13:49Z</time>
      </trkpt>
      <trkpt lat="43.77302" lon="3.52769">
        <ele>585</ele>
        <time>2007-06-12T23:13:49Z</time>
      </trkpt>
      <trkpt lat="43.77396" lon="3.52823">
        <ele>594</ele>
        <time>2007-06-12T23:13:49Z</time>
      </trkpt>
      <trkpt lat="43.77406" lon="3.5288">
        <ele>575</ele>
        <time>2007-06-12T23:13:49Z</time>
      </trkpt>
      <trkpt lat="43.7754" lon="3.53037">
        <ele>568</ele>
        <time>2007-06-12T23:13:49Z</time>
      </trkpt>
      <trkpt lat="43.77591" lon="3.5335">
        <ele>555</ele>
        <time>2007-06-12T23:13:49Z</time>
      </trkpt>
      <trkpt lat="43.77675" lon="3.53612">
        <ele>549</ele>
        <time>2007-06-12T23:13:49Z</time>
      </trkpt>
      <trkpt lat="43.77747" lon="3.53721">
        <ele>544</ele>
        <time>2007-06-12T23:13:49Z</time>
      </trkpt>
      <trkpt lat="43.77748" lon="3.53767">
        <ele>543</ele>
        <time>2007-06-12T23:13:49Z</time>
      </trkpt>
      <trkpt lat="43.77665" lon="3.53791">
        <ele>528</ele>
        <time>2007-06-12T23:13:49Z</time>
      </trkpt>
      <trkpt lat="43.77466" lon="3.5372">
        <ele>514</ele>
        <time>2007-06-12T23:13:49Z</time>
      </trkpt>
      <trkpt lat="43.77355" lon="3.53773">
        <ele>512</ele>
        <time>2007-06-12T23:13:49Z</time>
      </trkpt>
      <trkpt lat="43.77308" lon="3.53702">
        <ele>509</ele>
        <time>2007-06-12T23:13:49Z</time>
      </trkpt>
      <trkpt lat="43.77313" lon="3.53585">
        <ele>507</ele>
        <time>2007-06-12T23:13:49Z</time>
      </trkpt>
      <trkpt lat="43.77237" lon="3.53186">
        <ele>510</ele>
        <time>2007-06-12T23:13:49Z</time>
      </trkpt>
      <trkpt lat="43.77178" lon="3.53188">
        <ele>506</ele>
        <time>2007-06-12T23:13:49Z</time>
      </trkpt>
      <trkpt lat="43.77145" lon="3.53148">
        <ele>501</ele>
        <time>2007-06-12T23:13:49Z</time>
      </trkpt>
      <trkpt lat="43.77037" lon="3.53154">
        <ele>493</ele>
        <time>2007-06-12T23:13:49Z</time>
      </trkpt>
      <trkpt lat="43.76811" lon="3.52822">
        <ele>492</ele>
        <time>2007-06-12T23:13:49Z</time>
      </trkpt>
      <trkpt lat="43.76753" lon="3.52827">
        <ele>487</ele>
        <time>2007-06-12T23:13:49Z</time>
      </trkpt>
      <trkpt lat="43.76644" lon="3.52941">
        <ele>477</ele>
        <time>2007-06-12T23:13:49Z</time>
      </trkpt>
      <trkpt lat="43.76591" lon="3.52962">
        <ele>475</ele>
        <time>2007-06-12T23:13:49Z</time>
      </trkpt>
      <trkpt lat="43.76587" lon="3.53066">
        <ele>472</ele>
        <time>2007-06-12T23:13:49Z</time>
      </trkpt>
      <trkpt lat="43.76607" lon="3.53134">
        <ele>471</ele>
        <time>2007-06-12T23:13:49Z</time>
      </trkpt>
      <trkpt lat="43.76565" lon="3.53285">
        <ele>472</ele>
        <time>2007-06-12T23:13:49Z</time>
      </trkpt>
      <trkpt lat="43.76462" lon="3.53343">
        <ele>471</ele>
        <time>2007-06-12T23:13:49Z</time>
      </trkpt>
      <trkpt lat="43.76446" lon="3.53458">
        <ele>472</ele>
        <time>2007-06-12T23:13:49Z</time>
      </trkpt>
      <trkpt lat="43.76401" lon="3.53504">
        <ele>472</ele>
        <time>2007-06-12T23:13:49Z</time>
      </trkpt>
      <trkpt lat="43.76324" lon="3.53521">
        <ele>482</ele>
        <time>2007-06-12T23:13:49Z</time>
      </trkpt>
      <trkpt lat="43.7626" lon="3.5357">
        <ele>488</ele>
        <time>2007-06-12T23:13:49Z</time>
      </trkpt>
      <trkpt lat="43.76277" lon="3.53524">
        <ele>485</ele>
        <time>2007-06-12T23:13:49Z</time>
      </trkpt>
      <trkpt lat="43.76257" lon="3.53437">
        <ele>486</ele>
        <time>2007-06-12T23:13:49Z</time>
      </trkpt>
      <trkpt lat="43.76155" lon="3.5343">
        <ele>503</ele>
        <time>2007-06-12T23:13:49Z</time>
      </trkpt>
      <trkpt lat="43.76019" lon="3.53549">
        <ele>507</ele>
        <time>2007-06-12T23:13:49Z</time>
      </trkpt>
      <trkpt lat="43.75969" lon="3.53634">
        <ele>508</ele>
        <time>2007-06-12T23:13:49Z</time>
      </trkpt>
      <trkpt lat="43.75892" lon="3.53698">
        <ele>511</ele>
        <time>2007-06-12T23:13:49Z</time>
      </trkpt>
      <trkpt lat="43.75859" lon="3.53663">
        <ele>509</ele>
        <time>2007-06-12T23:13:49Z</time>
      </trkpt>
      <trkpt lat="43.75906" lon="3.5353">
        <ele>502</ele>
        <time>2007-06-12T23:13:49Z</time>
      </trkpt>
      <trkpt lat="43.75853" lon="3.53516">
        <ele>508</ele>
        <time>2007-06-12T23:13:49Z</time>
      </trkpt>
      <trkpt lat="43.75774" lon="3.53343">
        <ele>498</ele>
        <time>2007-06-12T23:13:49Z</time>
      </trkpt>
      <trkpt lat="43.75742" lon="3.53358">
        <ele>499</ele>
        <time>2007-06-12T23:13:49Z</time>
      </trkpt>
      <trkpt lat="43.7571" lon="3.53437">
        <ele>510</ele>
        <time>2007-06-12T23:13:49Z</time>
      </trkpt>
      <trkpt lat="43.75659" lon="3.53408">
        <ele>499</ele>
        <time>2007-06-12T23:13:49Z</time>
      </trkpt>
      <trkpt lat="43.75659" lon="3.53316">
        <ele>490</ele>
        <time>2007-06-12T23:13:49Z</time>
      </trkpt>
      <trkpt lat="43.75579" lon="3.53368">
        <ele>491</ele>
        <time>2007-06-12T23:13:49Z</time>
      </trkpt>
      <trkpt lat="43.75537" lon="3.53488">
        <ele>504</ele>
        <time>2007-06-12T23:13:49Z</time>
      </trkpt>
      <trkpt lat="43.75423" lon="3.53255">
        <ele>480</ele>
        <time>2007-06-12T23:13:49Z</time>
      </trkpt>
      <trkpt lat="43.75388" lon="3.53331">
        <ele>484</ele>
        <time>2007-06-12T23:13:49Z</time>
      </trkpt>
      <trkpt lat="43.75356" lon="3.53315">
        <ele>480</ele>
        <time>2007-06-12T23:13:49Z</time>
      </trkpt>
      <trkpt lat="43.75313" lon="3.53377">
        <ele>485</ele>
        <time>2007-06-12T23:13:49Z</time>
      </trkpt>
      <trkpt lat="43.75264" lon="3.53397">
        <ele>484</ele>
        <time>2007-06-12T23:13:49Z</time>
      </trkpt>
      <trkpt lat="43.75235" lon="3.5344">
        <ele>496</ele>
        <time>2007-06-12T23:13:49Z</time>
      </trkpt>
      <trkpt lat="43.75195" lon="3.53394">
        <ele>486</ele>
        <time>2007-06-12T23:13:49Z</time>
      </trkpt>
      <trkpt lat="43.75177" lon="3.53284">
        <ele>474</ele>
        <time>2007-06-12T23:13:49Z</time>
      </trkpt>
      <trkpt lat="43.75098" lon="3.53345">
        <ele>490</ele>
        <time>2007-06-12T23:13:49Z</time>
      </trkpt>
      <trkpt lat="43.75015" lon="3.53344">
        <ele>496</ele>
        <time>2007-06-12T23:13:49Z</time>
      </trkpt>
      <trkpt lat="43.74991" lon="3.53303">
        <ele>485</ele>
        <time>2007-06-12T23:13:49Z</time>
      </trkpt>
      <trkpt lat="43.74902" lon="3.53251">
        <ele>476</ele>
        <time>2007-06-12T23:13:49Z</time>
      </trkpt>
      <trkpt lat="43.74815" lon="3.53324">
        <ele>484</ele>
        <time>2007-06-12T23:13:49Z</time>
      </trkpt>
      <trkpt lat="43.74754" lon="3.53293">
        <ele>479</ele>
        <time>2007-06-12T23:13:49Z</time>
      </trkpt>
      <trkpt lat="43.74657" lon="3.53308">
        <ele>488</ele>
        <time>2007-06-12T23:13:49Z</time>
      </trkpt>
      <trkpt lat="43.74635" lon="3.53174">
        <ele>480</ele>
        <time>2007-06-12T23:13:49Z</time>
      </trkpt>
      <trkpt lat="43.74655" lon="3.5304">
        <ele>472</ele>
        <time>2007-06-12T23:13:49Z</time>
      </trkpt>
      <trkpt lat="43.74696" lon="3.53132">
        <ele>461</ele>
        <time>2007-06-12T23:13:49Z</time>
      </trkpt>
      <trkpt lat="43.74812" lon="3.53163">
        <ele>453</ele>
        <time>2007-06-12T23:13:49Z</time>
      </trkpt>
      <trkpt lat="43.74902" lon="3.53101">
        <ele>448</ele>
        <time>2007-06-12T23:13:49Z</time>
      </trkpt>
      <trkpt lat="43.74974" lon="3.52975">
        <ele>441</ele>
        <time>2007-06-12T23:13:49Z</time>
      </trkpt>
      <trkpt lat="43.74957" lon="3.52818">
        <ele>425</ele>
        <time>2007-06-12T23:13:49Z</time>
      </trkpt>
      <trkpt lat="43.75016" lon="3.52766">
        <ele>422</ele>
        <time>2007-06-12T23:13:49Z</time>
      </trkpt>
      <trkpt lat="43.75057" lon="3.5267">
        <ele>418</ele>
        <time>2007-06-12T23:13:49Z</time>
      </trkpt>
      <trkpt lat="43.74977" lon="3.52584">
        <ele>414</ele>
        <time>2007-06-12T23:13:49Z</time>
      </trkpt>
      <trkpt lat="43.74913" lon="3.52459">
        <ele>409</ele>
        <time>2007-06-12T23:13:49Z</time>
      </trkpt>
      <trkpt lat="43.74825" lon="3.52405">
        <ele>410</ele>
        <time>2007-06-12T23:13:49Z</time>
      </trkpt>
      <trkpt lat="43.74866" lon="3.52247">
        <ele>409</ele>
        <time>2007-06-12T23:13:49Z</time>
      </trkpt>
      <trkpt lat="43.74836" lon="3.52191">
        <ele>405</ele>
        <time>2007-06-12T23:13:49Z</time>
      </trkpt>
      <trkpt lat="43.74828" lon="3.52097">
        <ele>402</ele>
        <time>2007-06-12T23:13:49Z</time>
      </trkpt>
      <trkpt lat="43.74859" lon="3.52051">
        <ele>399</ele>
        <time>2007-06-12T23:13:49Z</time>
      </trkpt>
      <trkpt lat="43.74859" lon="3.51955">
        <ele>393</ele>
        <time>2007-06-12T23:13:49Z</time>
      </trkpt>
      <trkpt lat="43.74814" lon="3.5187">
        <ele>388</ele>
        <time>2007-06-12T23:13:49Z</time>
      </trkpt>
      <trkpt lat="43.74581" lon="3.51667">
        <ele>372</ele>
        <time>2007-06-12T23:13:49Z</time>
      </trkpt>
      <trkpt lat="43.74497" lon="3.51684">
        <ele>363</ele>
        <time>2007-06-12T23:13:49Z</time>
      </trkpt>
      <trkpt lat="43.74342" lon="3.51649">
        <ele>351</ele>
        <time>2007-06-12T23:13:49Z</time>
      </trkpt>
      <trkpt lat="43.74182" lon="3.51543">
        <ele>340</ele>
        <time>2007-06-12T23:13:49Z</time>
      </trkpt>
      <trkpt lat="43.74182" lon="3.51489">
        <ele>349</ele>
        <time>2007-06-12T23:13:49Z</time>
      </trkpt>
      <trkpt lat="43.74209" lon="3.51445">
        <ele>356</ele>
        <time>2007-06-12T23:13:49Z</time>
      </trkpt>
      <trkpt lat="43.74212" lon="3.51327">
        <ele>366</ele>
        <time>2007-06-12T23:13:49Z</time>
      </trkpt>
      <trkpt lat="43.74328" lon="3.51115">
        <ele>375</ele>
        <time>2007-06-12T23:13:49Z</time>
      </trkpt>
      <trkpt lat="43.74313" lon="3.51025">
        <ele>380</ele>
        <time>2007-06-12T23:13:49Z</time>
      </trkpt>
      <trkpt lat="43.74259" lon="3.51154">
        <ele>375</ele>
        <time>2007-06-12T23:13:49Z</time>
      </trkpt>
      <trkpt lat="43.74202" lon="3.51198">
        <ele>376</ele>
        <time>2007-06-12T23:13:49Z</time>
      </trkpt>
      <trkpt lat="43.74103" lon="3.51148">
        <ele>402</ele>
        <time>2007-06-12T23:13:49Z</time>
      </trkpt>
      <trkpt lat="43.74055" lon="3.51154">
        <ele>404</ele>
        <time>2007-06-12T23:13:49Z</time>
      </trkpt>
      <trkpt lat="43.74013" lon="3.51099">
        <ele>411</ele>
        <time>2007-06-12T23:13:49Z</time>
      </trkpt>
      <trkpt lat="43.73991" lon="3.51125">
        <ele>408</ele>
        <time>2007-06-12T23:13:49Z</time>
      </trkpt>
      <trkpt lat="43.73908" lon="3.51073">
        <ele>415</ele>
        <time>2007-06-12T23:13:49Z</time>
      </trkpt>
      <trkpt lat="43.73907" lon="3.51034">
        <ele>417</ele>
        <time>2007-06-12T23:13:49Z</time>
      </trkpt>
      <trkpt lat="43.74011" lon="3.50873">
        <ele>427</ele>
        <time>2007-06-12T23:13:49Z</time>
      </trkpt>
      <trkpt lat="43.74038" lon="3.50801">
        <ele>426</ele>
      </trkpt>
      <trkpt lat="43.74059" lon="3.50708">
        <ele>428</ele>
      </trkpt>
      <trkpt lat="43.74072" lon="3.50663">
        <ele>431</ele>
      </trkpt>
      <trkpt lat="43.74088" lon="3.50637">
        <ele>432</ele>
      </trkpt>
      <trkpt lat="43.74097" lon="3.50614">
        <ele>432</ele>
      </trkpt>
      <trkpt lat="43.741" lon="3.50591">
        <ele>433</ele>
      </trkpt>
      <trkpt lat="43.74099" lon="3.50554">
        <ele>435</ele>
      </trkpt>
      <trkpt lat="43.74094" lon="3.50492">
        <ele>439</ele>
      </trkpt>
    </trkseg>
  </trk>
</gpx>